[[{"header":{"parameterUnit":"m.s-1","parameterCategory":1,"la1":30.6,"la2":29.2853,"lo1":-89.7004,"lo2":-87.6739,"dy":0.0162,"dx":0.0183,"nx":112,"ny":82,"refTime":"2024-06-02T00:00:00:Z","depth":0,"parameterNumber":2,"parameterNumberName":"U-component_of_WINDS"},"data":[0.0,0.0,0.0,0.0,0.0,0.0,0.0,0.0,0.0,0.0,0.0,0.0,0.0,0.0,0.0,0.0,0.0,0.0,0.0,0.0,0.0,0.0,0.0,0.0,0.0,0.0,0.0,0.0,0.0,0.0,0.0,0.0,0.0,0.0,0.0,0.0,0.0,0.0,0.0,0.0,0.0,0.0,0.0,0.0,0.0,0.0,0.0,0.0,0.0,0.0,0.0,0.0,0.0,0.0,0.0,0.0,0.0,0.0,0.0,0.0,0.0,0.0,0.0,0.0,0.0,0.0,0.0,0.0,0.0,0.0,0.0,0.0,0.0,0.0,0.0,0.0,0.0,0.0,0.0,0.0,0.0,0.0,0.0,0.0,0.0,0.0,0.0,0.0,0.0,0.0,-0.1258,-0.7959,-1.7473,-2.3622,-2.4302,-2.4136,-2.1639,-1.6099,0.0,0.0,0.0,0.0,0.0,0.0,0.0,0.0,0.0,0.0,0.0,0.0,0.0,0.0,0.0,0.0,0.0,0.0,0.0,0.0,0.0,0.0,0.0,0.0,0.0,0.0,0.0,0.0,0.0,0.0,0.0,0.0,0.0,0.0,0.0,0.0,0.0,0.0,0.0,0.0,0.0,0.0,0.0,0.0,0.0,0.0,0.0,0.0,0.0,0.0,0.0,0.0,0.0,0.0,0.0,0.0,0.0,0.0,0.0,0.0,0.0,0.0,0.0,0.0,0.0,0.0,0.0,0.0,0.0,0.0,0.0,0.0,0.0,0.0,0.0,0.0,0.0,0.0,0.0,0.0,0.0,0.0,0.0,0.0,0.0,0.0,0.0,0.0,0.0,0.0,0.0,0.0,0.0,0.0,0.0,0.0,0.0,0.0,0.0,0.0,0.0,0.0,0.0,0.0,-0.5927,-1.5545,-2.0748,-2.397,-2.4958,-2.379,-2.0877,-1.585,0.0,0.0,0.0,0.0,0.0,0.0,0.0,0.0,0.0,0.0,0.0,0.0,0.0,0.0,0.0,0.0,0.0,0.0,0.0,0.0,0.0,0.0,0.0,0.0,0.0,0.0,0.0,0.0,0.0,0.0,0.0,0.0,0.0,0.0,0.0,0.0,0.0,0.0,0.0,0.0,0.0,0.0,0.0,0.0,0.0,0.0,0.0,0.0,0.0,0.0,0.0,0.0,0.0,0.0,0.0,0.0,0.0,0.0,0.0,0.0,0.0,0.0,0.0,0.0,0.0,0.0,0.0,0.0,0.0,0.0,0.0,0.0,0.0,0.0,0.0,0.0,0.0,0.0,0.0,0.0,0.0,0.0,0.0,0.0,0.0,0.0,0.0,0.0,0.0,0.0,0.0,0.0,0.0,0.0,0.0,0.0,0.0,0.0,0.0,0.0,0.0,0.0,0.0,-0.3141,-1.0411,-1.8324,-2.1901,-2.4105,-2.5116,-2.4191,-2.1769,-1.7547,-1.3608,0.0,0.0,0.0,0.0,0.0,0.0,0.0,0.0,0.0,0.0,0.0,0.0,0.0,0.0,0.0,0.0,0.0,0.0,0.0,0.0,0.0,0.0,0.0,0.0,0.0,0.0,0.0,0.0,0.0,0.0,0.0,0.0,0.0,0.0,0.0,0.0,0.0,0.0,0.0,0.0,0.0,0.0,0.0,0.0,0.0,0.0,0.0,0.0,0.0,0.0,0.0,0.0,0.0,0.0,0.0,0.0,0.0,0.0,0.0,0.0,0.0,0.0,0.0,0.0,0.0,0.0,0.0,0.0,0.0,0.0,0.0,0.0,0.0,0.0,0.0,0.0,0.0,0.0,0.0,0.0,0.0,0.0,0.0,0.0,0.0,0.0,0.0,0.0,0.0,0.0,0.0,0.0,0.0,0.0,0.0,0.0,0.0,0.0,0.0,0.0,0.0,0.0,-0.9473,-1.5185,-1.9976,-2.2557,-2.4294,-2.5185,-2.4222,-2.2159,-1.8844,-1.3955,0.0,0.0,0.0,0.0,0.0,0.0,0.0,0.0,0.0,0.0,0.0,0.0,0.0,0.0,0.0,0.0,0.0,0.0,0.0,0.0,0.0,0.0,0.0,0.0,0.0,0.0,0.0,0.0,0.0,0.0,0.0,0.0,0.0,0.0,0.0,0.0,0.0,0.0,0.0,0.0,0.0,0.0,0.0,0.0,0.0,0.0,0.0,0.0,0.0,0.0,0.0,0.0,0.0,0.0,0.0,0.0,0.0,0.0,0.0,0.0,0.0,0.0,0.0,0.0,0.0,0.0,0.0,0.0,0.0,0.0,0.0,0.0,0.0,0.0,0.0,0.0,0.0,0.0,0.0,0.0,0.0,0.0,0.0,0.0,0.0,0.0,0.0,0.0,0.0,0.0,0.0,0.0,0.0,0.0,0.0,0.0,0.0,0.0,0.0,0.0,0.0,0.0,-1.5536,-2.0593,-2.2066,-2.3452,-2.4604,-2.5418,-2.3146,-2.0679,-1.8305,-1.3213,0.0,0.0,0.0,0.0,0.0,0.0,0.0,0.0,0.0,0.0,0.0,0.0,0.0,0.0,0.0,0.0,0.0,0.0,0.0,0.0,0.0,0.0,0.0,0.0,0.0,0.0,0.0,0.0,0.0,0.0,0.0,0.0,0.0,0.0,0.0,0.0,0.0,0.0,0.0,0.0,0.0,0.0,0.0,0.0,0.0,0.0,0.0,0.0,0.0,0.0,0.0,0.0,0.0,0.0,0.0,0.0,0.0,0.0,0.0,0.0,0.0,0.0,0.0,0.0,0.0,0.0,0.0,0.0,0.0,0.0,0.0,0.0,0.0,0.0,0.0,0.0,0.0,0.0,0.0,0.0,0.0,0.0,0.0,0.0,0.0,0.0,0.0,0.0,0.0,0.0,0.0,0.0,0.0,0.0,0.0,0.0,0.0,0.0,0.0,0.0,0.0,0.0,-1.6897,-1.9631,-2.2255,-2.3595,-2.4521,-2.5084,-2.3927,-2.1951,-1.9095,0.0,0.0,0.0,0.0,0.0,0.0,0.0,0.0,0.0,0.0,0.0,0.0,0.0,0.0,0.0,0.0,0.0,0.0,0.0,0.0,0.0,0.0,0.0,0.0,0.0,0.0,0.0,0.0,0.0,0.0,0.0,0.0,0.0,0.0,0.0,0.0,0.0,0.0,0.0,0.0,0.0,0.0,0.0,0.0,0.0,0.0,0.0,0.0,0.0,0.0,0.0,0.0,0.0,0.0,0.0,0.0,0.0,0.0,0.0,0.0,0.0,0.0,0.0,0.0,0.0,0.0,0.0,0.0,0.0,0.0,0.0,0.0,0.0,0.0,0.0,0.0,0.0,0.0,0.0,0.0,0.0,0.0,0.0,0.0,0.0,0.0,0.0,0.0,0.0,0.0,0.0,0.0,0.0,0.0,0.0,0.0,0.0,0.0,0.0,0.0,0.0,0.0,-1.5721,-1.7535,-1.9435,-2.2534,-2.3725,-2.4482,-2.4937,-2.3968,-2.2138,-1.9297,0.0,0.0,0.0,0.0,0.0,0.0,0.0,0.0,0.0,0.0,0.0,0.0,0.0,0.0,0.0,0.0,0.0,0.0,0.0,0.0,0.0,0.0,0.0,0.0,0.0,0.0,0.0,0.0,0.0,0.0,0.0,0.0,0.0,0.0,0.0,0.0,0.0,0.0,0.0,0.0,0.0,0.0,0.0,0.0,0.0,0.0,0.0,0.0,0.0,0.0,0.0,0.0,0.0,0.0,0.0,0.0,0.0,0.0,0.0,0.0,0.0,0.0,0.0,0.0,0.0,0.0,0.0,0.0,0.0,0.0,0.0,0.0,0.0,0.0,0.0,0.0,0.0,0.0,0.0,0.0,0.0,0.0,0.0,0.0,0.0,0.0,0.0,0.0,0.0,0.0,0.0,0.0,0.0,0.0,0.0,0.0,0.0,0.0,0.0,0.0,0.0,0.0,-1.4517,-1.7947,-2.0911,-2.325,-2.3989,-2.452,-2.5052,-2.2893,-2.0642,0.0,0.0,0.0,0.0,0.0,0.0,0.0,0.0,0.0,0.0,0.0,0.0,0.0,0.0,0.0,0.0,0.0,0.0,0.0,0.0,0.0,0.0,0.0,0.0,0.0,0.0,0.0,0.0,0.0,0.0,0.0,0.0,0.0,0.0,0.0,0.0,0.0,0.0,0.0,0.0,0.0,0.0,0.0,0.0,0.0,0.0,0.0,0.0,0.0,0.0,0.0,0.0,0.0,0.0,0.0,0.0,0.0,0.0,0.0,0.0,0.0,0.0,0.0,0.0,0.0,0.0,0.0,0.0,0.0,0.0,0.0,0.0,0.0,0.0,0.0,0.0,0.0,0.0,0.0,0.0,0.0,0.0,0.0,0.0,0.0,0.0,0.0,0.0,0.0,0.0,0.0,0.0,0.0,0.0,0.0,0.0,0.0,0.0,0.0,0.0,0.0,0.0,0.0,-1.6321,-1.9023,-2.1458,-2.3437,-2.4137,-2.4554,-2.4862,-2.3245,-2.1448,-1.9663,0.0,0.0,0.0,0.0,0.0,0.0,0.0,0.0,0.0,0.0,0.0,0.0,0.0,0.0,0.0,0.0,0.0,0.0,0.0,0.0,0.0,0.0,0.0,0.0,0.0,0.0,0.0,0.0,0.0,0.0,0.0,0.0,0.0,0.0,0.0,0.0,0.0,0.0,0.0,0.0,0.0,0.0,0.0,0.0,0.0,0.0,0.0,0.0,0.0,0.0,0.0,0.0,0.0,0.0,0.0,0.0,0.0,0.0,0.0,0.0,0.0,0.0,0.0,0.0,0.0,0.0,0.0,0.0,0.0,0.0,0.0,0.0,0.0,0.0,0.0,0.0,0.0,0.0,0.0,0.0,0.0,0.0,0.0,0.0,0.0,0.0,0.0,0.0,0.0,0.0,0.0,0.0,0.0,0.0,0.0,0.0,0.0,0.0,0.0,0.0,0.0,0.0,-1.7053,-1.9769,-2.1975,-2.3356,-2.4099,-2.4554,-2.4681,-2.3291,-2.1541,-1.9493,0.0,0.0,0.0,0.0,0.0,0.0,0.0,0.0,0.0,0.0,0.0,0.0,0.0,0.0,0.0,0.0,0.0,0.0,0.0,0.0,0.0,0.0,0.0,0.0,0.0,0.0,0.0,0.0,0.0,0.0,0.0,0.0,0.0,0.0,0.0,0.0,0.0,0.0,0.0,0.0,0.0,0.0,0.0,0.0,0.0,0.0,0.0,0.0,0.0,0.0,0.0,0.0,0.0,0.0,0.0,0.0,0.0,0.0,0.0,0.0,0.0,0.0,0.0,0.0,0.0,0.0,0.0,0.0,0.0,0.0,0.0,0.0,0.0,0.0,0.0,0.0,0.0,0.0,0.0,0.0,0.0,0.0,0.0,0.0,0.0,0.0,0.0,0.0,0.0,0.0,0.0,0.0,0.0,0.0,0.0,0.0,0.0,0.0,0.0,0.0,0.0,0.0,-1.713,-2.0154,-2.2357,-2.3165,-2.3946,-2.4461,-2.4495,-2.3224,-2.1323,-1.8772,0.0,0.0,0.0,0.0,0.0,0.0,0.0,0.0,0.0,0.0,0.0,0.0,0.0,0.0,0.0,0.0,0.0,0.0,0.0,0.0,0.0,0.0,0.0,0.0,0.0,0.0,0.0,0.0,0.0,0.0,0.0,0.0,0.0,0.0,0.0,0.0,0.0,0.0,0.0,0.0,0.0,0.0,0.0,0.0,0.0,0.0,0.0,0.0,0.0,0.0,0.0,0.0,0.0,0.0,0.0,0.0,0.0,0.0,0.0,0.0,-1.1308,-0.7864,0.0,0.0,0.0,0.0,0.0,0.0,0.0,0.0,0.0,0.0,0.0,0.0,0.0,0.0,0.0,0.0,0.0,0.0,0.0,0.0,0.0,0.0,0.0,0.0,0.0,0.0,0.0,0.0,0.0,0.0,0.0,0.0,0.0,0.0,0.0,0.0,0.0,0.0,0.0,0.0,-1.7922,-2.0301,-2.2177,-2.3454,-2.3759,-2.404,-2.4459,-2.3735,-2.241,-2.0408,-1.8179,0.0,0.0,0.0,0.0,0.0,0.0,0.0,0.0,0.0,0.0,0.0,0.0,0.0,0.0,0.0,0.0,0.0,0.0,0.0,0.0,0.0,0.0,0.0,0.0,0.0,0.0,0.0,0.0,0.0,0.0,0.0,0.0,0.0,0.0,0.0,0.0,0.0,0.0,0.0,0.0,0.0,0.0,0.0,0.0,0.0,0.0,0.0,0.0,0.0,0.0,0.0,0.0,0.0,0.0,0.0,0.0,0.0,0.0,0.0,-1.5085,-1.1951,0.0,0.0,0.0,0.0,0.0,0.0,0.0,0.0,0.0,0.0,0.0,0.0,0.0,0.0,0.0,0.0,0.0,0.0,0.0,0.0,0.0,0.0,0.0,0.0,0.0,0.0,0.0,0.0,0.0,0.0,0.0,0.0,0.0,0.0,0.0,0.0,0.0,0.0,0.0,0.0,-1.8831,-2.1192,-2.2901,-2.3617,-2.3837,-2.4037,-2.4321,-2.3764,-2.266,-2.091,-1.9084,0.0,0.0,0.0,0.0,0.0,0.0,0.0,0.0,0.0,0.0,0.0,0.0,0.0,0.0,0.0,0.0,0.0,0.0,0.0,0.0,0.0,0.0,0.0,0.0,0.0,0.0,0.0,0.0,0.0,0.0,0.0,0.0,0.0,0.0,0.0,0.0,0.0,0.0,0.0,0.0,0.0,0.0,0.0,0.0,0.0,0.0,0.0,0.0,0.0,0.0,0.0,0.0,0.0,-2.0664,-2.0916,-2.0785,-2.1367,-2.2001,-2.2462,-1.8867,-1.7042,-1.6363,-1.2953,0.0,0.0,0.0,0.0,0.0,0.0,0.0,0.0,0.0,0.0,0.0,0.0,0.0,0.0,0.0,0.0,0.0,0.0,0.0,0.0,0.0,0.0,-0.7195,-0.9704,-1.3022,-1.3885,-0.7661,0.0,0.0,0.0,0.0,0.0,0.0,0.0,0.0,0.0,0.0,0.0,-1.9816,-2.2141,-2.3649,-2.3692,-2.3978,-2.419,-2.4247,-2.3847,-2.2926,-2.1367,-1.9896,-1.8032,0.0,0.0,0.0,0.0,0.0,0.0,0.0,0.0,0.0,0.0,0.0,0.0,0.0,0.0,0.0,0.0,0.0,0.0,0.0,0.0,0.0,0.0,0.0,0.0,0.0,0.0,0.0,0.0,0.0,0.0,0.0,0.0,0.8378,1.0532,0.0,0.0,0.0,0.0,0.0,0.0,0.0,0.0,0.0,0.0,0.0,0.0,0.0,-1.3139,-1.5499,-1.7856,-1.838,-1.7235,-1.8768,-2.0004,-2.1005,-2.2035,-2.2962,-2.3698,-2.3688,0.0,-1.7296,-1.4443,0.0,0.0,0.0,0.0,0.0,0.0,0.0,0.0,0.0,0.0,0.0,0.0,0.0,0.0,0.0,0.0,0.0,0.0,0.0,0.0,0.0,0.0,-1.0203,-1.3816,-1.6937,-1.8919,-1.8162,-1.6472,-1.5143,-1.525,-1.3816,-1.2685,0.0,0.0,0.0,0.0,0.0,0.0,-2.0892,-2.2357,-2.3369,-2.3671,-2.3886,-2.4137,-2.4444,-2.4653,-2.4315,-2.3205,-2.1817,-2.0184,-1.827,-1.5837,0.0,0.0,0.0,0.0,0.0,0.0,0.0,0.0,0.0,0.0,0.0,0.0,0.0,0.0,0.0,0.0,0.0,0.0,0.0,0.0,0.0,0.0,0.0,0.0,0.0,0.0,0.0,0.0,0.0,0.7166,0.7861,0.754,0.6618,0.5719,0.0,0.0,0.0,0.0,0.0,0.0,0.0,0.0,0.0,-1.0459,-1.4507,-1.8465,-2.2345,-1.9023,-1.7696,-1.8432,-1.7892,-1.7909,-1.8358,-1.6081,-1.9654,-2.7245,-1.9691,-1.703,-1.7786,-1.5119,-1.2228,-0.9317,0.0,0.0,0.0,0.0,0.5996,0.6731,0.7236,0.5939,0.319,-0.2136,0.0,0.0,0.0,0.0,0.0,0.0,0.0,-0.3952,-0.7797,-1.1695,-1.529,-1.7967,-2.0316,-2.1953,-2.1884,-2.1353,-2.0333,-1.8564,-1.7591,-1.6669,-1.5418,-1.6251,0.0,0.0,0.0,-2.095,-2.2117,-2.3249,-2.3984,-2.4118,-2.4335,-2.4519,-2.4654,-2.4872,-2.4612,-2.372,-2.3195,-2.1857,-1.9482,-1.787,-1.5896,0.0,0.0,0.0,0.0,0.0,0.0,0.0,0.0,0.0,0.0,0.0,0.0,0.0,0.0,0.0,0.0,0.0,0.0,0.0,0.0,0.0,0.0,0.0,0.0,0.0,0.0,0.0,0.0,0.5449,0.5656,0.3906,0.2438,0.1009,0.0,0.0,0.0,0.0,0.0,0.0,-0.1694,-0.6009,-0.9773,-1.2585,-1.4288,-1.8906,-2.6702,-1.4856,-1.1486,-1.6704,-1.4984,-1.3957,-1.3361,-0.7355,-1.132,-2.2438,-1.5093,-1.2696,-1.4072,-1.4625,-1.2964,-0.9969,-0.9217,-0.7729,-0.5174,0.1698,0.5295,0.6728,0.7203,0.5354,0.1792,-0.3908,-0.6274,-0.6359,-0.3361,0.0,0.0,0.0,0.0,-0.951,-1.2701,-1.6449,-1.9811,-2.1453,-2.305,-2.4104,-2.3969,-2.4393,-2.3943,-2.0918,-2.0314,-1.9665,-1.7617,-1.8268,0.0,-1.9134,-2.0899,-2.2543,-2.334,-2.4106,-2.4594,-2.4594,-2.4741,-2.4855,-2.4855,-2.4993,-2.4809,-2.4216,-2.413,-2.316,-2.1067,-1.9703,-1.7946,-1.5687,0.0,0.0,0.0,0.0,0.0,0.0,0.0,0.0,0.0,0.0,0.0,0.0,0.0,0.0,0.0,0.0,0.0,0.0,0.0,0.0,0.0,0.0,0.0,0.0,0.0,0.0,0.0,0.0,0.0,0.1798,-0.2104,0.0,0.0,0.0,0.0,-0.4739,-0.5132,-0.6762,-1.0289,-1.1864,-1.3829,-1.6348,-0.7976,-1.0343,-2.4698,-0.2328,0.3205,-0.8309,-0.8189,-0.7355,-0.5547,0.339,0.4071,-0.2415,-1.3,-1.1886,-0.3329,-1.2291,-1.41,-1.1004,-0.8879,-0.617,-0.2867,0.1647,0.364,0.4439,0.6224,0.4477,0.0897,-0.2337,-0.5374,-0.7846,-0.7751,-0.7865,0.0,0.0,-1.4302,-1.4286,-1.8251,-2.0655,-2.2382,-2.3873,-2.4837,-2.5514,-2.5883,-2.6235,-2.5968,-2.4279,-2.3133,-2.2472,-2.2593,0.0,-2.18,-2.2864,-2.3236,-2.3729,-2.4605,-2.4737,-2.479,-2.479,-2.4917,-2.4998,-2.4998,-2.5163,-2.5274,-2.5235,-2.4524,-2.4043,-2.388,-2.1289,-1.9422,-1.8506,-1.5845,0.0,0.0,0.0,0.0,0.0,0.0,0.0,0.0,0.0,0.0,0.0,0.0,0.0,0.0,0.0,0.0,0.0,0.0,0.0,0.0,0.0,0.0,0.0,0.0,0.0,0.0,0.0,0.0,-0.4449,-0.8598,0.0,-0.9609,-1.0065,-1.0749,-1.1412,-1.1289,-1.1534,-1.24,-1.3267,-1.4449,-1.6067,-0.9472,-0.6278,-0.7118,0.9959,1.5257,0.8782,0.6316,0.5463,0.6241,1.184,0.9703,0.1247,-0.4364,-0.8816,-1.2435,-1.6784,-1.5759,-1.1324,-0.9759,-0.7295,-0.4134,-0.02,0.4216,0.7891,0.5229,0.2633,-0.0672,-0.7412,-1.0059,-1.0801,-1.1747,-1.2373,-1.3283,-1.5867,-1.7619,-1.9222,-2.1421,-2.3485,-2.508,-2.548,-2.6089,-2.6487,-2.6164,-2.6362,-2.6429,-2.586,-2.545,-2.4878,-2.3932,-2.4026,-2.4021,-2.3396,-2.39,-2.445,-2.4766,-2.4883,-2.4943,-2.4943,-2.5096,-2.5184,-2.5184,-2.5264,-2.5303,-2.5303,-2.4417,-2.3616,-2.2974,-2.1368,-1.9851,-1.8531,-1.7045,-1.5245,0.0,0.0,0.0,0.0,0.0,0.0,0.0,0.0,0.0,0.0,0.0,0.0,0.0,0.0,0.0,0.0,0.0,0.0,0.0,0.0,0.0,0.0,0.0,0.0,0.0,-0.9953,-1.2473,-1.1479,-1.4192,-1.5559,-1.414,-1.5538,-1.6466,-1.6282,-1.5796,-1.5328,-1.4929,-1.4662,-1.4449,-1.4307,-0.5888,0.1125,0.6341,2.0391,2.4829,1.9672,1.3954,1.0848,1.0267,1.1747,0.8013,0.0317,-0.3341,-0.9337,-1.6815,-2.02,-1.826,-1.289,-1.1215,-0.8506,-0.505,-0.0911,0.4171,0.8084,0.1984,-0.1908,-0.5428,-1.2472,-1.4756,-1.5016,-1.6517,-1.7458,-1.827,-1.9434,-2.1454,-2.353,-2.451,-2.5744,-2.6796,-2.6924,-2.7273,-2.7507,-2.7162,-2.725,-2.742,-2.742,-2.6979,-2.6266,-2.5281,-2.5653,-2.5702,-2.4479,-2.4875,-2.5219,-2.5006,-2.5061,-2.5099,-2.5099,-2.5214,-2.5303,-2.5303,-2.5303,-2.5303,-2.5303,-2.4417,-2.3586,-2.2924,-2.167,-2.0477,-1.9404,-1.8001,-1.6423,-1.4641,0.0,0.0,0.0,0.0,0.0,0.0,0.0,0.0,0.0,0.0,0.0,0.0,0.0,0.0,0.0,0.0,0.0,0.0,0.0,0.0,0.0,0.0,0.0,-1.4391,-1.5259,-1.6566,-1.8764,-1.8603,-1.7911,-1.6987,-1.7204,-1.7836,-1.8969,-1.8295,-1.7958,-1.8258,-1.6471,-1.4179,-1.154,0.281,1.1341,1.3257,2.8105,3.1261,2.2681,1.361,0.8147,0.579,0.3044,-0.0319,-0.4452,-1.0885,-1.3978,-1.5017,-2.2087,-2.1485,-1.5783,-1.3078,-0.9465,-0.5348,-0.064,0.2865,0.4227,-0.3685,-0.9262,-1.3437,-1.6915,-1.8987,-2.0473,-2.206,-2.3243,-2.4253,-2.5257,-2.6181,-2.7047,-2.7535,-2.755,-2.76,-2.8291,-2.8474,-2.8576,-2.8965,-2.9012,-2.8994,-2.8994,-2.775,-2.6733,-2.6916,-2.6953,-2.6795,-2.6395,-2.6346,0.0,-2.5427,-2.5341,-2.5322,-2.5303,-2.5303,-2.5303,-2.5303,-2.5303,-2.5303,-2.5303,-2.4524,-2.4062,-2.4082,-2.2297,-2.1299,-2.1299,-1.883,-1.7148,-1.6349,0.0,0.0,0.0,0.0,0.0,0.0,0.0,0.0,0.0,0.0,0.0,0.0,0.0,0.0,0.0,0.0,0.0,0.0,0.0,0.0,0.0,-0.9741,-1.4042,-1.4217,-1.8403,-2.1453,-2.1504,-2.1064,-2.0761,-2.0804,-2.0003,-1.9589,-1.9848,-1.9069,-1.8401,-1.7956,-1.6415,-1.5126,-1.4255,-0.739,-0.2003,0.1603,1.8125,2.2611,1.5145,1.6363,1.048,-0.1411,0.2494,-0.2684,-1.4949,-1.8351,-2.0863,-2.2758,-2.5983,-2.332,-1.7015,-1.4869,-1.1403,-0.7327,-0.5024,-0.438,-0.5745,-1.3694,-1.6749,-1.7535,-2.0237,-2.2291,-2.3944,-2.536,-2.6518,-2.7446,-2.8169,-2.8836,-2.9365,-2.953,-2.9733,-2.9948,-3.0161,-2.9966,-2.9722,-2.9855,-2.942,-2.8994,-2.8994,-2.8627,-2.8224,-2.7828,-2.7884,-2.7827,-2.7331,-2.7362,-2.7174,-2.6341,-2.6236,-2.6005,-2.536,-2.5303,-2.5303,-2.5303,-2.5303,-2.5303,-2.5303,-2.385,-2.3273,-2.3866,-2.2133,-2.1195,-2.1299,-1.9503,-1.8194,0.0,0.0,0.0,0.0,0.0,0.0,0.0,0.0,0.0,0.0,0.0,0.0,0.0,0.0,0.0,0.0,0.0,0.0,0.0,0.0,0.0,0.0,-1.0133,-1.4837,-1.6146,-2.09,-2.3912,-2.3016,-2.241,-2.2283,-2.287,-2.1181,-2.0149,-2.0334,-1.8918,-1.7791,-1.7248,-1.6057,-1.4911,-1.4007,-0.8447,-0.4673,-0.3067,1.3353,1.8532,1.2409,1.3313,0.7621,-0.374,-0.4765,-1.1147,-2.1599,-2.5297,-2.7178,-2.7605,-2.7928,-2.4121,-1.7879,0.0,0.0,0.0,0.0,-1.1546,-1.2186,-2.0438,-2.2636,-2.2191,-2.4397,-2.6184,-2.7702,-2.8704,-2.9581,-3.0282,-3.0421,-3.0615,-3.0738,-3.0725,-3.0814,-3.0957,-3.1074,-3.0974,-3.0859,-3.0729,-3.0162,-2.9636,-2.9517,-2.931,0.0,-2.8821,-2.8855,-2.8793,-2.8313,-2.8326,-2.8102,-2.7255,-2.714,-2.6813,-2.5947,-2.5851,-2.5687,-2.5322,-2.5303,0.0,0.0,0.0,-2.3274,-2.337,-2.2361,0.0,0.0,0.0,0.0,0.0,-1.9125,0.0,0.0,-1.83,-1.8094,0.0,0.0,0.0,0.0,0.0,0.0,0.0,0.0,0.0,0.0,0.0,0.0,0.0,0.0,0.0,0.0,-0.9781,-1.5474,-1.8956,-2.2632,-2.4625,-2.3733,-2.2861,-2.2505,-2.296,-2.0575,-1.9236,-1.9769,-1.7658,-1.6266,-1.6069,-1.5221,0.0,0.0,0.0,-0.151,-0.3006,1.0844,1.5589,1.0998,0.6941,0.1483,-0.5343,-1.5072,-2.1801,-2.6084,-3.1223,-3.2108,-2.9785,-2.811,-2.3741,-1.784,-1.5593,-1.3795,-1.3216,-1.8038,-1.7862,-1.6398,-2.4516,0.0,0.0,-2.8523,-3.0013,-3.1189,-3.1653,-3.2159,-3.2484,-3.2057,-3.1806,-3.1568,-3.1537,-3.1363,-3.1293,-3.1609,-3.1816,-3.1864,-3.1617,-3.1139,-3.0655,-3.0438,-2.9909,-2.9604,-2.9793,-2.9787,-2.9614,-2.9286,-2.9236,-2.8948,-2.814,-2.8044,-2.7698,-2.6832,-2.6659,0.0,-2.5515,-2.5351,-2.5293,-2.5303,-2.463,-2.386,-2.2985,-2.3024,-2.294,-2.265,-2.265,-2.2512,-2.2235,-2.2303,-2.2451,-2.2593,-2.042,-2.0096,0.0,0.0,0.0,0.0,0.0,0.0,0.0,0.0,0.0,0.0,0.0,0.0,0.0,0.0,0.0,-0.3197,-1.0233,-1.625,-1.9214,-2.2629,-2.4746,-2.449,-2.2088,-2.0158,-1.9529,-1.6609,-1.4709,-1.4772,-1.3723,-1.3349,-1.4111,-1.3528,-1.2928,-1.2439,-0.7778,-0.4487,-0.277,0.2308,0.3363,0.0382,0.3092,0.0,-1.9812,-1.7931,-2.2753,-3.2668,-3.3838,-3.1953,-2.7858,-2.5812,-2.1076,-1.4919,-1.3676,-1.3712,-1.4814,-1.7927,-1.9816,-2.1449,-2.5841,-2.7917,-2.8833,-3.0079,-3.1268,-3.2263,-3.2755,-3.2978,0.0,-3.2934,-3.2888,-3.2841,-3.2859,-3.3016,-3.325,-3.3303,-3.3032,-3.2765,-3.2697,-3.2091,-3.1558,-3.1492,-3.0881,-3.0424,-3.0622,-3.0265,-2.999,-3.0124,-3.016,-2.9833,-2.8967,-2.8871,-2.8544,-2.7736,-2.7024,-2.6545,-2.6442,-2.5735,-2.5312,-2.5387,-2.5167,-2.4697,-2.3879,-2.4466,-2.4417,-2.3568,-2.3538,-2.3172,-2.2441,-2.298,-2.3347,-2.3519,-2.2359,-2.1986,0.0,0.0,0.0,0.0,0.0,0.0,0.0,0.0,0.0,0.0,0.0,0.0141,-0.0961,0.0,-0.2355,-0.7078,-1.284,-1.8206,-2.2491,-2.4699,-2.6161,-2.6962,-2.3344,-1.992,-1.7893,-1.5525,-1.2817,-0.98,-1.0046,-1.0067,-0.925,-1.1094,-1.2041,-1.1866,-0.9586,-0.7836,-0.6635,-0.4999,-0.5535,-0.8268,-0.7489,-1.2143,-2.1337,-2.1654,-2.5253,-3.1262,-3.1428,-2.9166,-2.5082,-2.1466,-1.8164,-1.5482,-1.5978,-1.6543,-1.7348,-2.0292,-2.3195,-2.6059,-2.8935,-3.0677,-3.1722,-3.259,-3.3125,-3.3544,-3.396,-3.3521,-3.284,-3.284,-3.2681,-3.2565,-3.2777,-3.3166,-3.355,-3.3734,-3.3697,-3.3604,-3.3604,-3.2952,-3.2396,-3.2396,-3.1741,-3.1134,-3.0923,-3.0795,-3.065,-3.0479,-3.0442,-3.0289,-2.9898,-2.984,-2.9539,-2.8745,-2.826,-2.7838,-2.7421,-2.6541,-2.5809,-2.5376,-2.5322,-2.512,-2.4716,-2.5003,-2.4874,-2.4302,-2.4209,-2.3902,-2.3337,-2.3691,-2.3958,-2.4134,-2.37,-2.3498,0.0,0.0,0.0,0.0,0.0,0.0,0.0,-0.0891,-0.2232,-0.4641,-0.4601,-0.4583,-0.5859,-0.5489,-0.6803,-1.2104,-1.6426,-2.0842,-2.5904,-2.6968,-2.7678,-2.8936,-2.3717,-1.8885,-1.5993,-1.4109,-1.1046,-0.6222,-0.7476,-0.7741,-0.5993,-0.9756,-1.1774,-1.1353,-1.1039,-1.0816,-1.0595,-1.026,-1.1348,-1.3952,-1.683,-1.8584,-1.9476,-2.4375,-2.7219,-2.8121,-2.7704,-2.5761,-2.2495,-1.8221,-1.6951,-1.7921,-1.9952,-2.0913,-2.142,-2.3816,-2.675,-2.985,-3.2019,-3.3383,-3.4263,-3.4801,-3.482,-3.4702,-3.5143,-3.4063,-3.273,-3.273,-3.2353,-3.2022,-3.2417,-3.2921,-3.3408,-3.3734,-3.4043,-3.4311,-3.4311,-3.3833,-3.3387,-3.3343,-3.2664,-3.1963,-3.1468,-3.1539,-3.1395,-3.0616,-3.0516,-3.0545,-3.0594,-3.0606,-3.0353,-2.9697,-2.9483,-2.9035,-2.8154,-2.7246,-2.6386,-2.5611,-2.538,-2.5274,-2.5234,-2.5088,-2.4911,-2.4746,-2.4575,-2.4428,-2.4266,-2.4209,-2.4303,-2.4495,-2.4461,-2.4461,0.2694,0.216,0.1898,0.174,-0.0411,-0.2942,0.0,-0.6781,-0.8665,-0.9723,-1.0213,-1.0716,-1.1547,-1.2273,-1.3554,-1.5953,-2.0326,-2.4252,-2.6689,-2.7828,-2.8291,-2.7939,-1.9853,-1.3517,-1.1547,-0.8874,-0.6991,-0.6465,-0.7545,-0.8586,-0.9285,-1.1936,-1.2939,-1.1846,-1.2971,-1.2602,-1.0595,-1.1503,-1.2602,-1.4001,-1.6285,-1.8804,-2.1603,-2.3699,-2.6067,-2.8447,-2.559,-2.3281,-2.1495,-1.995,-2.0209,-2.1754,-2.3943,-2.6476,-2.8635,-2.7501,-2.9092,-3.2029,-3.3374,-3.4261,-3.4888,-3.5349,-3.5475,-3.5548,-3.6003,-3.4943,-3.356,-3.356,-3.2997,-3.2451,-3.2484,-3.3118,-3.3734,-3.3788,-3.4232,-3.4653,-3.4653,-3.4756,-3.4793,-3.4562,-3.3804,-3.32,-3.3127,-3.2813,-3.2093,-3.0713,-3.054,-3.0594,-3.06,-3.0606,-3.0567,-3.0489,-2.9833,-2.9032,-2.8097,-2.7264,-2.6689,-2.6468,-2.5726,-2.5214,-2.5034,-2.501,-2.4858,-2.4545,-2.4512,-2.4495,-2.4461,-2.4284,-2.4303,-2.4495,-2.4321,-2.4339,0.0395,-0.019,-0.087,-0.2011,-0.4591,-0.7494,-0.9864,-1.1762,-1.3587,-1.5372,-1.5556,-1.5753,-1.6916,-1.7177,-1.8382,-2.2013,-2.4701,-2.7432,-3.0726,-3.053,-2.9627,-2.8538,-2.2958,-1.7592,-1.3458,-1.102,-0.9414,-0.8869,-1.0944,-1.1709,-1.0353,-1.3166,-1.454,-1.3899,-1.4585,-1.4441,-1.3516,-1.4524,-1.599,-1.7763,-1.9229,-2.0943,-2.2848,-2.414,-2.4683,-2.4517,-2.3634,-2.2423,-2.1072,-2.1805,-2.345,-2.5742,-2.8148,-3.0433,-3.2212,-3.0947,-3.2343,-3.4985,-3.5312,-3.6165,-3.7036,-3.6681,-3.6612,-3.6748,-3.6953,-3.5738,-3.4392,-3.4715,-3.3826,-3.2932,-3.3473,-3.3527,-3.3522,-3.3734,-3.4093,-3.4445,-3.4653,-3.4793,-3.4832,-3.4714,-3.4247,-3.377,-3.3446,-3.3272,-3.2916,-3.2186,-3.1699,-3.1262,-3.0836,-3.076,-3.076,-3.076,-3.047,-2.9881,-2.8903,-2.8513,-2.8035,-2.7391,-2.6544,-2.5962,-2.5755,-2.5196,-2.4752,-2.4512,-2.4393,-2.4339,-2.4339,-2.4247,-2.4247,-2.4303,-2.4247,-2.4247,-0.2941,-0.3768,-0.5052,-0.7104,-0.9893,-1.2838,-1.5508,-1.6966,-1.8315,-2.034,-2.0438,-2.0482,-2.1542,-2.1972,-2.3437,-2.7302,-2.8802,-3.0637,-3.3945,-3.3175,-3.1771,-3.0477,-2.7964,-2.44,-1.9459,-1.5869,-1.3539,-1.2678,-1.4797,-1.5255,-1.3202,-1.5795,-1.7183,-1.6661,-1.7086,-1.7233,-1.6911,-1.7899,-1.926,-2.0861,-2.1826,-2.2911,-2.3963,-2.4636,-2.4172,-2.2831,-2.3555,-2.3723,-2.3661,-2.5156,-2.7387,-3.0024,-3.192,-3.3615,-3.4869,-3.4275,-3.5366,-3.7164,-3.7061,-3.7756,-3.8596,-3.7861,-3.7703,-3.7826,-3.7826,-3.6685,-3.5418,-3.584,-3.4688,-3.3565,-3.4199,-3.3888,-3.3437,-3.3734,-3.3993,-3.4292,-3.4632,-3.4754,-3.4774,-3.4714,-3.4508,-3.4214,-3.3823,-3.3808,-3.3772,-3.3533,-3.3049,-3.2365,-3.1386,-3.1055,-3.0898,-3.0898,-3.0898,-3.058,-2.9814,-2.9532,-2.9071,-2.8319,-2.7369,-2.6661,-2.6243,-2.546,-2.4851,-2.4428,-2.4266,-2.419,-2.419,-2.4266,-2.4376,-2.452,-2.4597,-2.4688,-0.7676,-0.9338,-1.1336,-1.3971,-1.684,-1.9666,-2.1769,-2.2705,-2.3381,-2.4091,-2.4658,-2.501,-2.5041,-2.7131,-2.9313,-3.082,-3.2383,-3.3821,-3.5003,-3.5163,-3.4826,-3.3956,-3.3802,-3.2709,-2.9989,-2.2821,-1.8201,-1.792,-1.8279,-1.8802,-1.9483,-2.0872,-2.1226,-2.0187,-2.1151,-2.1226,-2.0197,-2.1226,-2.1784,-2.187,-2.2944,-2.3963,-2.4933,-2.5016,-2.5266,-2.5697,-2.6037,-2.7855,-3.0553,-3.0881,-3.2392,-3.4462,-3.5052,-3.6035,-3.7155,-3.7596,-3.7789,-3.7928,-3.8465,-3.8658,-3.8707,-3.8658,-3.8658,-3.867,-3.867,-3.7749,-3.6736,-3.6754,-3.5616,-3.4344,-3.4375,-3.4095,-3.3762,-3.3807,-3.3993,-3.4292,-3.4632,-3.4908,-3.4999,-3.4734,-3.4694,-3.4674,-3.4656,-3.4717,-3.4657,-3.4309,-3.4406,-3.3944,-3.2363,-3.1426,-3.0898,-3.0898,-3.0898,-3.0838,-3.0677,-2.9892,-2.9331,-2.9171,-2.8103,-2.7034,-2.6046,-2.5789,-2.5208,-2.4227,-2.419,-2.419,-2.419,-2.4393,-2.4782,-2.5366,-2.556,-2.5967,-1.2327,-1.4775,-1.7396,-1.9171,-2.1519,-2.3584,-2.4166,-2.4713,-2.5083,-2.498,-2.4722,-2.4867,-2.5889,-2.7049,-2.8684,-3.1257,-3.2645,-3.389,-3.5338,-3.5466,-3.5273,-3.4794,-3.4603,-3.3785,-3.2022,-2.8227,-2.5452,-2.4511,-2.3837,-2.4104,-2.5589,-2.5046,-2.4788,-2.5099,-2.4284,-2.3674,-2.3279,-2.3693,-2.4139,-2.4522,-2.5898,-2.6712,-2.7028,-2.7028,-2.7174,-2.7418,-2.8746,-3.0434,-3.2331,-3.3697,-3.4933,-3.6148,-3.7007,-3.7268,-3.7285,-3.8135,-3.8433,-3.8433,-3.8216,-3.8382,-3.8627,-3.83,-3.8415,-3.8707,-3.8707,-3.815,-3.7582,-3.7949,-3.7021,-3.5818,-3.5327,-3.4896,-3.4385,-3.3593,-3.3821,-3.4292,-3.4632,-3.4908,-3.507,-3.4981,-3.4813,-3.4694,-3.4694,-3.4717,-3.4632,-3.4345,-3.3978,-3.3375,-3.2324,-3.1934,-3.1543,-3.0957,-3.0898,-3.0857,-3.0718,-3.0394,-3.016,-3.0062,-2.8986,-2.8156,-2.767,-2.6912,-2.6264,-2.5805,-2.5786,-2.5786,-2.5786,-2.5987,-2.6209,-2.6395,-2.6647,-2.6864,-1.6666,-1.9136,-2.1565,-2.3201,-2.4671,-2.5647,-2.5521,-2.5465,-2.5271,-2.4671,-2.4074,-2.3925,-2.4849,-2.562,-2.7184,-3.0507,-3.1881,-3.3289,-3.5368,-3.5609,-3.5598,-3.5653,-3.5553,-3.5095,-3.4156,-3.2973,-3.1448,-2.9368,-2.8566,-2.8594,-2.9494,-2.8463,-2.7884,-2.8007,-2.713,-2.6396,-2.5815,-2.6099,-2.6377,-2.6639,-2.7617,-2.8109,-2.8109,-2.8109,-2.8429,-2.8946,-2.9894,-3.1462,-3.3501,-3.468,-3.5801,-3.6841,-3.7671,-3.7844,-3.7638,-3.8225,-3.8546,-3.8658,-3.83,-3.8415,-3.8627,-3.83,-3.8415,-3.8707,-3.8707,-3.8465,-3.8267,-3.8578,-3.788,-3.6876,-3.6399,-3.5871,-3.5274,-3.4495,-3.4633,-3.4959,-3.4989,-3.5107,-3.5153,-3.4831,-3.4655,-3.4529,-3.4529,-3.4632,-3.4679,-3.4622,-3.4244,-3.3632,-3.2705,-3.2319,-3.1931,-3.1426,-3.1094,-3.0857,-3.0718,-3.0648,-3.0568,-3.0507,-2.9634,-2.8935,-2.852,-2.7681,-2.7036,-2.6612,-2.6612,-2.6636,-2.6702,-2.6898,-2.7173,-2.7471,-2.7724,-2.7956,-2.0626,-2.2537,-2.414,-2.6118,-2.6333,-2.6046,-2.5924,-2.5057,-2.4101,-2.3427,-2.2823,-2.2405,-2.2339,-2.3242,-2.5216,-2.8876,-3.045,-3.224,-3.5257,-3.5719,-3.6015,-3.6697,-3.6883,-3.6829,-3.6569,-3.6915,-3.5809,-3.2593,-3.2266,-3.2013,-3.1468,-3.1264,-3.0514,-2.9178,-2.9718,-2.935,-2.7842,-2.8289,-2.8394,-2.8147,-2.8185,-2.8197,-2.8197,-2.8197,-2.8976,-3.0303,-2.9724,-3.1211,-3.4044,-3.4254,-3.5269,-3.6717,-3.7314,-3.7847,-3.8213,-3.799,-3.8219,-3.8676,-3.8627,-3.8676,-3.8707,-3.8707,-3.8707,-3.8707,-3.8707,-3.8707,-3.8707,-3.8707,-3.8138,-3.7533,-3.7496,-3.6927,-3.634,-3.6274,-3.6285,-3.6177,-3.5671,-3.5559,-3.5317,-3.4465,-3.4237,-3.42,-3.42,-3.4445,-3.4794,-3.5115,-3.5205,-3.4751,-3.3531,-3.2631,-3.2143,-3.2186,-3.1445,-3.0875,-3.0716,-3.0624,-3.0561,-3.0507,-3.0004,-2.9355,-2.8596,-2.8103,-2.7493,-2.6741,-2.6722,-2.6831,-2.7028,-2.7238,-2.7768,-2.8574,-2.8779,-2.9201,-2.3521,-2.6144,-2.8347,-2.8008,-2.7539,-2.6742,-2.5035,-2.3838,-2.278,-2.1758,-2.0713,-2.0266,-2.1123,-2.2121,-2.4178,-2.8231,-3.0149,-3.2422,-3.6112,-3.6523,-3.6798,-3.7719,-3.7579,-3.7314,-3.699,-3.7384,-3.7091,-3.5616,-3.4703,-3.4019,-3.358,-3.3149,-3.2283,-3.0896,-3.094,-3.0401,-2.9274,-2.8963,-2.8783,-2.8725,-2.9151,-2.9365,-2.9365,-2.9365,-2.958,-2.9999,-3.0529,-3.1514,-3.2885,-3.4362,-3.5561,-3.6621,-3.7835,-3.8088,-3.776,-3.8072,-3.8169,-3.8065,-3.7703,-3.805,-3.8707,-3.8707,-3.8707,-3.8707,-3.8707,-3.8707,-3.8707,-3.8707,-3.856,-3.8187,-3.723,-3.7082,-3.6941,-3.6012,-3.6042,-3.6325,-3.637,-3.6391,-3.6224,-3.5578,-3.4791,-3.42,-3.42,-3.4269,-3.4449,-3.4794,-3.5011,-3.4897,-3.427,-3.399,-3.3379,-3.2114,-3.1783,-3.1369,-3.0672,-3.0561,-3.0513,-3.0498,-3.0004,-2.9619,-2.9393,-2.8936,-2.8613,-2.8388,-2.8388,-2.8507,-2.876,-2.895,-2.925,-2.9616,-2.9889,-3.0075,-2.5681,-2.7679,-2.9094,-2.827,-2.7336,-2.6089,-2.3977,-2.264,-2.1383,-1.9749,-1.8642,-1.8089,-1.8551,-1.9952,-2.2329,-2.615,-2.8932,-3.1924,-3.5641,-3.6541,-3.7283,-3.8538,-3.8517,-3.8405,-3.84,-3.8704,-3.8571,-3.7796,-3.6631,-3.5576,-3.4814,-3.43,-3.3503,-3.2403,-3.2285,-3.1736,-3.0606,-2.9443,-2.9051,-2.9315,-2.9641,-2.9792,-2.9792,-2.9792,-2.9792,-2.9869,-3.0343,-3.1066,-3.1956,-3.3811,-3.5082,-3.6029,-3.7629,-3.7961,-3.7556,-3.8088,-3.8148,-3.7911,-3.7861,-3.8219,-3.8658,-3.8433,-3.8496,-3.8707,-3.8707,-3.8707,-3.8707,-3.8707,-3.8707,-3.8535,-3.7835,-3.7838,-3.7869,-3.7143,-3.7162,-3.7298,-3.7091,-3.7072,-3.6867,-3.6193,-3.5256,-3.4555,-3.4555,-3.4259,-3.4189,-3.4632,-3.4695,-3.4715,-3.4762,-3.4565,-3.407,-3.3142,-3.2694,-3.2253,-3.1705,-3.1308,-3.1052,-3.1032,-3.0189,-2.9696,-2.9696,-2.9251,-2.8994,-2.8994,-2.9112,-2.9291,-2.9532,-2.9729,-2.9958,-3.0182,-3.0323,-3.0398,-2.7136,-2.8112,-2.8207,-2.7688,-2.6477,-2.4887,-2.2911,-2.1412,-1.986,-1.7717,-1.6653,-1.5959,-1.5556,-1.7483,-2.0208,-2.3471,-2.719,-3.0897,-3.4453,-3.6123,-3.7578,-3.9154,-3.946,-3.9696,-4.008,-4.012,-3.9819,-3.9133,-3.8005,-3.6798,-3.5545,-3.509,-3.4479,-3.3684,-3.3418,-3.2697,-3.1626,-2.9904,-2.9289,-2.9792,-2.9792,-2.9792,-2.9792,-2.9792,-2.9792,-2.9792,-2.9792,-3.0279,-3.1167,-3.2905,-3.4228,-3.5341,-3.7078,-3.77,-3.7614,-3.8126,-3.8087,-3.7755,-3.8234,-3.8465,-3.8546,-3.8132,-3.8267,-3.8578,-3.8578,-3.8546,-3.8515,-3.8515,-3.8546,-3.8578,-3.8578,-3.8658,-3.8707,-3.8707,-3.8707,-3.8505,-3.7808,-3.7599,-3.7276,-3.6578,-3.5771,-3.5137,-3.5009,-3.4458,-3.4166,-3.4569,-3.4423,-3.4467,-3.4981,-3.4658,-3.4399,-3.4404,-3.3759,-3.3242,-3.2996,-3.2251,-3.1757,-3.1711,-3.0434,-2.9696,-2.9696,-2.9272,-2.9044,-2.9044,-2.931,-2.9551,-2.9748,-2.9924,-3.0136,-3.0398,-3.0398,-3.0398,-2.7748,-2.8932,-2.9297,-2.7745,-2.6408,-2.4872,-2.242,-1.9922,-1.7729,-1.6367,-1.4927,-1.4025,-1.4301,-1.6281,-1.8864,-2.1976,-2.5552,-2.9365,-3.3538,-3.574,-3.7561,-3.9335,-3.9992,-4.0285,-4.0185,-4.0118,-3.9819,-3.9133,-3.8523,-3.7521,-3.608,-3.6044,-3.558,-3.4447,-3.2779,-3.1802,-3.1626,-3.0319,-2.9691,-2.9792,-2.9792,-2.9792,-2.9792,-2.9792,-2.9792,-2.9792,-2.9792,-2.9856,-3.0216,-3.2019,-3.3675,-3.5157,-3.7069,-3.7777,-3.7868,-3.838,-3.7746,-3.6684,-3.6764,-3.736,-3.8099,-3.8465,-3.8332,-3.8032,-3.8032,-3.7773,-3.7451,-3.7451,-3.7738,-3.8032,-3.8032,-3.8382,-3.8707,-3.8707,-3.8707,-3.867,-3.8524,-3.7955,-3.7441,-3.7312,-3.6615,-3.5862,-3.5119,-3.5114,-3.5008,-3.4381,-3.4467,-3.4653,-3.4754,-3.4882,-3.4684,-3.4002,-3.3987,-3.3735,-3.2967,-3.2177,-3.1703,-3.1698,-3.0434,-2.9696,-2.9696,-2.9455,-2.933,-2.933,-2.9533,-2.9765,-2.9954,-2.9984,-3.0136,-3.0398,-3.0398,-3.0398,-2.7009,-2.7921,-2.8186,-2.6306,-2.4941,-2.331,-2.0502,-1.8209,-1.6044,-1.4057,-1.2796,-1.2035,-1.2067,-1.4389,-1.7139,-1.9617,-2.3193,-2.7288,-3.185,-3.4234,-3.6477,-3.9126,-4.0136,-4.0539,-4.038,-4.0202,-3.9906,-3.9395,-3.8989,-3.8159,-3.6763,-3.622,-3.574,-3.514,-3.3173,-3.2095,-3.2095,-3.0579,-2.9792,-2.9792,-2.9792,-2.9792,-2.9792,-2.9792,-2.9792,-2.9792,-2.9792,-2.9792,-2.9934,-3.1829,-3.3073,-3.397,-3.6734,-3.7349,-3.6885,-3.8439,-3.791,-3.6457,-3.702,-3.736,-3.7578,-3.7826,-3.7929,-3.7859,-3.7614,-3.736,-3.719,-3.719,-3.7542,-3.7825,-3.7614,-3.8117,-3.8627,-3.835,-3.8515,-3.8707,-3.8707,-3.8395,-3.812,-3.812,-3.7459,-3.6652,-3.5826,-3.5592,-3.5205,-3.433,-3.4334,-3.4423,-3.4423,-3.4553,-3.4585,-3.448,-3.4592,-3.4485,-3.4083,-3.3278,-3.2546,-3.2,-3.0827,-3.0039,-2.9715,-2.9513,-2.9454,-2.9551,-2.9643,-2.9765,-2.9845,-2.9954,-3.0075,-3.0196,-3.0323,-3.0398,-2.5667,-2.6347,-2.6402,-2.4739,-2.3385,-2.1704,-1.8737,-1.6621,-1.4596,-1.2054,-1.0912,-1.0279,-1.0071,-1.2452,-1.517,-1.7263,-2.0845,-2.508,-2.9953,-3.2622,-3.5293,-3.8665,-3.9961,-4.0552,-4.0545,-4.0325,-4.0053,-3.9719,-3.9245,-3.8524,-3.7496,-3.6434,-3.5864,-3.5857,-3.4113,-3.2989,-3.2593,-3.0908,-3.0075,-3.0075,-3.0075,-3.0216,-3.0432,-3.0432,-3.0432,-3.0355,-3.0216,-3.0075,-3.0203,-3.1901,-3.2721,-3.3156,-3.6336,-3.6886,-3.6092,-3.833,-3.7936,-3.6374,-3.7379,-3.7433,-3.702,-3.6904,-3.7193,-3.7488,-3.7135,-3.6943,-3.6865,-3.6865,-3.7193,-3.7488,-3.7135,-3.7721,-3.8285,-3.7843,-3.815,-3.8546,-3.8546,-3.8546,-3.8546,-3.8676,-3.8096,-3.7369,-3.6688,-3.611,-3.5485,-3.4609,-3.433,-3.42,-3.42,-3.4147,-3.4334,-3.4851,-3.4981,-3.5016,-3.5016,-3.4219,-3.3351,-3.2525,-3.1441,-3.0671,-3.0243,-3.0076,-3.0001,-3.0047,-3.0047,-2.9969,-2.9848,-2.9954,-3.0028,-3.0089,-3.0299,-3.0398,-2.409,-2.4724,-2.4574,-2.3844,-2.2727,-2.1076,-1.8306,-1.5562,-1.3139,-1.143,-0.9885,-0.8981,-0.9317,-1.0881,-1.2974,-1.5587,-1.9023,-2.3124,-2.8138,-3.1575,-3.4733,-3.7924,-3.94,-4.0285,-4.0656,-4.0552,-4.0347,-4.0063,-3.9066,-3.8394,-3.8199,-3.7182,-3.6609,-3.6605,-3.5553,-3.422,-3.2593,-3.1609,-3.1031,-3.1031,-3.1031,-3.1536,-3.2321,-3.2321,-3.2321,-3.2321,-3.1462,-3.1031,-3.118,-3.2177,-3.3031,-3.3902,-3.5988,-3.6696,-3.6753,-3.7965,-3.7234,-3.581,-3.6904,-3.6921,-3.6374,-3.5898,-3.6097,-3.6539,-3.6498,-3.6139,-3.5739,-3.5739,-3.6139,-3.6539,-3.6498,-3.6921,-3.734,-3.7303,-3.7614,-3.798,-3.798,-3.798,-3.8099,-3.8627,-3.8245,-3.7769,-3.7436,-3.6934,-3.6317,-3.5504,-3.4721,-3.42,-3.42,-3.3986,-3.3935,-3.4246,-3.4551,-3.4753,-3.4753,-3.394,-3.3392,-3.3296,-3.2281,-3.1755,-3.1958,-3.194,-3.1691,-3.1146,-3.1161,-3.0873,-3.0343,-3.0122,-3.0136,-3.0367,-3.0398,-3.0398,-2.0794,-2.175,-2.2372,-2.0894,-1.971,-1.8238,-1.5847,-1.3771,-1.1817,-0.9888,-0.8831,-0.8281,-0.8414,-1.0045,-1.2221,-1.503,-1.7732,-2.1159,-2.6003,-2.8622,-3.1579,-3.5608,-3.742,-3.8963,-4.0558,-4.0476,-4.0288,-4.0236,-3.981,-3.9732,-4.0139,-3.8287,-3.7211,-3.7358,-3.5968,-3.4633,-3.3449,-3.2536,-3.2033,-3.2033,-3.2033,-3.2249,-3.2593,-3.2593,-3.2593,-3.2522,-3.1609,-3.1536,-3.2105,-3.2464,-3.3152,-3.4224,-3.6491,-3.7074,-3.6853,-3.805,-3.7577,-3.6412,-3.7001,-3.6643,-3.5941,-3.6071,-3.6028,-3.5941,-3.5941,-3.5783,-3.5622,-3.5622,-3.5985,-3.635,-3.6028,-3.6333,-3.6803,-3.7097,-3.7323,-3.747,-3.747,-3.747,-3.7632,-3.8117,-3.8065,-3.7794,-3.7546,-3.7045,-3.6538,-3.6056,-3.4946,-3.4333,-3.4626,-3.4163,-3.3842,-3.3935,-3.4218,-3.4401,-3.4401,-3.408,-3.362,-3.2948,-3.2514,-3.2177,-3.1965,-3.2108,-3.2144,-3.2019,-3.2069,-3.1962,-3.1714,-3.1622,-3.1622,-3.1728,-3.184,-3.191,-1.7946,-1.895,-1.9662,-1.8057,-1.6972,-1.5774,-1.3611,-1.2115,-1.0575,-0.8484,-0.7723,-0.7412,-0.7412,-0.9237,-1.1669,0.0,-1.7118,-2.0353,-2.5065,-2.7143,-2.9704,-3.3674,-3.5808,-3.772,-3.9658,-4.0262,-4.0757,-4.1306,-4.0929,-4.103,-4.1887,-3.9852,-3.856,-3.8372,-3.7046,-3.57,-3.4374,-3.3736,-3.3254,-3.3031,-3.3031,-3.3171,-3.3463,-3.3463,-3.3463,-3.3394,-3.2464,-3.2393,-3.3017,-3.3254,-3.3657,-3.4325,-3.659,-3.7048,-3.6505,-3.7765,-3.7464,-3.6559,-3.7175,-3.6626,-3.5694,-3.6224,-3.6028,-3.5622,-3.5622,-3.5622,-3.5622,-3.5622,-3.5854,-3.6054,-3.5694,-3.5898,-3.6249,-3.6643,-3.6825,-3.6943,-3.6943,-3.6943,-3.7097,-3.7614,-3.7685,-3.7662,-3.7635,-3.7256,-3.686,-3.6691,-3.5401,-3.4567,-3.4945,-3.4174,-3.3606,-3.3606,-3.367,-3.3792,-3.4049,-3.4074,-3.3771,-3.2999,-3.2963,-3.284,-3.2519,-3.2699,-3.2827,-3.2877,-3.2844,-3.2781,-3.2694,-3.2615,-3.263,-3.2694,-3.2839,-3.3045,-1.609,-1.6626,-1.6514,-1.5796,-1.5219,-1.4237,-1.2025,-1.0695,-0.9371,-0.7398,-0.6592,-0.6221,-0.6221,-0.8333,-1.1084,-1.4037,-1.7233,-2.1052,-2.5826,-2.8047,-3.0093,-3.2611,-3.4975,-3.6767,-3.7741,-3.9984,-4.2063,-4.3647,-4.2408,-4.2057,-4.3128,-4.2032,-4.0855,-3.9833,-3.9163,-3.7662,-3.519,-3.519,-3.4779,-3.4027,-3.4027,-3.4543,-3.5439,-3.5439,-3.5439,-3.5424,-3.4394,-3.3959,-3.4081,-3.483,-3.4752,-3.4282,-3.6011,-3.6237,-3.5745,-3.6847,-3.6539,-3.581,-3.7361,-3.6869,-3.5694,-3.6224,-3.6028,-3.5622,-3.5622,-3.5622,-3.5622,-3.5622,-3.5622,-3.5622,-3.5622,-3.5622,-3.5622,-3.5622,-3.6011,-3.6416,-3.6416,-3.6416,-3.658,-3.7097,-3.7228,-3.736,-3.7825,-3.7658,-3.7507,-3.7507,-3.6064,-3.4972,-3.499,-3.3957,-3.3214,-3.3214,-3.2777,-3.2872,-3.3734,-3.3788,-3.3788,-3.3788,-3.3788,-3.3891,-3.4157,-3.4181,-3.4057,-3.3792,-3.3524,-3.3232,-3.291,-3.2709,-3.2709,-3.291,-3.2891,-3.3353,-1.3115,-1.3749,-1.4055,-1.3141,-1.2717,-1.2149,-1.0564,-0.9392,-0.8225,-0.6742,-0.5996,-0.5567,-0.5567,-0.7453,-1.0094,-1.3412,-1.6385,-1.9772,-2.4049,-2.7123,-2.988,-3.239,-3.6509,-3.9353,-3.9922,-4.1479,-4.2505,-4.2692,-4.3047,-4.3293,-4.3403,-4.2686,-4.1516,-3.985,-3.9631,-3.8722,-3.7006,-3.6415,-3.6058,-3.5773,-3.527,-3.5213,-3.5504,-3.5504,-3.5504,-3.5424,-3.4461,-3.4394,-3.5037,-3.5121,-3.5445,-3.5969,-3.7026,-3.7352,-3.716,-3.7,-3.67,-3.6452,-3.6777,-3.6333,-3.5694,-3.6224,-3.6028,-3.5622,-3.5622,-3.5622,-3.5622,-3.5622,-3.5622,-3.5622,-3.5622,-3.5622,-3.5622,-3.5622,-3.5739,-3.5854,-3.5854,-3.5854,-3.6011,-3.6563,-3.6643,-3.6904,-3.7755,-3.7362,-3.7134,-3.7678,-3.639,-3.5413,-3.559,-3.4365,-3.3463,-3.3463,-3.2885,-3.2616,-3.2903,-3.3196,-3.339,-3.339,-3.3652,-3.3842,-3.391,-3.4099,-3.427,-3.4415,-3.4508,-3.4601,-3.468,-3.4606,-3.4606,-3.468,-3.468,-3.4834,-1.0824,-1.1458,-1.1752,-1.0955,-1.0455,-0.9866,-0.889,-0.7916,-0.7015,-0.6324,-0.5851,-0.5674,-0.5893,-0.83,-1.1011,-1.3321,-1.6634,-2.0031,-2.3235,-2.6637,-3.0123,-3.3788,-3.7314,-3.9813,-4.0795,-4.1769,-4.2449,-4.2789,-4.3265,-4.3596,-4.3675,-4.3249,-4.235,-4.092,-4.047,-3.9682,-3.857,-3.7857,-3.7188,-3.66,-3.6102,-3.5782,-3.5504,-3.5782,-3.5782,-3.5504,-3.5484,-3.5597,0.0,-3.643,-3.6643,-3.6788,-3.751,-3.7648,-3.7325,-3.7033,-3.6948,-3.6947,-3.6961,-3.6626,-3.6207,-3.6333,-3.6028,-3.5622,-3.5622,-3.5622,-3.5622,-3.5622,-3.5622,-3.5515,-3.5316,-3.5407,-3.5532,-3.5299,-3.5424,-3.5622,-3.5622,-3.5622,-3.5694,-3.6011,-3.6266,-3.6603,-3.723,-3.7095,-3.7058,-3.7578,-3.6503,-3.5721,-3.5862,-3.4656,-3.3792,-3.3792,-3.2965,-3.2403,-3.2403,-3.2905,-3.3214,-3.3214,-3.3578,-3.3807,-3.3807,-3.3961,-3.4195,-3.4508,-3.4813,-3.5088,-3.5354,-3.5446,-3.5493,-3.5493,-3.5493,-3.5493,0.0,-0.957,-0.9503,-0.9099,-0.8369,-0.7628,-0.7182,-0.6305,0.0,-0.5916,-0.5944,-0.6126,-0.6797,-1.0297,-1.32,-1.3642,-1.7617,-2.136,-2.3324,-2.6736,-3.0998,-3.6363,-3.754,-3.8617,-4.0435,-4.1117,-4.2078,-4.3614,-4.3194,-4.3208,-4.396,-4.3638,-4.3194,-4.2698,-4.1437,-4.0479,-3.9782,-3.9151,-3.8051,-3.6642,-3.6628,-3.6213,-3.5559,-3.6259,-3.6228,-3.5683,-3.7071,-3.7279,-3.6783,-3.8165,-3.7982,-3.6832,-3.7532,-3.7291,-3.6527,-3.6978,-3.719,-3.7266,-3.7649,-3.7506,-3.7058,-3.6539,-3.6028,-3.5622,-3.5622,-3.5622,-3.5622,-3.5622,-3.5622,-3.547,-3.483,-3.5144,-3.5453,-3.483,-3.5144,-3.5622,-3.5622,-3.5622,-3.5667,-3.5622,-3.6011,-3.6374,-3.6374,-3.6803,-3.7135,-3.7135,-3.6461,-3.5929,-3.5892,-3.4861,-3.4133,-3.4133,-3.3066,-3.2357,-3.2357,-3.2842,-3.3154,-3.3154,-3.355,-3.3807,-3.3807,-3.3807,-3.3928,-3.42,-3.4551,-3.487,-3.5122,-3.5383,-3.5493,-3.5493,-3.5493,-3.5493,-0.6329,0.0,-0.7633,-0.7296,-0.6921,-0.664,0.0,-0.5523,-0.4459,-0.4723,-0.4413,-0.4535,-0.5886,-0.9212,-1.2244,-1.3687,-1.7625,-2.1374,-2.4039,-2.8987,-3.3691,-3.7445,-3.846,-3.9124,-3.9783,-4.1124,-4.2214,-4.2904,-4.3338,-4.37,-4.399,-4.333,-4.2797,-4.2425,-4.0721,-3.9826,-3.979,-3.8495,-3.7418,-3.6664,-3.6662,-3.6256,-3.5539,-3.626,-3.6508,-3.6337,-3.6133,-3.66,-3.7526,-3.7327,-3.7351,-3.7491,-3.7194,-3.7137,-3.7195,-3.6748,-3.6843,-3.7152,-3.6865,-3.6684,-3.6498,-3.5985,-3.5694,-3.5622,-3.5622,-3.5622,-3.5622,-3.5622,-3.5622,-3.556,-3.5407,-3.547,-3.5577,-3.5407,-3.547,-3.5622,-3.5622,-3.5941,-3.6097,-3.5694,-3.6011,-3.6374,-3.6374,-3.6498,-3.658,-3.658,-3.6406,-3.6121,-3.5737,-3.4917,-3.4389,-3.4389,-3.366,-3.3136,-3.3136,-3.286,-3.2648,-3.2648,-3.339,-3.3807,-3.3807,-3.3807,-3.3928,-3.42,-3.4735,-3.5138,-3.5417,-3.5479,-3.5493,-3.5493,-3.5493,-3.5493,-0.4655,-0.5634,-0.6605,-0.6535,-0.61,-0.5741,-0.5866,-0.4844,-0.4059,-0.5,-0.53,-0.5908,-0.7577,-1.1153,-1.4237,-1.5332,-1.9016,-2.3223,-2.7449,-3.1528,-3.5272,-3.8459,-3.9333,-3.9726,-3.9863,-4.0838,-4.171,-4.2319,-4.2546,-4.2845,-4.3283,-4.2623,-4.2177,-4.1989,-4.0486,-3.9685,-3.9633,-3.8345,-3.735,-3.6715,-3.6674,-3.6309,-3.5582,-3.6648,-3.6774,-3.6173,-3.6503,-3.6921,-3.7258,-3.6907,-3.699,-3.7303,-3.6936,-3.7024,-3.7323,-3.6904,-3.7248,-3.7826,-3.7268,-3.6786,-3.6333,-3.6054,-3.5827,-3.5622,-3.5622,-3.5622,-3.5622,-3.5622,-3.5622,-3.5515,-3.5207,-3.5362,-3.5515,-3.5207,-3.5362,-3.5667,-3.5898,-3.6182,-3.6291,-3.6011,-3.6224,-3.6291,-3.6054,-3.6011,-3.6011,-3.6011,-3.6011,-3.5941,-3.5622,-3.5267,-3.5013,-3.5013,-3.4336,-3.3897,-3.3897,-3.3691,-3.342,-3.3032,-3.3513,-3.3807,-3.3807,-3.3807,-3.3928,-3.42,-3.4675,-3.5053,-3.5304,-3.5446,-3.5493,-3.5493,-3.5493,-3.5493,-0.3735,-0.4781,-0.6147,-0.6624,-0.6183,-0.5726,-0.5914,0.0,0.0,0.0,-0.7285,-0.8507,-1.0326,-1.4323,-1.7491,-1.7819,-2.1536,-2.6205,-3.1363,-3.3853,-3.6125,-3.8845,-3.9678,-4.0044,-4.009,-4.0465,-4.1064,-4.1935,-4.1629,-4.1724,-4.2444,-4.1858,-4.1455,-4.1398,-4.0222,-3.9492,-3.9256,-3.8269,-3.7418,-3.6655,-3.6704,-3.6345,-3.5636,-3.7028,-3.6922,-3.5867,-3.7073,-3.736,-3.6868,-3.6686,-3.667,-3.6818,-3.6775,-3.692,-3.7228,-3.7285,-3.7895,-3.8627,-3.7998,-3.7155,-3.6392,-3.6291,-3.5985,-3.5622,-3.5622,-3.5622,-3.5622,-3.5622,-3.5622,-3.547,-3.4894,-3.5161,-3.547,-3.4894,-3.5207,-3.5739,-3.6291,-3.6457,-3.6498,-3.6416,-3.6457,-3.6333,-3.5694,-3.5622,-3.5577,-3.547,-3.5515,-3.556,-3.547,-3.5532,-3.5622,-3.5622,-3.5047,-3.4675,-3.4675,-3.484,-3.4695,-3.4005,-3.3973,-3.3935,-3.3807,-3.3807,-3.3928,-3.42,-3.4529,-3.4832,-3.5105,-3.5369,-3.5493,-3.5493,-3.5493,-3.5493,-0.377,-0.4905,-0.6424,-0.7836,-0.8268,-0.861,-0.9663,-0.9009,0.0,0.0,-0.9144,-1.022,-1.2328,-1.645,-1.9712,-2.0274,-2.5439,-3.013,-3.2213,-3.4582,-3.637,-3.7234,-3.8414,-3.9299,-3.958,-4.0313,-4.1113,-4.1947,-4.1919,-4.2075,-4.2465,-4.1552,-4.0835,-4.0505,-3.9004,-3.818,-3.815,-3.7603,-3.7033,-3.6466,-3.6678,-3.6352,-3.5642,-3.65,-3.6763,-3.6509,-3.6147,-3.664,-3.7629,-3.634,-3.6189,-3.6768,-3.6543,-3.6748,-3.7248,-3.7649,-3.8183,-3.8564,-3.7632,-3.6921,-3.635,-3.5854,-3.5667,-3.5622,-3.5622,-3.5622,-3.5622,-3.5622,-3.5622,-3.5577,-3.547,-3.5515,-3.5577,-3.547,-3.5515,-3.5739,-3.6291,-3.6764,-3.696,-3.6498,-3.6764,-3.6746,-3.5783,-3.5622,-3.5407,-3.4847,-3.5253,-3.5407,-3.4847,-3.5253,-3.5622,-3.5622,-3.552,-3.5453,-3.5453,-3.56,-3.5702,-3.5542,-3.5095,-3.4523,-3.3825,-3.3807,-3.3928,-3.42,-3.4529,-3.4832,-3.5105,-3.5369,-3.5493,-3.5493,-3.5493,-3.5493,-0.4096,-0.5394,-0.7338,-1.0016,-1.0282,-1.0284,-1.1727,-1.1867,-1.1682,-1.1659,-1.2575,-1.3986,-1.5814,-1.8909,-2.2295,-2.5662,-2.9882,-3.3295,-3.4871,-3.6287,-3.7477,-3.8269,-3.8995,-3.9547,-3.9841,-4.0432,-4.0951,-4.1315,-4.1349,-4.1393,-4.1505,-4.0899,-4.0338,-3.9927,-3.9044,-3.848,-3.8332,-3.7843,-3.7173,-3.6392,-3.6229,-3.5946,-3.5649,-3.6384,-3.6517,-3.6085,-3.5807,-3.6207,-3.7011,-3.5946,-3.6067,-3.7002,-3.6554,-3.6724,-3.7228,-3.7433,-3.7667,-3.7791,-3.7038,-3.662,-3.6291,-3.5783,-3.5622,-3.5622,-3.5622,-3.5622,-3.5622,-3.5622,-3.5622,-3.5622,-3.5622,-3.5622,-3.5622,-3.5622,-3.5622,-3.5739,-3.6291,-3.6603,-3.6684,-3.6457,-3.662,-3.6522,-3.5739,-3.5622,-3.5515,-3.5207,-3.5407,-3.547,-3.5207,-3.5407,-3.5622,-3.5622,-3.5622,-3.5694,-3.6028,-3.6374,-3.6452,-3.6143,-3.5878,-3.533,-3.4486,-3.4468,-3.431,-3.3986,-3.4442,-3.4754,-3.487,-3.5304,-3.5493,-3.5493,-3.5493,-3.5493,-0.4776,-0.6354,-0.8699,-1.1901,-1.2268,-1.2337,-1.4078,-1.5081,-1.5606,-1.5513,-1.666,-1.8128,-1.9697,-2.1982,-2.5379,-3.0771,-3.3616,-3.5654,-3.7171,-3.7906,-3.8577,-3.9331,-3.9605,-3.9872,-4.0169,-4.0548,-4.0771,-4.0801,-4.0805,-4.0762,-4.0696,-4.0381,-4.0057,-3.9712,-3.9333,-3.8999,-3.8803,-3.8198,-3.7524,-3.6746,-3.6097,-3.5783,-3.58,-3.6276,-3.618,-3.5611,-3.5777,-3.609,-3.6374,-3.5959,-3.6377,-3.7152,-3.6764,-3.6843,-3.719,-3.719,-3.719,-3.7097,-3.658,-3.6374,-3.6291,-3.5783,-3.574,-3.5893,-3.5893,-3.5893,-3.5893,-3.5893,-3.5757,-3.5622,-3.5622,-3.5622,-3.5622,-3.5622,-3.5622,-3.5739,-3.6291,-3.6374,-3.6374,-3.6374,-3.6374,-3.6224,-3.5694,-3.547,-3.5316,-3.5161,-3.527,-3.5316,-3.5161,-3.5424,-3.5622,-3.5622,-3.5694,-3.6054,-3.6724,-3.7135,-3.7235,-3.6897,-3.6688,-3.6193,-3.5349,-3.5312,-3.5018,-3.4394,-3.4787,-3.5071,-3.526,-3.5621,-3.5892,-3.6103,-3.6103,-3.6103,-0.583,-0.807,-1.0617,-1.2792,-1.4151,-1.5605,-1.803,-1.9535,-2.0454,-2.0557,-2.0997,-2.1868,-2.3451,-2.605,-2.9378,-3.3711,-3.5518,-3.6742,-3.78,-3.8841,-3.9331,-3.8898,-3.9325,-3.9787,-4.0153,-4.0514,-4.0735,-4.08,-4.08,-4.0762,-4.0707,-4.0381,-4.0164,-4.0062,-3.9438,-3.9099,-3.9072,-3.8287,-3.7859,-3.779,-3.6825,-3.6333,-3.635,-3.5878,-3.5673,-3.5622,-3.6148,-3.6385,-3.6416,-3.6904,-3.7135,-3.719,-3.7152,-3.719,-3.719,-3.719,-3.719,-3.7097,-3.658,-3.6374,-3.6291,-3.5783,-3.6113,-3.6688,-3.6688,-3.6688,-3.6688,-3.6688,-3.618,-3.5622,-3.5622,-3.5622,-3.5622,-3.5622,-3.5622,-3.5739,-3.6291,-3.6374,-3.6374,-3.6374,-3.6374,-3.6224,-3.5694,-3.5098,-3.4431,-3.3836,-3.4284,-3.4431,-3.3836,-3.4816,-3.5622,-3.5622,-3.6071,-3.6746,-3.772,-3.7825,-3.8044,-3.8493,-3.7826,-3.7037,-3.6229,-3.6211,-3.6174,-3.6119,-3.5928,-3.6184,-3.6942,-3.6731,-3.7026,-3.7815,-3.7815,-3.7815,-0.6611,-0.8965,-1.1711,-1.3442,-1.629,-1.9058,-2.0637,-2.2276,-2.3576,-2.392,-2.454,-2.523,-2.6068,-2.9129,-3.2289,-3.4686,-3.6404,-3.7927,-3.9354,-3.9596,-3.9584,-3.9618,-3.9607,-3.9738,-4.0099,-4.0477,-4.0712,-4.0731,-4.0851,-4.0878,-4.0773,-4.0632,-4.0449,-4.0164,-3.9867,-3.9622,-3.9414,-3.8897,-3.8656,-3.8637,-3.7452,-3.6921,-3.6882,-3.6684,-3.6586,-3.6603,-3.6803,-3.7058,-3.7342,-3.7542,-3.7843,-3.805,-3.7451,-3.6999,-3.6643,-3.6333,-3.6207,-3.6165,-3.5968,-3.6139,-3.6291,-3.5783,-3.6014,-3.6517,-3.6135,-3.6062,-3.6062,-3.6062,-3.6197,-3.6231,-3.574,-3.5622,-3.5622,-3.5622,-3.5622,-3.5667,-3.5854,-3.5898,-3.5898,-3.5898,-3.5898,-3.5705,-3.5081,-3.4783,-3.4382,-3.3684,-3.4186,-3.4528,-3.4235,-3.5005,-3.5739,-3.6054,-3.6865,-3.7488,-3.7859,-3.8216,-3.8496,-3.8676,-3.8414,-3.7881,-3.7074,-3.7037,-3.6798,-3.6303,-3.6526,-3.6788,-3.7112,-3.7362,-3.768,-3.8007,-3.8007,-3.8007,-0.831,-1.0804,-1.3734,-1.5159,-1.8351,-2.1454,-2.2683,-2.4383,-2.5947,-2.6743,-2.746,-2.8118,-2.873,-3.1269,-3.3896,-3.5725,-3.7299,-3.8812,-4.0296,-3.9984,-3.9709,-3.9922,-3.9754,-3.969,-3.9922,-4.0361,-4.0642,-4.0692,-4.0835,-4.0866,-4.0801,-4.0789,-4.0668,-4.0361,-4.0202,-4.0005,-3.9775,-3.9432,-3.9264,-3.9238,-3.8383,-3.7769,-3.7396,-3.7266,-3.719,-3.7228,-3.736,-3.7614,-3.7893,-3.8099,-3.8267,-3.835,-3.7524,-3.6999,-3.658,-3.5854,-3.5694,-3.5854,-3.5854,-3.6097,-3.6333,-3.5985,-3.6379,-3.6887,-3.637,-3.6327,-3.6414,-3.6239,-3.6416,-3.6491,-3.5802,-3.5808,-3.5926,-3.5673,-3.5622,-3.5622,-3.5622,-3.5622,-3.5622,-3.5622,-3.5622,-3.5362,-3.4736,-3.4431,-3.4137,-3.3684,-3.3987,-3.4382,-3.4576,-3.5311,-3.6122,-3.6786,-3.7452,-3.7911,-3.8132,-3.8496,-3.8707,-3.8707,-3.8707,-3.845,-3.79,-3.7863,-3.7606,-3.7074,-3.733,-3.7618,-3.7882,-3.8242,-3.8546,-3.8796,-3.8796,-3.8796,-1.1108,-1.3895,-1.6975,-1.8033,-2.0254,-2.2591,-2.4225,-2.5973,-2.7619,-2.9106,-2.9836,-3.0525,-3.1531,-3.2478,-3.4097,-3.7109,-3.8326,-3.9275,-4.0358,-3.9965,-3.9599,-3.9599,-3.9599,-3.9599,-3.9599,-4.0138,-4.0545,-4.068,-4.0692,-4.0738,-4.08,-4.0801,-4.0766,-4.0696,-4.0381,-4.0181,-4.0101,-3.9775,-3.9599,-3.9599,-3.9599,-3.8997,-3.7893,-3.7433,-3.721,-3.7248,-3.772,-3.7893,-3.7946,-3.8465,-3.8382,-3.7859,-3.7396,-3.7228,-3.7058,-3.6011,-3.5941,-3.6416,-3.6416,-3.6416,-3.6416,-3.6416,-3.7248,-3.8183,-3.7634,-3.786,-3.8183,-3.7652,-3.6945,-3.6266,-3.5739,-3.6197,-3.6586,-3.5808,-3.5622,-3.5622,-3.5622,-3.5622,-3.5622,-3.5622,-3.5622,-3.5362,-3.4736,-3.4037,-3.3582,-3.3582,-3.3582,-3.3836,-3.4528,-3.5681,-3.6786,-3.779,-3.7755,-3.7982,-3.8627,-3.8707,-3.8707,-3.8707,-3.8707,-3.8707,-3.8707,-3.8707,-3.8707,-3.8707,-3.8446,-3.8746,-3.9599,-3.9409,-3.9719,-4.0489,-4.0489,-4.0489,-1.2496,-1.4829,-1.7543,-1.9001,-2.1792,-2.4493,-2.5541,-2.6539,-2.7831,-3.0002,-3.09,-3.1568,-3.2277,-3.3633,-3.5296,-3.7279,-3.8484,-3.9484,-4.0373,-4.0176,-3.9861,-3.9622,-3.9599,-3.9599,-3.9599,-3.9757,-4.0063,-4.0511,-4.0424,-4.0479,-4.0772,-4.0791,-4.083,-4.0922,-4.0692,-4.0546,-4.053,-4.0138,-3.9943,-3.9943,-3.9712,-3.9419,-3.9077,-3.8718,-3.8559,-3.8529,-3.8473,-3.8465,-3.8465,-3.8627,-3.8627,-3.8415,-3.7877,-3.7685,-3.7614,-3.6964,-3.6843,-3.6943,-3.6943,-3.7173,-3.7379,-3.7058,-3.7445,-3.7918,-3.7432,-3.7411,-3.7488,-3.7316,-3.7242,-3.7007,-3.6362,-3.6478,-3.6586,-3.5808,-3.5622,-3.5622,-3.5622,-3.5622,-3.5622,-3.5622,-3.5622,-3.5362,-3.4736,-3.4431,-3.4137,-3.3684,-3.3987,-3.4655,-3.5725,-3.679,-3.7524,-3.7738,-3.8168,-3.8465,-3.8676,-3.8707,-3.8707,-3.8707,-3.8707,-3.8707,-3.8707,-3.8707,-3.8773,-3.8971,-3.9139,-3.9444,-3.9943,-4.0089,-4.0258,-4.0489,-4.0489,-4.0489,-1.4673,-1.7125,-1.9907,-2.146,-2.3683,-2.5897,-2.747,-2.815,-2.8992,-3.0798,-3.1671,-3.2493,-3.3734,-3.5094,-3.6543,-3.8014,-3.9119,-3.995,-4.0431,-4.0286,-4.0022,-3.9819,-3.9797,-3.9754,-3.9622,-3.9731,-3.9963,-4.0302,-4.0224,-4.0337,-4.0733,-4.0783,-4.0835,-4.0923,-4.0851,-4.0781,-4.0752,-4.0507,-4.0395,-4.038,-4.0159,-4.0057,-4.0024,-3.9519,-3.9231,-3.9099,-3.8833,-3.8707,-3.8707,-3.8707,-3.8707,-3.8658,-3.8099,-3.8013,-3.815,-3.7433,-3.719,-3.719,-3.719,-3.7396,-3.7578,-3.7285,-3.7667,-3.815,-3.7614,-3.7632,-3.7756,-3.7542,-3.7567,-3.7466,-3.6602,-3.6543,-3.6495,-3.5768,-3.5622,-3.5622,-3.5622,-3.5622,-3.5622,-3.5622,-3.5622,-3.5362,-3.4736,-3.4576,-3.4479,-3.4087,-3.4592,-3.5431,-3.6545,-3.7248,-3.7738,-3.805,-3.8465,-3.8707,-3.8707,-3.8707,-3.8707,-3.8707,-3.8707,-3.8707,-3.8707,-3.8707,-3.8815,-3.908,-3.9414,-3.9775,-4.0101,-4.0372,-4.0489,-4.0489,-4.0489,-4.0489,-1.7043,-1.9925,-2.2946,-2.4579,-2.5704,-2.7018,-2.9398,-3.0172,-3.0635,-3.1482,-3.2187,-3.3316,-3.5604,-3.6677,-3.7715,-3.9157,-4.0008,-4.0504,-4.0519,-4.0302,-4.0139,-4.012,-4.012,-4.0003,-3.9668,-3.9901,-4.0081,-4.0139,-4.012,-4.0264,-4.068,-4.0762,-4.0791,-4.0819,-4.0926,-4.0935,-4.0816,-4.0801,-4.0801,-4.0801,-4.0801,-4.0761,-4.0684,-3.9967,-3.9443,-3.9099,-3.8844,-3.8719,-3.8707,-3.8707,-3.8707,-3.8658,-3.8183,-3.8267,-3.8596,-3.7667,-3.734,-3.734,-3.734,-3.734,-3.734,-3.734,-3.7948,-3.8627,-3.8099,-3.83,-3.8596,-3.8099,-3.7946,-3.7685,-3.6786,-3.6481,-3.6333,-3.5827,-3.5622,-3.5622,-3.5622,-3.5622,-3.5622,-3.5622,-3.5622,-3.5407,-3.48,-3.4688,-3.4688,-3.4688,-3.5283,-3.6079,-3.7058,-3.7303,-3.7685,-3.8596,-3.8707,-3.8707,-3.8707,-3.8707,-3.8707,-3.8707,-3.8707,-3.8707,-3.8707,-3.8707,-3.8815,-3.9125,-3.9438,-3.9797,-4.0139,-4.0372,-4.0489,-4.0489,-4.0489,-4.0489,-1.6775,-1.9276,-2.2005,-2.4413,-2.6792,-2.8576,-2.878,-2.9601,-3.0717,-3.2022,-3.2686,-3.3789,-3.6437,-3.7276,-3.8162,-3.9948,-4.0392,-4.0549,-4.0649,-4.0617,-4.0458,-4.021,-4.0194,-4.0132,-4.0003,-3.9819,-3.9903,-4.0372,-4.0213,-4.0264,-4.068,-4.0707,-4.0788,-4.0948,-4.0878,-4.0887,-4.0959,-4.0857,-4.0801,-4.0801,-4.0801,-4.0785,-4.0751,-4.0294,-3.9732,-3.9099,-3.9036,-3.8894,-3.8707,-3.8707,-3.8707,-3.8707,-3.8578,-3.8596,-3.8658,-3.8451,-3.8368,-3.8368,-3.8368,-3.8368,-3.8368,-3.8368,-3.8515,-3.8676,-3.8546,-3.8627,-3.8676,-3.8546,-3.8216,-3.7859,-3.7631,-3.7305,-3.6865,-3.6333,-3.5898,-3.5622,-3.5622,-3.5622,-3.5622,-3.5622,-3.5622,-3.556,-3.5407,-3.5362,-3.5362,-3.5362,-3.6215,-3.6943,-3.7173,-3.7895,-3.8465,-3.8676,-3.8707,-3.8707,-3.8707,-3.8707,-3.8707,-3.8707,-3.8707,-3.8707,-3.8707,-3.8707,-3.8892,-3.9268,-3.9645,-4.0043,-4.0406,-4.0473,-4.0489,-4.0489,-4.0489,-4.0489,-1.6978,-1.9907,-2.3145,-2.6164,-2.8557,-2.9996,-2.9504,-3.0227,-3.1215,-3.1917,-3.2774,-3.4178,-3.6723,-3.7664,-3.859,-4.0216,-4.0559,-4.0623,-4.0692,-4.0721,-4.0683,-4.051,-4.0462,-4.0357,-4.0168,-3.9946,-3.9963,-4.0285,-4.0177,-4.0248,-4.0582,-4.0674,-4.0751,-4.084,-4.0879,-4.0934,-4.0996,-4.0996,-4.0992,-4.0992,-4.0992,-4.092,-4.0793,-4.0372,-3.9966,-3.9576,-3.9238,-3.9008,-3.8884,-3.8762,-3.8707,-3.8707,-3.8707,-3.8792,-3.8884,-3.875,-3.8652,-3.853,-3.8378,-3.8318,-3.8318,-3.8318,-3.8496,-3.8707,-3.8707,-3.8707,-3.8707,-3.8707,-3.8496,-3.8216,-3.798,-3.772,-3.7396,-3.6904,-3.6374,-3.5898,-3.5667,-3.5622,-3.5622,-3.5622,-3.5622,-3.5622,-3.5622,-3.5622,-3.5622,-3.5622,-3.6097,-3.6786,-3.7791,-3.8368,-3.8707,-3.8707,-3.8707,-3.8707,-3.8707,-3.8707,-3.8707,-3.8707,-3.8707,-3.8707,-3.8707,-3.8707,-3.897,-3.9595,-3.9778,-4.0101,-4.0489,-4.0489,-4.0489,-4.0489,-4.0489,-4.0489,-1.6588,-2.0337,-2.4447,-2.7796,-2.9812,-3.0903,-3.0402,-3.1055,-3.1773,-3.1759,-3.2861,-3.4514,-3.6788,-3.787,-3.8854,-4.0271,-4.0582,-4.068,-4.0707,-4.0781,-4.0809,-4.0824,-4.0762,-4.0602,-4.0314,-4.0172,-4.012,-4.0158,-4.012,-4.0213,-4.0489,-4.0596,-4.0667,-4.0692,-4.0867,-4.095,-4.0959,-4.108,-4.1149,-4.1171,-4.1191,-4.1077,-4.0816,-4.0467,-4.023,-4.0081,-3.951,-3.9231,-3.9072,-3.8855,-3.8732,-3.8707,-3.8732,-3.8894,-3.9072,-3.8855,-3.8651,-3.8462,-3.8143,-3.8032,-3.8032,-3.8032,-3.835,-3.8707,-3.8707,-3.8707,-3.8707,-3.8707,-3.8707,-3.8596,-3.8132,-3.8032,-3.7911,-3.7433,-3.6981,-3.6481,-3.5854,-3.5667,-3.5622,-3.5622,-3.5622,-3.5622,-3.5622,-3.5622,-3.5622,-3.5622,-3.5898,-3.6746,-3.8465,-3.8707,-3.8707,-3.8707,-3.8707,-3.8707,-3.8707,-3.8707,-3.8707,-3.8707,-3.8707,-3.8707,-3.8707,-3.8902,-3.9327,-3.9984,-4.0004,-4.0176,-4.0489,-4.0489,-4.0489,-4.0489,-4.0489,-4.0489,-1.3926,-1.833,-2.334,-2.6418,-2.8741,-3.0241,-3.0286,-3.1055,-3.1915,-3.2315,-3.3401,-3.4918,-3.6829,-3.787,-3.8854,-4.0271,-4.0519,-4.059,-4.077,-4.0793,-4.0831,-4.0959,-4.0857,-4.0752,-4.0641,-4.0296,-4.0195,-4.0441,-4.0232,-4.0213,-4.0489,-4.0519,-4.0588,-4.0692,-4.0738,-4.0781,-4.0836,-4.0831,-4.0914,-4.1026,-4.1149,-4.1126,-4.0964,-4.0789,-4.0494,-4.0101,-4.0002,-3.9645,-3.9099,-3.9044,-3.8923,-3.8719,-3.8961,-3.9072,-3.9099,-3.9044,-3.9044,-3.899,-3.8695,-3.8578,-3.8578,-3.8578,-3.8627,-3.8707,-3.8707,-3.8707,-3.8707,-3.8707,-3.8707,-3.8658,-3.8627,-3.8578,-3.8465,-3.7946,-3.7755,-3.7452,-3.6481,-3.5941,-3.5622,-3.5622,-3.5622,-3.5622,-3.5622,-3.5622,-3.5622,-3.5622,-3.7117,-3.8401,-3.8658,-3.8707,-3.8707,-3.8707,-3.8707,-3.8707,-3.8707,-3.8707,-3.8707,-3.8707,-3.8707,-3.8707,-3.8707,-3.9712,-4.0319,-4.0422,-4.0422,-4.0457,-4.0489,-4.0489,-4.0489,-4.0489,-4.0489,-4.0489,-1.5787,-1.9256,-2.2604,-2.5319,-2.7564,-2.9126,-2.9195,-3.0777,-3.2144,-3.2022,-3.31,-3.4559,-3.6174,-3.6774,-3.762,-3.9522,-3.986,-4.0094,-4.0664,-4.0828,-4.0925,-4.0992,-4.0877,-4.0796,-4.0762,-4.0354,-4.0139,-4.0269,-3.9983,-3.9963,-4.025,-4.0286,-4.037,-4.0568,-4.0655,-4.0707,-4.0732,-4.0788,-4.0864,-4.0996,-4.1149,-4.1128,-4.0996,-4.095,-4.0742,-4.0408,-4.0194,-3.9922,-3.9645,-3.9462,-3.9308,-3.9216,-3.9333,-3.9486,-3.9622,-3.9238,-3.9212,-3.9308,-3.8862,-3.8707,-3.8719,-3.8884,-3.8815,-3.8762,-3.91,-3.897,-3.8719,-3.8884,-3.8833,-3.8707,-3.8707,-3.8707,-3.8627,-3.8415,-3.8099,-3.7859,-3.7703,-3.6586,-3.5622,-3.5622,-3.5622,-3.5622,-3.5622,-3.5622,-3.6011,-3.7155,-3.8117,-3.8707,-3.8707,-3.8707,-3.9386,-4.1203,-4.1387,-4.1387,-4.1387,-3.9735,-3.8707,-3.8707,-3.8707,-3.8707,-3.8707,-3.9863,-4.0489,-4.0489,-4.0489,-4.0489,-4.0489,-4.0489,-4.0489,-4.0489,-4.0489,-4.0489,-1.6858,-1.9223,-2.1083,-2.3823,-2.6043,-2.7656,-2.8273,-3.018,-3.1863,-3.183,-3.2796,-3.4023,-3.5237,-3.5692,-3.6538,-3.8536,-3.9147,-3.9623,-4.0277,-4.0704,-4.0959,-4.0992,-4.0877,-4.0801,-4.0801,-4.0296,-4.0002,-4.0101,-3.9712,-3.9622,-3.9962,-3.9982,-4.0062,-4.0266,-4.0358,-4.0463,-4.0544,-4.0692,-4.0828,-4.0955,-4.108,-4.1113,-4.1052,-4.1019,-4.0922,-4.0752,-4.0404,-4.0194,-4.0081,-3.9819,-3.9668,-3.9599,-3.969,-3.988,-4.0042,-3.9552,-3.9462,-3.9529,-3.898,-3.8803,-3.8844,-3.9036,-3.9027,-3.8998,-3.9402,-3.9189,-3.8873,-3.8961,-3.8855,-3.8719,-3.8822,-3.878,-3.8719,-3.8792,-3.8442,-3.8117,-3.8168,-3.6981,-3.581,-3.5622,-3.5622,-3.5783,-3.6316,-3.6399,-3.7189,-3.9561,-3.9918,-3.9918,-3.9918,-3.9918,-4.0836,-4.3222,-4.3497,-4.3497,-4.3497,-4.1295,-3.957,-3.8762,-3.8707,-3.8833,-3.9154,-4.0024,-4.0489,-4.0489,-4.0489,-4.053,-4.0577,-4.0549,-4.054,-4.0545,-4.054,-4.0545,-1.4573,-1.6337,-1.8052,-2.1487,-2.3903,-2.5972,-2.7877,-2.9244,-3.057,-3.2122,-3.2872,-3.3458,-3.416,-3.5165,-3.6289,-3.7488,-3.8591,-3.9345,-3.9453,-4.0228,-4.0857,-4.0988,-4.0877,-4.0801,-4.0801,-4.0089,-3.9754,-4.0081,-3.9505,-3.9264,-3.9599,-3.9622,-3.9622,-3.9645,-3.9649,-3.98,-4.0139,-4.0511,-4.0742,-4.0809,-4.095,-4.108,-4.1191,-4.1055,-4.0992,-4.0959,-4.0762,-4.0438,-4.0101,-4.0081,-3.988,-3.9622,-3.9943,-4.0081,-4.0101,-4.0061,-3.9859,-3.9552,-3.9205,-3.9072,-3.9072,-3.9099,-3.9308,-3.9529,-3.9352,-3.9294,-3.9208,-3.8803,-3.8689,-3.8792,-3.9181,-3.897,-3.8762,-3.9027,-3.8865,-3.8318,-3.7076,-3.6741,-3.6416,-3.5739,-3.5622,-3.6249,-3.8201,-3.8546,-3.9621,-4.2782,-4.324,-4.324,-4.324,-4.324,-4.3296,-4.3461,-4.3497,-4.3497,-4.3497,-4.3332,-4.1937,-3.8891,-3.8707,-3.9216,-4.0353,-4.0473,-4.0489,-4.0489,-4.0489,-4.0597,-4.0785,-4.0723,-4.0699,-4.0692,-4.0699,-4.0616,-1.3093,-1.4918,-1.6946,-1.9122,-2.1605,-2.3961,-2.5536,-2.7618,-2.9674,-3.101,-3.1925,-3.2791,-3.3766,-3.4413,-3.523,-3.6538,-3.7118,-3.7651,-3.84,-3.9298,-3.9945,-4.0085,-4.0488,-4.0752,-4.0793,-4.0072,-3.9519,-3.9293,-3.9007,-3.8828,-3.8823,-3.8637,-3.8619,-3.8807,-3.8829,-3.9245,-4.0101,-4.0501,-4.0731,-4.0801,-4.0944,-4.1077,-4.1191,-4.115,-4.108,-4.0992,-4.0821,-4.0649,-4.0487,-4.0386,-4.0285,-4.0193,-4.0302,-4.0356,-4.0339,-4.0158,-4.0022,-3.988,-3.9552,-3.9414,-3.9457,-3.9668,-3.9595,-3.95,-3.9944,-3.98,-3.9529,-3.9778,-3.9576,-3.9301,-3.9476,-3.9476,-3.9427,-3.9152,-3.8913,-3.8747,-3.8971,-3.8671,-3.8348,-3.8187,-3.9518,-4.0906,-4.1653,-4.1772,-4.2158,-4.3314,-4.3497,-4.3497,-4.3497,-4.3497,-4.3497,-4.3497,-4.3497,-4.3497,-4.3497,-4.3497,-4.3002,-4.1846,-4.0591,-4.0043,-4.0489,-4.0489,-4.0489,-4.0489,-4.0489,-4.0597,-4.0801,-4.0743,-4.0713,-4.0752,-4.0713,-4.0629,-1.223,-1.3849,-1.5839,-1.7687,-1.9809,-2.1925,-2.3787,-2.5988,-2.807,-2.9438,-3.0843,-3.2126,-3.3058,-3.37,-3.4409,-3.5436,-3.5988,-3.6566,-3.7309,-3.8338,-3.9023,-3.911,-3.9567,-3.9876,-3.9926,-3.9214,-3.8625,-3.8278,-3.8025,-3.7845,-3.7698,-3.7479,-3.7463,-3.7692,-3.7868,-3.8464,-3.9524,-4.0008,-4.0416,-4.0801,-4.0883,-4.1026,-4.1191,-4.1191,-4.115,-4.1055,-4.0877,-4.0752,-4.0692,-4.0559,-4.0489,-4.0489,-4.0489,-4.0489,-4.0473,-4.0304,-4.0177,-4.0081,-3.9859,-3.9775,-3.9797,-4.0022,-3.9922,-3.98,-4.0336,-4.023,-3.9984,-4.0389,-4.0211,-3.9905,-3.9905,-4.0004,-3.9905,-3.9144,-3.8815,-3.8909,-3.9625,-3.9407,-3.948,-4.0687,-4.2305,-4.3497,-4.3497,-4.3497,-4.3497,-4.3497,-4.3497,-4.3497,-4.3497,-4.3497,-4.3497,-4.3497,-4.3912,-4.4204,-4.4204,-4.4204,-4.3736,-4.2558,-4.1244,-4.0489,-4.0489,-4.0489,-4.0489,-4.0489,-4.0489,-4.0563,-4.0692,-4.0692,-4.0752,-4.0831,-4.085,-4.0824,0.0,0.0,0.0,-1.734,-1.8535,-1.9826,-2.2802,-2.4379,-2.5696,-2.7486,-2.9669,-3.1449,-3.1946,-3.2985,-3.3839,-3.411,-3.532,-3.6249,-3.6249,-3.7352,-3.8158,-3.8158,-3.8178,-3.8197,-3.8197,-3.7538,-3.7112,-3.709,-3.6586,-3.6285,-3.6285,-3.6266,-3.6277,-3.6277,-3.6793,-3.7489,-3.8361,-3.8988,-3.9799,-4.0762,-4.0801,-4.095,-4.1191,-4.1191,-4.1191,-4.1191,-4.0914,-4.0752,-4.0692,-4.0559,-4.0489,-4.0489,-4.0489,-4.0489,-4.0489,-4.0489,-4.0339,-4.0101,-4.0101,-4.0101,-4.0101,-4.0101,-4.0304,-4.0489,-4.0489,-4.0489,-4.0508,-4.0604,-4.0642,-4.0623,-4.0527,-4.0489,-4.0212,-3.911,-3.8823,-3.8793,-3.8793,-3.8744,-3.9625,-4.2745,-4.3424,-4.3513,-4.3529,-4.3563,-4.3563,-4.3563,-4.3563,-4.3563,-4.3563,-4.3563,-4.3563,-4.3563,-4.4768,-4.5586,-4.5586,-4.5586,-4.4124,-4.0719,-4.0489,-4.0489,-4.0489,-4.0489,-4.0489,-4.0489,-4.0489,-4.0489,-4.0489,-4.0641,-4.0768,-4.0911,-4.1107,-4.1191,-1.2801,0.0,0.0,0.0,0.0,0.0,-2.0358,-2.1703,-2.3319,-2.5977,-2.753,-2.8916,-3.0505,-3.1964,-3.2873,-3.2711,-3.3857,-3.4936,-3.5358,-3.6233,-3.693,-3.7226,-3.7725,-3.8087,-3.8197,-3.7709,-3.7179,-3.662,-3.6589,-3.6334,-3.5755,-3.5708,-3.5789,-3.6012,-3.6326,-3.692,-3.7737,-3.8786,-3.9509,-3.9933,-4.0509,-4.095,-4.1191,-4.1191,-4.1191,-4.1191,-4.0914,-4.0785,-4.0752,-4.0577,-4.0489,-4.0489,-4.0489,-4.0489,-4.0489,-4.0489,-4.0457,-4.0389,-4.0389,-4.0389,-4.0389,-4.0389,-4.0441,-4.0489,-4.0489,-4.0489,-4.1008,-4.3489,-4.4182,-4.3605,-4.1123,-4.0489,-4.0729,-4.1666,-4.1505,-4.1166,-4.1166,-3.9871,-3.8964,-3.9863,-4.1901,-4.3836,-4.4858,-4.5014,-4.5014,-4.5014,-4.5014,-4.5014,-4.5014,-4.5014,-4.5014,-4.5014,-4.5381,-4.5586,-4.5586,-4.5586,-4.4124,-4.0719,-4.0489,-4.0489,-4.0489,-4.0489,-4.0489,-4.0489,-4.0489,-4.0489,-4.0504,-4.0671,-4.0883,-4.1128,-4.1171,-4.1191,-1.4218,-1.5082,-1.637,-1.6789,0.0,0.0,-1.9919,-2.0856,-2.1963,-2.4182,-2.5831,-2.725,-2.8411,-3.0048,-3.1157,-3.1102,-3.2336,-3.3666,-3.46,-3.5343,-3.5892,-3.6125,-3.6659,-3.7018,-3.7102,-3.6771,-3.6362,-3.5927,-3.5882,-3.5653,-3.5183,-3.5163,-3.524,-3.539,-3.5666,-3.6192,-3.6992,-3.7805,-3.8677,-3.9602,-4.0089,-4.0618,-4.1191,-4.1191,-4.1191,-4.1191,-4.0983,-4.0857,-4.0785,-4.0648,-4.0545,-4.0504,-4.0559,-4.0568,-4.0582,-4.0623,-4.0629,-4.0629,-4.0629,-4.0629,-4.0629,-4.0629,-4.061,-4.0577,-4.0534,-4.0489,-4.12,-4.4624,-4.4566,-4.3008,-4.1008,-4.0489,-4.1104,-4.3566,-4.3848,-4.3547,-4.3547,-4.2522,-4.1413,-4.083,-4.2701,-4.4644,-4.5457,-4.5586,-4.5586,-4.5586,-4.5586,-4.5586,-4.5586,-4.5586,-4.5586,-4.5586,-4.5586,-4.5586,-4.5586,-4.5586,-4.4124,-4.0719,-4.0489,-4.0489,-4.0489,-4.0489,-4.0489,-4.0489,-4.0489,-4.059,-4.079,-4.0722,-4.0863,-4.1191,-4.1191,-4.1191,-1.6124,-1.6479,-1.7354,-1.8753,-1.8311,0.0,-2.0597,-2.1128,-2.1391,-2.2486,-2.4445,-2.5993,-2.6068,-2.7648,-2.904,-2.9269,-3.0721,-3.2365,-3.3844,-3.46,-3.5016,-3.5088,-3.5361,-3.557,-3.5611,-3.5396,-3.5239,-3.5199,-3.4884,-3.4714,-3.4734,-3.4734,-3.4754,-3.4793,-3.5016,-3.5482,-3.6205,-3.6535,-3.7583,-3.9295,-3.9497,-4.0092,-4.1035,-4.1152,-4.1191,-4.1191,-4.1055,-4.092,-4.0793,-4.0721,-4.0623,-4.0519,-4.0662,-4.0703,-4.0715,-4.0779,-4.0801,-4.0801,-4.0801,-4.0801,-4.0801,-4.0801,-4.076,-4.0692,-4.059,-4.054,-4.1161,-4.4253,-4.2876,-4.0489,-4.0489,-4.0489,-4.1354,-4.4778,-4.5297,-4.5028,-4.5028,-4.5028,-4.4784,-4.3899,-4.4743,-4.5586,-4.5586,-4.5586,-4.5586,-4.5586,-4.5586,-4.5586,-4.5586,-4.5586,-4.5586,-4.5586,-4.5586,-4.5586,-4.5586,-4.524,-4.3739,-4.0681,-4.0489,-4.0489,-4.0489,-4.0489,-4.0489,-4.0489,-4.054,-4.0781,-4.1191,-4.0771,-4.079,-4.1191,-4.1191,-4.1191,-1.8663,-1.9248,-2.0004,-1.923,-1.9719,0.0,-2.0289,-2.0702,-2.1391,-2.2486,-2.3311,-2.4074,-2.4743,-2.6184,-2.7201,-2.7003,-2.8774,-3.0896,-3.2939,-3.3881,-3.4574,-3.5034,-3.5211,-3.536,-3.5581,-3.56,-3.5485,-3.5226,-3.4884,-3.4793,-3.4999,-3.5016,-3.5122,-3.5339,-3.5383,-3.5508,-3.5662,-3.6344,-3.6954,-3.7434,-3.891,-3.9739,-4.002,-4.0838,-4.1191,-4.1191,-4.1055,-4.092,-4.0793,-4.0721,-4.0623,-4.0519,-4.0662,-4.0703,-4.0715,-4.0779,-4.0801,-4.0801,-4.0801,-4.0801,-4.0801,-4.0801,-4.0824,-4.0851,-4.0831,-4.0785,-4.0924,-4.1803,-4.1305,-4.0489,-4.0489,-4.0489,-4.1354,-4.4778,-4.3489,-4.1489,-4.1489,-4.1489,-4.2228,-4.4708,-4.54,-4.5586,-4.5586,-4.5586,-4.5586,-4.5586,-4.5586,-4.5586,-4.5586,-4.5586,-4.5586,-4.5586,-4.5586,-4.5586,-4.5586,-4.3066,-4.12,-4.0527,-4.0489,-4.0489,-4.0489,-4.0489,-4.0489,-4.0489,-4.0882,-4.1103,-4.1191,-4.1103,-4.1103,-4.1191,-4.1191,-4.1191,-2.0457,-2.0509,-2.0958,-2.062,-2.0555,0.0,0.0,-2.1075,-2.1262,-2.2748,-2.2904,-2.3061,-2.3829,-2.4574,-2.5112,-2.5136,-2.6898,-2.8691,-2.9971,-3.1924,-3.3312,-3.3618,-3.3944,-3.4389,-3.4997,-3.5079,-3.5177,-3.5377,-3.5205,-3.5174,-3.5289,-3.5304,-3.5369,-3.5493,-3.5493,-3.5493,-3.5493,-3.5911,-3.637,-3.6929,-3.8258,-3.9159,-3.9672,-4.0662,-4.1103,-4.1105,-4.1092,-4.1023,-4.0902,-4.0855,-4.0771,-4.0657,-4.0722,-4.079,-4.0867,-4.0955,-4.0996,-4.0996,-4.0996,-4.0996,-4.0996,-4.0996,-4.1026,-4.1058,-4.1058,-4.1026,-4.1026,-4.1151,-4.1039,-4.0809,-4.0554,-4.0489,-4.0931,-4.2643,-4.1739,-4.0489,-4.0489,-4.0489,-4.1508,-4.4932,-4.5586,-4.5586,-4.5586,-4.5586,-4.5586,-4.5586,-4.5586,-4.5586,-4.5586,-4.5586,-4.5586,-4.5586,-4.5586,-4.4913,-4.3201,-4.1489,-4.0489,-4.0489,-4.0489,-4.0489,-4.0489,-4.0489,-4.0617,-4.084,-4.1074,-4.1191,-4.1191,-4.1191,-4.1191,-4.1191,-4.1191,-4.1191,-2.2345,-2.2053,-2.2295,-2.2589,-2.2049,-2.165,0.0,0.0,0.0,-2.2895,-2.2716,-2.2496,-2.3071,-2.319,-2.3289,-2.3636,-2.5137,-2.6366,-2.6705,-2.9246,-3.1261,-3.1675,-3.2346,-3.3091,-3.3893,-3.3978,-3.4299,-3.5069,-3.5063,-3.5084,-3.5238,-3.5411,-3.5493,-3.5493,-3.5515,-3.5515,-3.5507,-3.5515,-3.5881,-3.6635,-3.7702,-3.8588,-3.9373,-4.0496,-4.0996,-4.1019,-4.1149,-4.1126,-4.0996,-4.0996,-4.0944,-4.085,-4.085,-4.0889,-4.1023,-4.115,-4.1191,-4.1191,-4.1191,-4.1191,-4.1191,-4.1191,-4.1191,-4.1191,-4.1191,-4.1191,-4.1191,-4.1191,-4.1191,-4.1103,-4.0722,-4.0568,-4.0489,-4.0489,-4.0489,-4.0489,-4.0489,-4.0489,-4.1316,-4.4066,-4.4605,-4.4816,-4.549,-4.5586,-4.5586,-4.5586,-4.5586,-4.5586,-4.5586,-4.5586,-4.5586,-4.5586,-4.5009,-4.3489,-4.0719,-4.0489,-4.0489,-4.0489,-4.0489,-4.0489,-4.0489,-4.0577,-4.0807,-4.1191,-4.1191,-4.1191,-4.1191,-4.1191,-4.1191,-4.1191,-4.1191,-4.1191,-2.531,-2.5866,-2.6364,-2.5016,-2.5614,-2.5863,-2.3281,0.0,-2.2975,-2.253,0.0,-2.2344,-2.2412,0.0,0.0,-2.2485,-2.3512,-2.4419,-2.469,-2.6122,-2.7864,-2.9755,-3.0939,-3.1725,-3.2083,-3.2111,-3.2493,-3.3407,-3.3304,-3.3526,-3.4314,-3.5084,-3.5493,-3.5493,-3.555,-3.5562,-3.5507,-3.555,-3.5601,-3.5669,-3.7386,-3.8246,-3.8413,-4.0181,-4.0996,-4.1019,-4.1149,-4.1126,-4.0996,-4.0996,-4.0992,-4.0988,-4.0988,-4.0992,-4.1023,-4.115,-4.1191,-4.1191,-4.1191,-4.1191,-4.1191,-4.1191,-4.1191,-4.1191,-4.1191,-4.1191,-4.1191,-4.1191,-4.1191,-4.1191,-4.1128,-4.0807,-4.0489,-4.0489,-4.0489,-4.0489,-4.0489,-4.0489,-4.0604,-4.0989,-4.1066,-4.2027,-4.5066,-4.5586,-4.5586,-4.5586,-4.5586,-4.5586,-4.5586,-4.5586,-4.5586,-4.5586,-4.2874,-4.0912,-4.0527,-4.0489,-4.0489,-4.0489,-4.0489,-4.0489,-4.0489,-4.0903,-4.1149,-4.1191,-4.1191,-4.1191,-4.1191,-4.1191,-4.1191,-4.1191,-4.1191,-4.1191,-2.6615,-2.7052,-2.7518,-2.6342,-2.6061,-2.5634,-2.3804,-2.3055,-2.2801,-2.2919,0.0,0.0,0.0,0.0,0.0,0.0,-2.2989,-2.3397,-2.3077,-2.3958,-2.5538,-2.7964,-2.8803,-2.9494,-3.0275,-3.127,-3.1812,-3.1689,-3.2078,-3.2677,-3.3462,-3.4399,-3.5116,-3.5531,-3.5621,-3.5638,-3.5621,-3.5601,-3.5599,-3.557,-3.7276,-3.8074,-3.8144,-3.9995,-4.0848,-4.0883,-4.1023,-4.1092,-4.1126,-4.1126,-4.1126,-4.1107,-4.1035,-4.0995,-4.1014,-4.1064,-4.108,-4.108,-4.108,-4.1128,-4.1191,-4.1191,-4.1191,-4.1191,-4.1191,-4.1191,-4.1191,-4.1191,-4.1191,-4.1191,-4.1191,-4.1046,-4.0909,-4.0909,-4.0699,-4.0489,-4.0489,-4.0489,-4.0489,-4.0489,-4.0489,-4.095,-4.2374,-4.4278,-4.5586,-4.5586,-4.5586,-4.5586,-4.5586,-4.5586,-4.4836,-4.2835,-4.1354,-4.0489,-4.0489,-4.0489,-4.0489,-4.0489,-4.0489,-4.061,-4.0896,-4.1099,-4.1191,-4.1191,-4.1191,-4.1191,-4.1191,-4.1191,-4.1191,-4.1191,-4.1191,-4.1191,-2.8365,-2.862,-2.8872,-2.7531,-2.6596,-2.5602,-2.4069,-2.3292,-2.3004,-2.3325,-2.3308,0.0,0.0,0.0,-2.2835,0.0,0.0,-2.3042,-2.2412,-2.2915,-2.407,-2.5966,-2.6852,-2.7753,-2.8853,-2.9874,-3.0335,-2.9966,-3.0502,-3.1285,-3.2289,-3.3487,-3.4493,-3.5272,-3.5592,-3.5749,-3.5703,-3.5698,-3.5659,-3.563,-3.7025,-3.78,-3.8046,-3.9625,-4.0507,-4.0779,-4.092,-4.1052,-4.115,-4.1171,-4.1191,-4.1191,-4.1082,-4.1019,-4.095,-4.095,-4.095,-4.095,-4.095,-4.1019,-4.1082,-4.1107,-4.1128,-4.1129,-4.1172,-4.1191,-4.1191,-4.1191,-4.1191,-4.1191,-4.1191,-4.1191,-4.1191,-4.1191,-4.0832,-4.0489,-4.0489,-4.0489,-4.0489,-4.0489,-4.0489,-4.0489,-4.0489,-4.3335,-4.5586,-4.5586,-4.5586,-4.5586,-4.5586,-4.5586,-4.4278,-4.0854,-4.0489,-4.0489,-4.0489,-4.0489,-4.0489,-4.0489,-4.0489,-4.071,-4.1171,-4.1191,-4.1191,-4.1191,-4.1191,-4.1191,-4.1191,-4.1191,-4.1191,-4.1191,-4.1191,-4.1191,-3.1271,-3.1613,-3.1372,-2.8882,-2.813,-2.7166,-2.3956,-2.3836,-2.4235,-2.3528,-2.4526,-2.5287,-2.4608,-2.4455,0.0,0.0,0.0,0.0,0.0,-2.336,-2.3508,-2.3616,-2.5401,-2.7025,-2.8034,-2.7375,-2.7259,-2.8203,-2.8233,-2.8948,-3.0581,-3.2318,-3.3647,-3.4503,-3.5422,-3.5836,-3.5703,-3.5831,-3.5794,-3.5611,-3.651,-3.73,-3.8027,-3.8999,-3.9901,-4.0707,-4.0916,-4.0996,-4.1023,-4.115,-4.1191,-4.1191,-4.1191,-4.1026,-4.0801,-4.0801,-4.0801,-4.0801,-4.0801,-4.0809,-4.0816,-4.0894,-4.0911,-4.0944,-4.115,-4.1191,-4.1191,-4.1191,-4.1191,-4.1191,-4.1191,-4.1191,-4.1191,-4.1191,-4.0832,-4.0489,-4.0489,-4.0489,-4.0489,-4.0489,-4.0489,-4.0489,-4.0489,-4.3335,-4.5586,-4.5586,-4.5586,-4.5586,-4.5586,-4.5586,-4.4278,-4.0854,-4.0489,-4.0489,-4.0489,-4.0489,-4.0489,-4.0489,-4.0489,-4.071,-4.1171,-4.1191,-4.1191,-4.1191,-4.1191,-4.1191,-4.1191,-4.1191,-4.1191,-4.1191,-4.1191,-4.1191,-3.3771,-3.4324,-3.4282,-3.1772,-3.0124,-2.8458,-2.5721,-2.4989,-2.4626,-2.3887,-2.4743,-2.5372,-2.4659,-2.4506,0.0,0.0,0.0,0.0,0.0,-2.2246,-2.2892,-2.3431,-2.5376,-2.6575,-2.634,-2.6626,-2.6736,-2.6496,-2.7579,-2.8684,-2.9756,-3.2059,-3.3701,-3.4545,-3.5472,-3.593,-3.5903,-3.591,-3.5827,-3.5671,-3.6503,-3.7281,-3.8027,-3.8926,-3.9831,-4.0703,-4.0762,-4.0824,-4.087,-4.0914,-4.0944,-4.092,-4.0889,-4.0809,-4.0742,-4.0768,-4.077,-4.0752,-4.0777,-4.0801,-4.0809,-4.0869,-4.0863,-4.0883,-4.1128,-4.0974,-4.0799,-4.1103,-4.1191,-4.1191,-4.1191,-4.1191,-4.1191,-4.1191,-4.1074,-4.0882,-4.0568,-4.0489,-4.0489,-4.0489,-4.2316,-4.3874,-4.3874,-4.4816,-4.5586,-4.5586,-4.5586,-4.5586,-4.5586,-4.5586,-4.4278,-4.0854,-4.0489,-4.0489,-4.0489,-4.0489,-4.0489,-4.0489,-4.0489,-4.071,-4.1171,-4.1191,-4.1191,-4.1191,-4.1191,-4.1191,-4.1191,-4.1191,-4.1191,-4.1191,-4.1191,-4.1191,-3.5477,-3.5881,-3.5771,-3.3568,-3.2001,-3.0296,-2.7574,-2.6908,-2.6557,-2.5357,-2.5884,-2.6499,-2.6149,-2.5454,0.0,0.0,0.0,0.0,0.0,-2.2699,-2.3442,-2.4106,-2.5398,-2.6033,-2.5493,-2.5749,-2.5876,-2.5654,-2.6424,-2.7537,-2.8928,-3.1247,-3.3026,-3.4144,-3.5369,-3.5996,-3.5996,-3.595,-3.5857,-3.5703,-3.6237,-3.7011,-3.8027,-3.8584,-3.9485,-4.0636,-4.068,-4.071,-4.0781,-4.0785,-4.0801,-4.0793,-4.0752,-4.0729,-4.0703,-4.069,-4.0665,-4.0649,-4.0679,-4.0692,-4.0703,-4.0733,-4.0733,-4.0723,-4.0903,-4.0752,-4.0604,-4.1072,-4.1191,-4.1191,-4.1191,-4.1191,-4.1191,-4.1191,-4.1191,-4.1072,-4.0604,-4.0489,-4.0854,-4.2066,-4.3104,-4.4162,-4.5374,-4.5586,-4.5586,-4.5586,-4.5586,-4.5586,-4.5586,-4.5586,-4.4278,-4.0854,-4.0489,-4.0489,-4.0489,-4.0489,-4.0489,-4.0489,-4.0489,-4.071,-4.1171,-4.1191,-4.1191,-4.1191,-4.1191,-4.1797,-4.3008,-4.3008,-4.3008,-4.3008,-4.3008,-4.2363]},{"header":{"parameterUnit":"m.s-1","parameterCategory":1,"la1":30.6,"la2":29.2853,"lo1":-89.7004,"lo2":-87.6739,"dy":0.0162,"dx":0.0183,"nx":112,"ny":82,"refTime":"2024-06-02T00:00:00:Z","depth":0,"parameterNumber":3,"parameterNumberName":"V-component_of_WINDS"},"data":[0.0,0.0,0.0,0.0,0.0,0.0,0.0,0.0,0.0,0.0,0.0,0.0,0.0,0.0,0.0,0.0,0.0,0.0,0.0,0.0,0.0,0.0,0.0,0.0,0.0,0.0,0.0,0.0,0.0,0.0,0.0,0.0,0.0,0.0,0.0,0.0,0.0,0.0,0.0,0.0,0.0,0.0,0.0,0.0,0.0,0.0,0.0,0.0,0.0,0.0,0.0,0.0,0.0,0.0,0.0,0.0,0.0,0.0,0.0,0.0,0.0,0.0,0.0,0.0,0.0,0.0,0.0,0.0,0.0,0.0,0.0,0.0,0.0,0.0,0.0,0.0,0.0,0.0,0.0,0.0,0.0,0.0,0.0,0.0,0.0,0.0,0.0,0.0,0.0,0.0,-1.3692,-1.2553,-1.0088,-0.6829,-0.2715,-0.0474,0.2274,0.6019,0.0,0.0,0.0,0.0,0.0,0.0,0.0,0.0,0.0,0.0,0.0,0.0,0.0,0.0,0.0,0.0,0.0,0.0,0.0,0.0,0.0,0.0,0.0,0.0,0.0,0.0,0.0,0.0,0.0,0.0,0.0,0.0,0.0,0.0,0.0,0.0,0.0,0.0,0.0,0.0,0.0,0.0,0.0,0.0,0.0,0.0,0.0,0.0,0.0,0.0,0.0,0.0,0.0,0.0,0.0,0.0,0.0,0.0,0.0,0.0,0.0,0.0,0.0,0.0,0.0,0.0,0.0,0.0,0.0,0.0,0.0,0.0,0.0,0.0,0.0,0.0,0.0,0.0,0.0,0.0,0.0,0.0,0.0,0.0,0.0,0.0,0.0,0.0,0.0,0.0,0.0,0.0,0.0,0.0,0.0,0.0,0.0,0.0,0.0,0.0,0.0,0.0,0.0,0.0,-1.363,-1.3044,-1.0344,-0.71,-0.3452,-0.1351,0.1827,0.6647,0.0,0.0,0.0,0.0,0.0,0.0,0.0,0.0,0.0,0.0,0.0,0.0,0.0,0.0,0.0,0.0,0.0,0.0,0.0,0.0,0.0,0.0,0.0,0.0,0.0,0.0,0.0,0.0,0.0,0.0,0.0,0.0,0.0,0.0,0.0,0.0,0.0,0.0,0.0,0.0,0.0,0.0,0.0,0.0,0.0,0.0,0.0,0.0,0.0,0.0,0.0,0.0,0.0,0.0,0.0,0.0,0.0,0.0,0.0,0.0,0.0,0.0,0.0,0.0,0.0,0.0,0.0,0.0,0.0,0.0,0.0,0.0,0.0,0.0,0.0,0.0,0.0,0.0,0.0,0.0,0.0,0.0,0.0,0.0,0.0,0.0,0.0,0.0,0.0,0.0,0.0,0.0,0.0,0.0,0.0,0.0,0.0,0.0,0.0,0.0,0.0,0.0,0.0,-1.3085,-1.2856,-1.2476,-1.0154,-0.7197,-0.3586,-0.1798,0.1093,0.5659,0.631,0.0,0.0,0.0,0.0,0.0,0.0,0.0,0.0,0.0,0.0,0.0,0.0,0.0,0.0,0.0,0.0,0.0,0.0,0.0,0.0,0.0,0.0,0.0,0.0,0.0,0.0,0.0,0.0,0.0,0.0,0.0,0.0,0.0,0.0,0.0,0.0,0.0,0.0,0.0,0.0,0.0,0.0,0.0,0.0,0.0,0.0,0.0,0.0,0.0,0.0,0.0,0.0,0.0,0.0,0.0,0.0,0.0,0.0,0.0,0.0,0.0,0.0,0.0,0.0,0.0,0.0,0.0,0.0,0.0,0.0,0.0,0.0,0.0,0.0,0.0,0.0,0.0,0.0,0.0,0.0,0.0,0.0,0.0,0.0,0.0,0.0,0.0,0.0,0.0,0.0,0.0,0.0,0.0,0.0,0.0,0.0,0.0,0.0,0.0,0.0,0.0,0.0,-1.3467,-1.2407,-1.165,-0.9691,-0.6966,-0.3372,-0.1906,0.0629,0.483,0.5709,0.0,0.0,0.0,0.0,0.0,0.0,0.0,0.0,0.0,0.0,0.0,0.0,0.0,0.0,0.0,0.0,0.0,0.0,0.0,0.0,0.0,0.0,0.0,0.0,0.0,0.0,0.0,0.0,0.0,0.0,0.0,0.0,0.0,0.0,0.0,0.0,0.0,0.0,0.0,0.0,0.0,0.0,0.0,0.0,0.0,0.0,0.0,0.0,0.0,0.0,0.0,0.0,0.0,0.0,0.0,0.0,0.0,0.0,0.0,0.0,0.0,0.0,0.0,0.0,0.0,0.0,0.0,0.0,0.0,0.0,0.0,0.0,0.0,0.0,0.0,0.0,0.0,0.0,0.0,0.0,0.0,0.0,0.0,0.0,0.0,0.0,0.0,0.0,0.0,0.0,0.0,0.0,0.0,0.0,0.0,0.0,0.0,0.0,0.0,0.0,0.0,0.0,-1.3506,-1.2931,-1.0762,-0.8827,-0.6192,-0.2559,-0.1314,0.0993,0.5033,0.5952,0.0,0.0,0.0,0.0,0.0,0.0,0.0,0.0,0.0,0.0,0.0,0.0,0.0,0.0,0.0,0.0,0.0,0.0,0.0,0.0,0.0,0.0,0.0,0.0,0.0,0.0,0.0,0.0,0.0,0.0,0.0,0.0,0.0,0.0,0.0,0.0,0.0,0.0,0.0,0.0,0.0,0.0,0.0,0.0,0.0,0.0,0.0,0.0,0.0,0.0,0.0,0.0,0.0,0.0,0.0,0.0,0.0,0.0,0.0,0.0,0.0,0.0,0.0,0.0,0.0,0.0,0.0,0.0,0.0,0.0,0.0,0.0,0.0,0.0,0.0,0.0,0.0,0.0,0.0,0.0,0.0,0.0,0.0,0.0,0.0,0.0,0.0,0.0,0.0,0.0,0.0,0.0,0.0,0.0,0.0,0.0,0.0,0.0,0.0,0.0,0.0,0.0,-1.2164,-1.1506,-1.1217,-0.9057,-0.6513,-0.3805,-0.2726,-0.0335,0.4102,0.0,0.0,0.0,0.0,0.0,0.0,0.0,0.0,0.0,0.0,0.0,0.0,0.0,0.0,0.0,0.0,0.0,0.0,0.0,0.0,0.0,0.0,0.0,0.0,0.0,0.0,0.0,0.0,0.0,0.0,0.0,0.0,0.0,0.0,0.0,0.0,0.0,0.0,0.0,0.0,0.0,0.0,0.0,0.0,0.0,0.0,0.0,0.0,0.0,0.0,0.0,0.0,0.0,0.0,0.0,0.0,0.0,0.0,0.0,0.0,0.0,0.0,0.0,0.0,0.0,0.0,0.0,0.0,0.0,0.0,0.0,0.0,0.0,0.0,0.0,0.0,0.0,0.0,0.0,0.0,0.0,0.0,0.0,0.0,0.0,0.0,0.0,0.0,0.0,0.0,0.0,0.0,0.0,0.0,0.0,0.0,0.0,0.0,0.0,0.0,0.0,0.0,-1.2173,-1.1333,-1.0663,-1.1051,-0.8989,-0.6732,-0.4566,-0.3475,-0.116,0.2884,0.0,0.0,0.0,0.0,0.0,0.0,0.0,0.0,0.0,0.0,0.0,0.0,0.0,0.0,0.0,0.0,0.0,0.0,0.0,0.0,0.0,0.0,0.0,0.0,0.0,0.0,0.0,0.0,0.0,0.0,0.0,0.0,0.0,0.0,0.0,0.0,0.0,0.0,0.0,0.0,0.0,0.0,0.0,0.0,0.0,0.0,0.0,0.0,0.0,0.0,0.0,0.0,0.0,0.0,0.0,0.0,0.0,0.0,0.0,0.0,0.0,0.0,0.0,0.0,0.0,0.0,0.0,0.0,0.0,0.0,0.0,0.0,0.0,0.0,0.0,0.0,0.0,0.0,0.0,0.0,0.0,0.0,0.0,0.0,0.0,0.0,0.0,0.0,0.0,0.0,0.0,0.0,0.0,0.0,0.0,0.0,0.0,0.0,0.0,0.0,0.0,0.0,-1.124,-1.1269,-1.0885,-0.9809,-0.8436,-0.6742,-0.4587,-0.3268,-0.1308,0.0,0.0,0.0,0.0,0.0,0.0,0.0,0.0,0.0,0.0,0.0,0.0,0.0,0.0,0.0,0.0,0.0,0.0,0.0,0.0,0.0,0.0,0.0,0.0,0.0,0.0,0.0,0.0,0.0,0.0,0.0,0.0,0.0,0.0,0.0,0.0,0.0,0.0,0.0,0.0,0.0,0.0,0.0,0.0,0.0,0.0,0.0,0.0,0.0,0.0,0.0,0.0,0.0,0.0,0.0,0.0,0.0,0.0,0.0,0.0,0.0,0.0,0.0,0.0,0.0,0.0,0.0,0.0,0.0,0.0,0.0,0.0,0.0,0.0,0.0,0.0,0.0,0.0,0.0,0.0,0.0,0.0,0.0,0.0,0.0,0.0,0.0,0.0,0.0,0.0,0.0,0.0,0.0,0.0,0.0,0.0,0.0,0.0,0.0,0.0,0.0,0.0,0.0,-1.0549,-1.0275,-0.9949,-0.9768,-0.8488,-0.6983,-0.5341,-0.4676,-0.3158,-0.0429,0.0,0.0,0.0,0.0,0.0,0.0,0.0,0.0,0.0,0.0,0.0,0.0,0.0,0.0,0.0,0.0,0.0,0.0,0.0,0.0,0.0,0.0,0.0,0.0,0.0,0.0,0.0,0.0,0.0,0.0,0.0,0.0,0.0,0.0,0.0,0.0,0.0,0.0,0.0,0.0,0.0,0.0,0.0,0.0,0.0,0.0,0.0,0.0,0.0,0.0,0.0,0.0,0.0,0.0,0.0,0.0,0.0,0.0,0.0,0.0,0.0,0.0,0.0,0.0,0.0,0.0,0.0,0.0,0.0,0.0,0.0,0.0,0.0,0.0,0.0,0.0,0.0,0.0,0.0,0.0,0.0,0.0,0.0,0.0,0.0,0.0,0.0,0.0,0.0,0.0,0.0,0.0,0.0,0.0,0.0,0.0,0.0,0.0,0.0,0.0,0.0,0.0,-1.045,-1.0073,-0.9899,-1.0156,-0.8712,-0.7331,-0.644,-0.5807,-0.4529,-0.2307,0.0,0.0,0.0,0.0,0.0,0.0,0.0,0.0,0.0,0.0,0.0,0.0,0.0,0.0,0.0,0.0,0.0,0.0,0.0,0.0,0.0,0.0,0.0,0.0,0.0,0.0,0.0,0.0,0.0,0.0,0.0,0.0,0.0,0.0,0.0,0.0,0.0,0.0,0.0,0.0,0.0,0.0,0.0,0.0,0.0,0.0,0.0,0.0,0.0,0.0,0.0,0.0,0.0,0.0,0.0,0.0,0.0,0.0,0.0,0.0,0.0,0.0,0.0,0.0,0.0,0.0,0.0,0.0,0.0,0.0,0.0,0.0,0.0,0.0,0.0,0.0,0.0,0.0,0.0,0.0,0.0,0.0,0.0,0.0,0.0,0.0,0.0,0.0,0.0,0.0,0.0,0.0,0.0,0.0,0.0,0.0,0.0,0.0,0.0,0.0,0.0,0.0,-1.0549,-1.0436,-1.0425,-1.0679,-0.9013,-0.783,-0.7723,-0.6659,-0.5465,-0.4119,0.0,0.0,0.0,0.0,0.0,0.0,0.0,0.0,0.0,0.0,0.0,0.0,0.0,0.0,0.0,0.0,0.0,0.0,0.0,0.0,0.0,0.0,0.0,0.0,0.0,0.0,0.0,0.0,0.0,0.0,0.0,0.0,0.0,0.0,0.0,0.0,0.0,0.0,0.0,0.0,0.0,0.0,0.0,0.0,0.0,0.0,0.0,0.0,0.0,0.0,0.0,0.0,0.0,0.0,0.0,0.0,0.0,0.0,0.0,0.0,-0.0123,-0.1707,0.0,0.0,0.0,0.0,0.0,0.0,0.0,0.0,0.0,0.0,0.0,0.0,0.0,0.0,0.0,0.0,0.0,0.0,0.0,0.0,0.0,0.0,0.0,0.0,0.0,0.0,0.0,0.0,0.0,0.0,0.0,0.0,0.0,0.0,0.0,0.0,0.0,0.0,0.0,0.0,-0.9181,-1.0233,-1.0757,-1.0077,-0.9599,-0.8928,-0.7771,-0.6862,-0.6162,-0.5852,-0.3906,0.0,0.0,0.0,0.0,0.0,0.0,0.0,0.0,0.0,0.0,0.0,0.0,0.0,0.0,0.0,0.0,0.0,0.0,0.0,0.0,0.0,0.0,0.0,0.0,0.0,0.0,0.0,0.0,0.0,0.0,0.0,0.0,0.0,0.0,0.0,0.0,0.0,0.0,0.0,0.0,0.0,0.0,0.0,0.0,0.0,0.0,0.0,0.0,0.0,0.0,0.0,0.0,0.0,0.0,0.0,0.0,0.0,0.0,0.0,-0.429,-0.6057,0.0,0.0,0.0,0.0,0.0,0.0,0.0,0.0,0.0,0.0,0.0,0.0,0.0,0.0,0.0,0.0,0.0,0.0,0.0,0.0,0.0,0.0,0.0,0.0,0.0,0.0,0.0,0.0,0.0,0.0,0.0,0.0,0.0,0.0,0.0,0.0,0.0,0.0,0.0,0.0,-0.8881,-0.9826,-1.0316,-0.9843,-0.951,-0.9047,-0.8315,-0.7379,-0.6712,-0.6493,-0.4758,0.0,0.0,0.0,0.0,0.0,0.0,0.0,0.0,0.0,0.0,0.0,0.0,0.0,0.0,0.0,0.0,0.0,0.0,0.0,0.0,0.0,0.0,0.0,0.0,0.0,0.0,0.0,0.0,0.0,0.0,0.0,0.0,0.0,0.0,0.0,0.0,0.0,0.0,0.0,0.0,0.0,0.0,0.0,0.0,0.0,0.0,0.0,0.0,0.0,0.0,0.0,0.0,0.0,0.9801,0.8186,0.5038,0.2246,-0.1153,-0.498,-0.7148,-0.974,-1.2556,-1.4012,0.0,0.0,0.0,0.0,0.0,0.0,0.0,0.0,0.0,0.0,0.0,0.0,0.0,0.0,0.0,0.0,0.0,0.0,0.0,0.0,0.0,0.0,-1.6848,-1.7152,-1.5868,-1.4068,-1.2025,0.0,0.0,0.0,0.0,0.0,0.0,0.0,0.0,0.0,0.0,0.0,-0.9031,-0.957,-0.9917,-0.9814,-0.9204,-0.8745,-0.8646,-0.7633,-0.6845,-0.6533,-0.5285,-0.4288,0.0,0.0,0.0,0.0,0.0,0.0,0.0,0.0,0.0,0.0,0.0,0.0,0.0,0.0,0.0,0.0,0.0,0.0,0.0,0.0,0.0,0.0,0.0,0.0,0.0,0.0,0.0,0.0,0.0,0.0,0.0,0.0,-0.1915,-0.6549,0.0,0.0,0.0,0.0,0.0,0.0,0.0,0.0,0.0,0.0,0.0,0.0,0.0,0.8052,1.5298,1.6362,1.7827,1.9566,1.6604,1.4401,1.2746,0.7695,0.3843,0.0776,-0.5578,0.0,-1.5437,-1.6325,0.0,0.0,0.0,0.0,0.0,0.0,0.0,0.0,0.0,0.0,0.0,0.0,0.0,0.0,0.0,0.0,0.0,0.0,0.0,0.0,0.0,0.0,-1.9394,-1.7684,-1.6143,-1.4583,-1.3015,-1.148,-1.0311,-1.0046,-0.9992,-0.9777,0.0,0.0,0.0,0.0,0.0,0.0,-0.8815,-0.9954,-1.0466,-0.9865,-0.9169,-0.8488,-0.7883,-0.6548,-0.5894,-0.6218,-0.5087,-0.4428,-0.4471,-0.4133,0.0,0.0,0.0,0.0,0.0,0.0,0.0,0.0,0.0,0.0,0.0,0.0,0.0,0.0,0.0,0.0,0.0,0.0,0.0,0.0,0.0,0.0,0.0,0.0,0.0,0.0,0.0,0.0,0.0,0.1199,-0.4268,-0.7093,-1.0094,-1.1661,0.0,0.0,0.0,0.0,0.0,0.0,0.0,0.0,0.0,-0.2271,-0.2168,0.1615,0.9542,1.837,2.1659,1.9424,1.902,1.8545,1.7962,1.5597,0.7495,-0.4865,-0.7509,-1.3729,-2.1963,-2.0714,-1.9857,-1.9316,0.0,0.0,0.0,0.0,-2.0407,-2.1347,-2.1943,-2.1783,-2.1345,-2.1692,0.0,0.0,0.0,0.0,0.0,0.0,0.0,-1.9426,-1.9179,-1.9084,-1.8631,-1.6902,-1.5033,-1.3256,-1.2006,-1.053,-0.9589,-0.9975,-1.0466,-1.0365,-0.9037,-0.8415,0.0,0.0,0.0,-0.799,-0.8545,-0.8866,-0.8967,-0.8659,-0.7966,-0.7379,-0.7128,-0.6086,-0.5569,-0.5695,-0.4825,-0.4447,-0.4857,-0.4538,-0.3816,0.0,0.0,0.0,0.0,0.0,0.0,0.0,0.0,0.0,0.0,0.0,0.0,0.0,0.0,0.0,0.0,0.0,0.0,0.0,0.0,0.0,0.0,0.0,0.0,0.0,0.0,0.0,0.0,-0.0024,-0.5806,-0.8329,-1.3155,-1.5925,0.0,0.0,0.0,0.0,0.0,0.0,-1.1003,-1.4508,-1.3829,-0.8017,-0.8416,-0.4978,0.2865,1.9448,2.5351,2.0628,2.2639,2.3695,2.3857,2.3505,1.4231,-0.1914,-0.8935,-1.6105,-2.2851,-2.3634,-2.363,-2.3203,-2.3701,-2.3611,-2.334,-2.4277,-2.4133,-2.3855,-2.6419,-2.6615,-2.5621,-2.5029,-2.426,-2.3126,-2.0923,0.0,0.0,0.0,0.0,-1.9938,-1.9651,-1.8592,-1.7222,-1.573,-1.3781,-1.2018,-1.0987,-0.9855,-0.9131,-0.9533,-1.0295,-1.0401,-0.8832,-0.8518,0.0,-0.7489,-0.7452,-0.7598,-0.7923,-0.7658,-0.7402,-0.7402,-0.6745,-0.6312,-0.6312,-0.5655,-0.5217,-0.5092,-0.4527,-0.4397,-0.4864,-0.4776,-0.4558,-0.4167,0.0,0.0,0.0,0.0,0.0,0.0,0.0,0.0,0.0,0.0,0.0,0.0,0.0,0.0,0.0,0.0,0.0,0.0,0.0,0.0,0.0,0.0,0.0,0.0,0.0,0.0,0.0,0.0,0.0,-1.1857,-1.5463,0.0,0.0,0.0,0.0,-1.7535,-1.8663,-2.0063,-2.1816,-2.3284,-2.2678,-1.9656,-1.3956,-0.7759,-0.1186,2.0041,2.9868,2.8277,3.0036,3.1236,3.1864,3.0339,2.6841,2.0404,-0.8202,-1.7213,-1.2534,-2.3239,-2.723,-2.673,-2.8595,-2.872,-2.7861,-2.792,-2.7652,-2.7258,-2.7508,-2.7489,-2.7388,-2.74,-2.6711,-2.5663,-2.4773,-2.4388,0.0,0.0,-2.2128,-2.1179,-1.9487,-1.7798,-1.6112,-1.4345,-1.286,-1.1695,-1.0854,-1.0136,-0.9516,-0.8957,-0.9112,-0.9136,-0.8504,0.0,-0.7773,-0.7374,-0.6828,-0.6525,-0.6651,-0.6686,-0.6642,-0.6642,-0.5982,-0.5542,-0.5542,-0.4948,-0.457,-0.4563,-0.4324,-0.4239,-0.4264,-0.4768,-0.4933,-0.4571,-0.4618,0.0,0.0,0.0,0.0,0.0,0.0,0.0,0.0,0.0,0.0,0.0,0.0,0.0,0.0,0.0,0.0,0.0,0.0,0.0,0.0,0.0,0.0,0.0,0.0,0.0,0.0,0.0,0.0,-1.1367,-1.7057,0.0,-2.0259,-2.0298,-2.0431,-2.0695,-2.1801,-2.2883,-2.3821,-2.5351,-2.4652,-2.1225,-2.3009,-1.6461,-0.0654,2.0762,3.1109,3.0377,3.2119,3.3087,3.3267,3.1459,2.479,1.3909,-0.0305,-0.9538,-1.5288,-2.4535,-2.9025,-3.0088,-3.0036,-3.0386,-3.0877,-3.0566,-2.9998,-2.9449,-3.0037,-2.9355,-2.8,-2.6726,-2.5867,-2.5141,-2.4085,-2.3394,-2.2777,-2.1739,-2.0629,-1.9475,-1.8134,-1.6752,-1.5369,-1.3979,-1.2584,-1.138,-1.0838,-1.0186,-0.9619,-0.9412,-0.9452,-0.9363,-0.877,-0.8332,-0.7921,-0.7377,-0.6853,-0.6551,-0.6578,-0.6204,-0.5873,-0.5873,-0.5277,-0.4838,-0.4838,-0.4625,-0.4519,-0.4519,-0.4691,-0.4912,-0.5198,-0.5676,-0.5739,-0.5314,-0.5171,-0.43,0.0,0.0,0.0,0.0,0.0,0.0,0.0,0.0,0.0,0.0,0.0,0.0,0.0,0.0,0.0,0.0,0.0,0.0,0.0,0.0,0.0,0.0,0.0,0.0,0.0,-0.2116,-0.8815,-1.1939,-1.8084,-2.1913,-2.1464,-2.2191,-2.256,-2.2307,-2.3529,-2.453,-2.5094,-2.6865,-2.6891,-2.478,-2.8001,-2.343,-1.0247,1.0615,2.4082,3.0005,3.3075,3.4405,3.4113,3.2056,2.5222,1.4528,0.6628,-0.2655,-1.2961,-2.2732,-2.8662,-3.1508,-3.1023,-3.1468,-3.2342,-3.2096,-3.168,-3.1257,-3.1324,-3.0115,-2.8253,-2.6596,-2.5558,-2.4746,-2.3699,-2.2547,-2.1486,-2.0841,-1.9402,-1.7812,-1.6924,-1.5854,-1.4625,-1.3277,-1.2214,-1.1323,-1.0768,-1.0324,-0.998,-0.998,-0.982,-0.9495,-0.8767,-0.8459,-0.7919,-0.6961,-0.6549,-0.6229,-0.5946,-0.5441,-0.5164,-0.5164,-0.4787,-0.4519,-0.4519,-0.4519,-0.4519,-0.4519,-0.4691,-0.496,-0.524,-0.5604,-0.5679,-0.5381,-0.5034,-0.4285,-0.3079,0.0,0.0,0.0,0.0,0.0,0.0,0.0,0.0,0.0,0.0,0.0,0.0,0.0,0.0,0.0,0.0,0.0,0.0,0.0,0.0,0.0,0.0,0.0,0.4366,-0.2417,-0.8948,-1.4012,-1.8603,-2.1252,-2.0977,-2.1629,-2.2224,-2.2506,-2.4169,-2.5527,-2.6318,-2.8243,-2.9894,-3.1071,-2.8534,-2.8069,-2.9951,-1.0438,0.8449,2.6322,3.2457,3.4942,3.4141,3.2357,2.9256,2.462,1.1775,0.2496,-0.4591,-1.7726,-2.618,-3.0976,-3.1769,-3.2212,-3.2393,-3.2591,-3.2746,-3.2657,-3.113,-2.96,-2.817,-2.7201,-2.5894,-2.4507,-2.376,-2.2153,-2.0532,-2.0453,-1.8589,-1.6494,-1.6058,-1.5037,-1.3761,-1.2228,-1.1794,-1.1545,-1.0758,-1.0631,-1.0624,-1.0624,-1.01,-0.9467,-0.8551,-0.8369,-0.781,-0.6094,-0.578,0.0,-0.4598,-0.4525,-0.4522,-0.4519,-0.4519,-0.4519,-0.4519,-0.4519,-0.4519,-0.4519,-0.4324,-0.4243,-0.4246,-0.4536,-0.4722,-0.4722,-0.4218,-0.3684,-0.3104,0.0,0.0,0.0,0.0,0.0,0.0,0.0,0.0,0.0,0.0,0.0,0.0,0.0,0.0,0.0,0.0,0.0,0.0,0.0,0.0,0.0,1.3346,0.7824,0.2125,-0.4249,-1.0638,-1.6952,-1.9134,-2.0671,-2.2019,-2.3215,-2.4298,-2.529,-2.6246,-2.7026,-2.765,-2.931,-3.0672,-3.1644,-3.233,-3.1616,-2.937,-1.8934,-1.0245,-0.315,1.325,2.024,1.8991,2.6504,2.8526,2.5378,1.2262,0.2978,-0.3757,-1.6394,-2.5228,-3.0854,-3.1706,-3.2884,-3.4105,-3.4124,-3.3268,-3.177,-2.9366,-2.7601,-2.6243,-2.4879,-2.3083,-2.1277,-2.0263,-1.8654,-1.715,-1.6675,-1.5657,-1.4641,-1.4483,-1.3786,-1.3022,-1.257,-1.1804,-1.1187,-1.094,-1.0708,-1.0624,-1.0624,-1.049,-0.9995,-0.8908,-0.826,-0.7456,-0.6122,-0.5505,-0.5036,-0.4704,-0.4626,-0.4585,-0.4529,-0.4519,-0.4519,-0.4519,-0.4519,-0.4519,-0.4519,-0.4636,-0.4735,-0.4856,-0.511,-0.5088,-0.4722,-0.3968,-0.3331,0.0,0.0,0.0,0.0,0.0,0.0,0.0,0.0,0.0,0.0,0.0,0.0,0.0,0.0,0.0,0.0,0.0,0.0,0.0,0.0,0.0,0.0,1.531,0.9316,0.3691,-0.4347,-1.2052,-1.8472,-2.0267,-2.1518,-2.287,-2.4366,-2.5674,-2.6741,-2.7784,-2.8749,-2.9576,-3.0681,-3.1794,-3.2798,-3.326,-3.2734,-3.1138,-2.6493,-2.1698,-1.6694,-0.3196,0.4378,0.6748,1.6086,1.9702,1.8044,0.8958,0.1246,-0.5679,-1.6698,-2.5307,-3.1601,0.0,0.0,0.0,0.0,-3.2606,-3.0739,-2.8002,-2.6155,-2.4646,-2.2751,-2.0827,-1.9039,-1.7936,-1.6651,-1.5596,-1.5668,-1.4932,-1.4171,-1.4246,-1.3478,-1.2586,-1.2241,-1.135,-1.0625,-1.1109,-1.0607,-1.0277,-1.067,-1.0379,0.0,-0.8674,-0.8138,-0.7312,-0.5825,-0.525,-0.4955,-0.4806,-0.4785,-0.4728,-0.4575,-0.4558,-0.4587,-0.4522,-0.4519,0.0,0.0,0.0,-0.463,-0.4649,-0.4804,0.0,0.0,0.0,0.0,0.0,-0.424,0.0,0.0,-0.3062,-0.3109,0.0,0.0,0.0,0.0,0.0,0.0,0.0,0.0,0.0,0.0,0.0,0.0,0.0,0.0,0.0,0.0,1.7736,1.182,0.7134,-0.3433,-1.2887,-1.8794,-2.1506,-2.3203,-2.3985,-2.5636,-2.6968,-2.7715,-2.9242,-3.0593,-3.1708,-3.2274,0.0,0.0,0.0,-3.2934,-3.4361,-3.2887,-2.8562,-2.1468,-1.6553,-1.0718,-0.4008,0.348,0.6979,0.6867,0.3006,-0.2527,-0.9391,-1.843,-2.6483,-3.3029,-3.2508,-3.31,-3.3985,-3.2542,-3.1094,-2.9431,-2.6755,0.0,0.0,-2.0818,-1.8937,-1.7377,-1.639,-1.5598,-1.5234,-1.607,-1.5341,-1.447,-1.4539,-1.3637,-1.2485,-1.1661,-1.0723,-1.02,-1.1119,-1.0344,-0.9813,-1.0704,-1.008,-0.9051,-0.8192,-0.7912,-0.7247,-0.5428,-0.5155,-0.5104,-0.4962,-0.4945,-0.4884,-0.4731,-0.4701,0.0,-0.4442,-0.447,-0.446,-0.4405,-0.4287,-0.4153,-0.4053,-0.406,-0.4407,-0.5125,-0.5125,-0.5457,-0.6062,-0.6185,-0.5859,-0.5112,-0.4062,-0.4089,0.0,0.0,0.0,0.0,0.0,0.0,0.0,0.0,0.0,0.0,0.0,0.0,0.0,0.0,0.0,2.4283,2.0192,1.444,0.728,-0.2728,-1.1539,-1.763,-2.1801,-2.4893,-2.6513,-2.848,-3.0159,-3.132,-3.2134,-3.2629,-3.2647,-3.3694,-3.4576,-3.5128,-3.5825,-3.6542,-3.728,-3.6431,-3.5741,-3.5056,-2.3489,0.0,-1.7071,-0.4846,0.1641,0.2858,-0.423,-0.9238,-1.3139,-2.2046,-2.9277,-3.4724,-3.4497,-3.3725,-3.2506,-3.074,-2.8968,-2.7087,-2.4523,-2.2506,-2.0757,-1.8979,-1.7154,-1.5562,-1.4498,-1.4083,0.0,-1.4235,-1.4045,-1.3856,-1.3863,-1.3172,-1.2349,-1.2204,-1.1213,-1.0331,-1.0545,-1.0195,-0.9874,-1.0081,-0.9811,-0.9374,-0.8492,-0.7546,-0.658,-0.5515,-0.5318,-0.526,-0.5108,-0.5091,-0.5033,-0.4891,-0.4765,-0.4442,-0.3834,-0.4191,-0.4236,-0.3624,-0.4155,-0.4355,-0.4157,-0.4314,-0.4691,-0.5225,-0.5272,-0.5296,-0.5336,-0.5997,-0.5984,-0.5268,-0.4906,-0.4874,0.0,0.0,0.0,0.0,0.0,0.0,0.0,0.0,0.0,0.0,0.0,2.1542,2.3164,0.0,2.5634,2.5095,2.035,1.4417,0.769,-0.3471,-1.3186,-1.9143,-2.3858,-2.7292,-2.8915,-3.0801,-3.2127,-3.2561,-3.3914,-3.4539,-3.4221,-3.5187,-3.5988,-3.6519,-3.7404,-3.8089,-3.8614,-3.8623,-3.8767,-3.8897,-3.1806,-2.8434,-2.8186,-1.8009,-1.1977,-0.9707,-1.3829,-1.667,-1.9159,-2.8358,-3.3453,-3.5395,-3.4658,-3.3545,-3.2118,-2.9802,-2.7399,-2.4946,-2.2606,-2.0497,-1.8686,-1.742,-1.5978,-1.4498,-1.3548,-1.3799,-1.445,-1.445,-1.4807,-1.5013,-1.4593,-1.3738,-1.2879,-1.2445,-1.1439,-1.0595,-1.0595,-1.039,-1.0137,-1.0137,-1.0008,-0.9593,-0.8576,-0.718,-0.5888,-0.4827,-0.4686,-0.4527,-0.3936,-0.3929,-0.3823,-0.3721,-0.3658,-0.3418,-0.2943,-0.3553,-0.3972,-0.3962,-0.4294,-0.4429,-0.4358,-0.4747,-0.5287,-0.5947,-0.6317,-0.6629,-0.6968,-0.7413,-0.7211,-0.6523,-0.6406,-0.6406,0.0,0.0,0.0,0.0,0.0,0.0,0.0,1.9433,1.9973,2.1377,2.2364,2.3304,2.4404,2.555,2.5838,2.441,1.9233,1.3342,0.7306,-0.4151,-1.4255,-2.0545,-2.611,-2.9931,-3.122,-3.284,-3.3746,-3.3569,-3.5171,-3.6033,-3.5811,-3.6411,-3.7061,-3.7723,-3.8182,-3.8672,-3.9199,-3.9671,-3.9577,-3.886,-3.8024,-3.687,-3.5318,-2.9569,-2.5051,-2.1872,-2.2335,-2.3606,-2.5992,-3.3733,-3.6145,-3.4797,-3.3537,-3.2204,-3.0733,-2.8382,-2.5608,-2.2698,-2.0695,-1.8695,-1.6897,-1.6135,-1.514,-1.4109,-1.314,-1.4022,-1.5262,-1.5262,-1.578,-1.614,-1.5376,-1.4314,-1.3244,-1.2445,-1.1391,-1.049,-1.049,-1.0183,-0.9969,-1.0115,-1.0064,-0.962,-0.8727,-0.6992,-0.5395,-0.4167,-0.3882,-0.348,-0.2811,-0.2678,-0.2656,-0.2533,-0.2515,-0.2476,-0.2463,-0.2924,-0.3532,-0.4458,-0.4532,-0.457,-0.4677,-0.5218,-0.5923,-0.6804,-0.7396,-0.7996,-0.8593,-0.8752,-0.8427,-0.7723,-0.783,-0.783,1.9798,1.9726,1.9713,1.9885,1.8843,1.8577,0.0,2.0715,1.9809,2.2096,2.2154,2.185,2.2063,2.1915,2.1378,2.0327,1.7131,1.2158,0.4526,-0.2986,-1.0719,-1.8934,-2.7076,-3.2433,-3.3536,-3.4623,-3.555,-3.6205,-3.6274,-3.6464,-3.6896,-3.701,-3.7312,-3.7858,-3.821,-3.8785,-3.9542,-3.9146,-3.8785,-3.8469,-3.7453,-3.6121,-3.4405,-3.2175,-2.8698,-2.4404,-2.5702,-2.8622,-3.2476,-3.4037,-3.3634,-3.195,-3.1062,-2.8641,-2.567,-2.509,-2.3038,-2.0209,-1.8309,-1.6989,-1.5992,-1.5096,-1.4694,-1.4362,-1.3461,-1.4295,-1.556,-1.556,-1.5474,-1.5305,-1.5234,-1.3803,-1.2445,-1.2298,-1.0875,-0.9448,-0.9448,-0.8746,-0.8353,-0.9261,-0.9295,-0.9207,-0.9031,-0.7199,-0.537,-0.418,-0.3345,-0.2811,-0.2744,-0.2678,-0.2674,-0.2667,-0.2544,-0.2732,-0.3388,-0.2745,-0.2982,-0.4548,-0.4594,-0.4787,-0.5378,-0.5487,-0.614,-0.7563,-0.767,-0.7723,-0.783,-0.848,-0.8427,-0.7723,-0.8374,-0.8321,2.2633,2.1776,2.0978,2.188,2.0708,1.978,2.1519,2.079,2.0049,2.1158,2.1313,2.1192,2.0983,2.0745,1.9712,1.6967,1.3692,0.9112,0.2149,-0.4359,-1.071,-1.6894,-2.256,-2.735,-3.0951,-3.2004,-3.3101,-3.4604,-3.552,-3.6036,-3.6104,-3.6922,-3.7389,-3.7424,-3.7749,-3.8118,-3.8435,-3.7835,-3.7218,-3.6622,-3.5786,-3.4856,-3.3874,-3.2772,-3.1451,-3.0008,-3.0114,-3.1291,-3.3077,-3.248,-3.1119,-2.9224,-2.7421,-2.5199,-2.3083,-2.332,-2.1306,-1.8406,-1.8285,-1.6768,-1.5058,-1.5854,-1.5165,-1.3922,-1.3541,-1.4621,-1.5855,-1.5185,-1.5684,-1.6062,-1.4903,-1.3887,-1.2952,-1.2445,-1.1242,-1.004,-0.9448,-0.8998,-0.8765,-0.9221,-0.9739,-0.9843,-0.9197,-0.7911,-0.6101,-0.3738,-0.2495,-0.1707,-0.1212,-0.1141,-0.1141,-0.1141,-0.1064,-0.1566,-0.2847,-0.262,-0.307,-0.4707,-0.468,-0.4929,-0.5651,-0.5991,-0.6632,-0.767,-0.8103,-0.8321,-0.8321,-0.8646,-0.8646,-0.8368,-0.8646,-0.8646,2.3528,2.2519,2.1665,2.2192,2.1096,1.9958,2.0302,1.9953,1.9641,1.9901,1.9997,1.9952,1.9653,1.8933,1.7185,1.3612,1.0058,0.5747,-0.0074,-0.5032,-0.9713,-1.4131,-1.6637,-2.0113,-2.559,-2.8049,-3.0232,-3.2602,-3.4031,-3.4876,-3.5078,-3.6111,-3.664,-3.6558,-3.6642,-3.6746,-3.6895,-3.6295,-3.5658,-3.5064,-3.4426,-3.3808,-3.3287,-3.2841,-3.2966,-3.3532,-3.257,-3.1914,-3.1399,-3.0113,-2.8236,-2.5985,-2.3944,-2.2039,-2.0539,-2.0696,-1.9102,-1.6839,-1.7479,-1.6124,-1.4334,-1.5876,-1.5233,-1.3768,-1.3768,-1.4729,-1.5769,-1.4937,-1.5535,-1.601,-1.4605,-1.3778,-1.3171,-1.2445,-1.1539,-1.0484,-0.9523,-0.9069,-0.8993,-0.9221,-0.9895,-1.0135,-0.93,-0.8351,-0.6718,-0.3821,-0.2239,-0.106,-0.0137,0.0,0.0,0.0,0.0,-0.0601,-0.2019,-0.2389,-0.312,-0.4485,-0.4949,-0.5424,-0.6059,-0.6703,-0.7361,-0.7996,-0.8533,-0.8804,-0.8804,-0.8593,-0.8632,-0.8925,-0.871,-0.8803,2.1379,2.1476,2.1777,2.0045,1.895,1.8259,1.8267,1.8141,1.8103,1.8653,1.8163,1.7675,1.7698,1.5428,1.267,0.994,0.6588,0.2662,-0.2294,-0.4006,-0.6298,-1.0381,-1.0013,-1.1663,-1.7314,-2.3222,-2.8027,-3.1196,-3.1981,-3.2897,-3.4262,-3.4397,-3.4638,-3.5142,-3.4685,-3.4638,-3.5159,-3.4638,-3.436,-3.4329,-3.3856,-3.3287,-3.2641,-3.2602,-3.2779,-3.3039,-3.1868,-3.0133,-2.8119,-2.6963,-2.4743,-2.206,-2.0958,-1.9261,-1.7326,-1.625,-1.5846,-1.5613,-1.4573,-1.4166,-1.4088,-1.4166,-1.4166,-1.4075,-1.4075,-1.4585,-1.5123,-1.513,-1.4662,-1.4313,-1.4238,-1.3259,-1.2372,-1.2305,-1.1539,-1.0484,-0.9523,-0.8542,-0.8161,-0.9145,-0.9296,-0.9372,-0.9286,-0.8415,-0.6972,-0.4975,-0.2935,-0.1185,-0.0141,0.0,0.0,0.0,0.0,-0.0336,-0.1272,-0.2025,-0.2889,-0.3776,-0.5272,-0.6366,-0.6857,-0.77,-0.8373,-0.8758,-0.8804,-0.8804,-0.8804,-0.8103,-0.8232,-0.917,-0.849,-0.8752,2.0824,1.9607,1.8655,1.8272,1.6965,1.6133,1.7478,1.7384,1.7159,1.7818,1.7472,1.6852,1.6177,1.461,1.2102,0.8084,0.4879,0.1554,-0.2549,-0.459,-0.6458,-0.8514,-0.903,-1.0733,-1.4509,-1.807,-2.2223,-2.7103,-2.8033,-2.8982,-3.0362,-3.1488,-3.2014,-3.1695,-3.252,-3.3038,-3.3246,-3.3216,-3.3377,-3.3751,-3.3599,-3.3432,-3.3228,-3.3228,-3.3259,-3.3261,-3.1647,-2.9777,-2.7736,-2.6091,-2.3896,-2.1293,-1.947,-1.8177,-1.709,-1.5311,-1.4657,-1.4657,-1.5054,-1.4734,-1.425,-1.4894,-1.465,-1.4088,-1.4088,-1.474,-1.5375,-1.4662,-1.4676,-1.4836,-1.4543,-1.357,-1.277,-1.3148,-1.1977,-1.0484,-0.9523,-0.8542,-0.7936,-0.8237,-0.8841,-0.9296,-0.9296,-0.8978,-0.7836,-0.5133,-0.2898,-0.1238,-0.0141,0.0,0.0,0.0,0.0,-0.0337,-0.1207,-0.2125,-0.3037,-0.3891,-0.5438,-0.663,-0.7285,-0.8036,-0.8788,-0.9392,-0.9385,-0.9385,-0.9385,-0.8569,-0.8327,-0.864,-0.783,-0.764,2.0128,1.8479,1.7001,1.6779,1.5945,1.5563,1.6892,1.7257,1.7368,1.7679,1.7571,1.7144,1.6137,1.4569,1.2174,0.8246,0.4836,0.1453,-0.2086,-0.4057,-0.5718,-0.7173,-0.7557,-0.9076,-1.2432,-1.3742,-1.6986,-2.3256,-2.4505,-2.5746,-2.7624,-2.8713,-2.9383,-2.9643,-3.0264,-3.0906,-3.1596,-3.1944,-3.2573,-3.349,-3.3502,-3.3499,-3.3499,-3.3499,-3.3434,-3.3299,-3.1917,-3.0119,-2.7986,-2.6252,-2.4148,-2.1809,-1.9506,-1.8152,-1.7351,-1.5347,-1.4412,-1.4166,-1.4894,-1.465,-1.425,-1.4894,-1.465,-1.4088,-1.4088,-1.4573,-1.4977,-1.4328,-1.4352,-1.4619,-1.4338,-1.359,-1.3013,-1.3414,-1.2605,-1.1359,-1.0198,-0.9489,-0.9009,-0.8927,-0.9367,-0.982,-0.982,-0.9523,-0.8406,-0.5639,-0.4129,-0.2573,-0.0785,-0.0564,-0.0418,-0.0069,0.0,-0.0337,-0.1207,-0.2143,-0.3078,-0.3949,-0.5895,-0.7147,-0.7509,-0.8529,-0.9309,-0.9686,-0.9686,-0.9563,-0.9259,-0.8416,-0.8049,-0.8072,-0.7234,-0.7035,1.9234,1.8007,1.6669,1.5538,1.5901,1.6513,1.6595,1.7709,1.8577,1.8139,1.84,1.8387,1.7375,1.5311,1.2848,1.0084,0.6195,0.2325,-0.1077,-0.2419,-0.3944,-0.6141,-0.5594,-0.6743,-1.0919,-1.0498,-1.2857,-1.9778,-2.1458,-2.3259,-2.594,-2.6002,-2.6878,-2.8798,-2.7956,-2.8343,-3.0251,-3.1007,-3.2094,-3.3544,-3.3589,-3.3604,-3.3604,-3.3604,-3.348,-3.3215,-3.258,-3.1075,-2.8948,-2.7247,-2.539,-2.3391,-2.079,-1.9076,-1.7921,-1.642,-1.5151,-1.4173,-1.425,-1.4173,-1.4088,-1.4088,-1.4088,-1.4088,-1.4088,-1.4088,-1.4088,-1.4088,-1.3881,-1.3661,-1.3647,-1.344,-1.3227,-1.3292,-1.3206,-1.2811,-1.1504,-1.1212,-1.1135,-1.0784,-1.0795,-1.0783,-1.0783,-1.004,-0.8675,-0.6667,-0.6287,-0.5194,-0.2051,-0.171,-0.1263,-0.0281,-0.0137,-0.0472,-0.1274,-0.2209,-0.3145,-0.3949,-0.6515,-0.7866,-0.7529,-0.9199,-1.0007,-0.9733,-0.9726,-0.9304,-0.8457,-0.7682,-0.7375,-0.7456,-0.671,-0.6876,1.7564,1.6099,1.4914,1.497,1.5581,1.6468,1.7775,1.8374,1.8946,1.9851,1.94,1.8733,1.8362,1.7051,1.4672,1.0766,0.8149,0.4918,0.0236,-0.2074,-0.3786,-0.5133,-0.6542,-0.8102,-1.0085,-1.0985,-1.2862,-1.6419,-1.8355,-2.0441,-2.2864,-2.3754,-2.5109,-2.7095,-2.6777,-2.7736,-3.0051,-3.2451,-3.385,-3.4233,-3.4741,-3.4996,-3.4996,-3.4996,-3.4942,-3.4815,-3.3906,-3.2776,-3.1343,-2.9478,-2.7287,-2.4818,-2.2621,-2.068,-1.9032,-1.7854,-1.6498,-1.5379,-1.6198,-1.547,-1.4088,-1.4088,-1.4088,-1.4088,-1.4088,-1.4088,-1.4088,-1.4088,-1.4035,-1.4088,-1.4572,-1.4142,-1.3628,-1.4095,-1.3745,-1.2863,-1.1817,-1.1561,-1.1248,-1.0202,-1.0388,-1.0783,-1.0783,-1.0559,-0.9959,-0.8675,-0.7842,-0.6232,-0.3149,-0.275,-0.2554,-0.2175,-0.2153,-0.2194,-0.2347,-0.3145,-0.3747,-0.4015,-0.6515,-0.7936,-0.7876,-0.9542,-1.0414,-1.0403,-1.0403,-0.9955,-0.9068,-0.8233,-0.7496,-0.6905,-0.6013,-0.5778,1.7322,1.6467,1.5714,1.543,1.6507,1.7763,1.8482,1.9082,1.9509,1.9749,1.9817,1.9398,1.8072,1.6816,1.492,1.1711,0.8777,0.5773,0.2414,-0.0319,-0.2444,-0.405,-0.5756,-0.7552,-0.9308,-1.01,-1.1517,-1.385,-1.6405,-1.8916,-2.1126,-2.2275,-2.3897,-2.6122,-2.6144,-2.7588,-3.074,-3.3279,-3.4622,-3.4936,-3.5325,-3.5504,-3.5504,-3.5504,-3.5504,-3.5439,-3.4905,-3.4052,-3.2947,-3.0982,-2.9048,-2.7027,-2.432,-2.2138,-2.0391,-1.868,-1.6984,-1.5703,-1.5876,-1.5151,-1.4166,-1.4657,-1.4489,-1.4088,-1.4088,-1.4088,-1.4088,-1.4088,-1.4088,-1.4216,-1.4524,-1.4241,-1.3877,-1.4258,-1.3987,-1.3391,-1.2681,-1.2494,-1.2246,-1.1412,-1.1455,-1.1646,-1.1646,-1.1546,-1.0944,-0.9523,-0.9216,-0.8174,-0.5506,-0.4397,-0.3581,-0.3045,-0.3004,-0.3106,-0.3472,-0.3844,-0.4295,-0.4707,-0.6762,-0.8027,-0.8027,-0.9646,-1.0624,-1.0624,-1.0238,-0.9588,-0.8748,-0.7827,-0.6985,-0.6141,-0.562,-0.5428,1.8132,1.7996,1.7883,1.6719,1.8027,1.9444,1.8971,1.9535,1.986,1.8917,1.9758,1.9974,1.7583,1.6161,1.4817,1.3212,0.9695,0.6638,0.5072,0.2526,-0.0082,-0.2566,-0.406,-0.5933,-0.8428,-0.8803,-0.9836,-1.2151,-1.5162,-1.7848,-2.011,-2.1084,-2.2821,-2.5498,-2.6226,-2.8298,-3.1765,-3.3652,-3.4906,-3.5504,-3.5504,-3.5504,-3.5504,-3.5504,-3.5504,-3.5504,-3.5504,-3.4986,-3.4013,-3.2055,-3.055,-2.9133,-2.5842,-2.3443,-2.1607,-1.9217,-1.7357,-1.6026,-1.5061,-1.4573,-1.4412,-1.5213,-1.4977,-1.4328,-1.4328,-1.4412,-1.4496,-1.4496,-1.4412,-1.4328,-1.4328,-1.4166,-1.4088,-1.4088,-1.4088,-1.4015,-1.3761,-1.3592,-1.3567,-1.3313,-1.3019,-1.2876,-1.2829,-1.2457,-1.1515,-0.975,-1.0115,-0.9965,-0.8237,-0.6345,-0.4758,-0.3768,-0.3548,-0.3787,-0.4637,-0.4461,-0.4746,-0.552,-0.7096,-0.8027,-0.8027,-0.9582,-1.0428,-1.0428,-0.9594,-0.8683,-0.7832,-0.7046,-0.6268,-0.5428,-0.5428,-0.5428,1.952,1.9241,1.8935,1.8627,1.9011,1.9432,1.949,1.9155,1.9012,1.9767,1.9541,1.9215,1.9327,1.8402,1.7286,1.6336,1.453,1.1939,0.7974,0.6061,0.3617,-0.0257,-0.2621,-0.4768,-0.7176,-0.8345,-0.9836,-1.2151,-1.3736,-1.5927,-1.8882,-1.9367,-2.1063,-2.4457,-2.862,-3.1116,-3.1765,-3.412,-3.5385,-3.5504,-3.5504,-3.5504,-3.5504,-3.5504,-3.5504,-3.5504,-3.5504,-3.5424,-3.5067,-3.3157,-3.1129,-2.911,-2.6932,-2.4416,-2.1753,-2.03,-1.9232,-1.839,-1.823,-1.6927,-1.5296,-1.4573,-1.481,-1.5462,-1.5462,-1.6034,-1.6772,-1.6772,-1.6116,-1.5462,-1.5462,-1.4734,-1.4088,-1.4088,-1.4088,-1.4075,-1.4021,-1.3814,-1.3627,-1.3581,-1.3327,-1.3053,-1.2869,-1.2005,-1.1206,-1.0594,-0.9965,-0.9448,-0.9069,-0.7973,-0.7135,-0.6763,-0.5993,-0.5494,-0.5591,-0.5457,-0.5448,-0.5589,-0.7096,-0.8027,-0.8027,-0.9005,-0.953,-0.953,-0.8678,-0.7767,-0.6915,-0.6785,-0.6268,-0.5428,-0.5428,-0.5428,2.0819,2.104,2.1143,2.0831,2.0928,2.0989,2.0681,1.9872,1.9376,1.989,1.9799,1.9448,1.8851,1.8252,1.7441,1.6243,1.4776,1.2652,0.9586,0.7825,0.5533,0.2051,0.0175,-0.1947,-0.4958,-0.6367,-0.821,-1.1203,-1.248,-1.4552,-1.7831,-2.0701,-2.3321,-2.5766,-3.0,-3.2235,-3.2235,-3.4412,-3.5504,-3.5504,-3.5504,-3.5504,-3.5504,-3.5504,-3.5504,-3.5504,-3.5504,-3.5504,-3.5359,-3.3394,-3.1938,-3.0721,-2.7681,-2.5311,-2.3273,-2.0438,-1.9212,-1.8877,-1.7658,-1.6927,-1.6437,-1.5959,-1.5711,-1.5779,-1.6355,-1.6927,-1.7342,-1.7342,-1.6519,-1.5861,-1.6355,-1.5304,-1.425,-1.4817,-1.4496,-1.4088,-1.4088,-1.3975,-1.3874,-1.3874,-1.3634,-1.334,-1.3039,-1.1995,-1.11,-1.0824,-1.0415,-1.0115,-1.0115,-0.9664,-0.8944,-0.7802,-0.7195,-0.6938,-0.6857,-0.6695,-0.6769,-0.7168,-0.826,-0.8614,-0.8032,-0.8812,-0.9075,-0.8613,-0.8221,-0.7767,-0.7372,-0.6915,-0.6461,-0.6075,-0.562,-0.5428,2.2214,2.2802,2.3154,2.2669,2.2485,2.2183,2.1366,2.0343,1.9546,1.9574,1.9788,1.9641,1.8356,1.7866,1.7298,1.6311,1.4937,1.3195,1.0902,0.9663,0.7744,0.4149,0.3057,0.1062,-0.2835,-0.4238,-0.6433,-0.9995,-1.1718,-1.4021,-1.7286,-2.2109,-2.5464,-2.6898,-3.018,-3.2136,-3.2593,-3.4327,-3.5213,-3.5213,-3.5213,-3.5067,-3.4854,-3.4854,-3.4854,-3.492,-3.5067,-3.5213,-3.5052,-3.3325,-3.2437,-3.1879,-2.7882,-2.5708,-2.4344,-2.006,-1.8811,-1.9036,-1.6838,-1.6764,-1.7658,-1.79,-1.7245,-1.6593,-1.7415,-1.7819,-1.798,-1.798,-1.7245,-1.6593,-1.7415,-1.6206,-1.4985,-1.5869,-1.522,-1.4412,-1.4412,-1.4412,-1.4412,-1.4173,-1.4054,-1.3879,-1.3353,-1.217,-1.1188,-1.0912,-1.0824,-1.0783,-1.0783,-1.1013,-1.0415,-0.8609,-0.8237,-0.8084,-0.8084,-0.7979,-0.8084,-0.8639,-0.9388,-0.9304,-0.8174,-0.8766,-0.8745,-0.7771,-0.7771,-0.7681,-0.7442,-0.6915,-0.6588,-0.6396,-0.5752,-0.5428,2.3777,2.419,2.4148,2.3637,2.2628,2.1541,2.06,1.939,1.8505,1.8743,1.8789,1.8935,1.9424,1.8751,1.8358,1.8993,1.837,1.6418,1.2528,1.324,1.179,0.5499,0.4925,0.3171,-0.1509,-0.3014,-0.5222,-0.879,-1.2037,-1.5027,-1.7813,-2.1575,-2.4346,-2.587,-2.8407,-3.0677,-3.2593,-3.3602,-3.4163,-3.4163,-3.4163,-3.3671,-3.289,-3.289,-3.289,-3.289,-3.3739,-3.4163,-3.4027,-3.3031,-3.2037,-3.0795,-2.7242,-2.4985,-2.3189,-1.9448,-1.9074,-2.0157,-1.79,-1.7908,-1.9036,-2.0001,-1.9599,-1.8718,-1.8798,-1.952,-2.0323,-2.0323,-1.952,-1.8718,-1.8798,-1.7908,-1.7017,-1.7098,-1.6355,-1.5538,-1.5538,-1.5538,-1.5296,-1.425,-1.4873,-1.5068,-1.3811,-1.2537,-1.1538,-1.1194,-1.0948,-1.0783,-1.0783,-1.162,-1.1768,-1.0634,-0.9744,-0.915,-0.915,-0.9015,-0.8947,-0.9078,-0.9715,-0.9633,-0.8563,-0.8633,-0.8122,-0.7048,-0.698,-0.6562,-0.5624,-0.6334,-0.6268,-0.5491,-0.5428,-0.5428,2.5002,2.5242,2.4956,2.5122,2.4124,2.2928,2.2115,2.0513,1.9284,1.9512,1.9156,1.8932,1.9236,1.8792,1.8119,1.729,1.6753,1.5303,1.1987,1.2445,1.1572,0.7488,0.6767,0.4957,0.0796,-0.2033,-0.5662,-1.0875,-1.3902,-1.6154,-1.7453,-2.068,-2.3706,-2.6158,-2.8355,-3.0239,-3.1742,-3.2678,-3.3171,-3.3171,-3.3171,-3.2961,-3.2593,-3.2593,-3.2593,-3.2664,-3.3602,-3.3671,-3.3101,-3.2749,-3.146,-2.9489,-2.7125,-2.5124,-2.314,-2.0338,-1.998,-2.0601,-1.8146,-1.847,-1.9923,-1.9687,-1.9766,-1.9923,-1.9923,-2.0245,-2.0566,-2.0566,-1.9844,-1.9125,-1.9766,-1.9116,-1.8149,-1.7496,-1.7009,-1.6683,-1.6683,-1.6683,-1.6363,-1.5304,-1.5379,-1.527,-1.3851,-1.2575,-1.1872,-1.2327,-1.1523,-1.1073,-1.1923,-1.2182,-1.215,-1.1768,-1.0789,-1.019,-1.019,-1.0176,-1.0279,-1.0785,-1.1037,-1.0688,-0.9544,-0.8904,-0.8163,-0.7172,-0.7036,-0.6794,-0.6452,-0.6794,-0.6794,-0.6383,-0.5901,-0.5627,2.5511,2.5727,2.5509,2.6029,2.5281,2.406,2.2765,2.1196,1.9993,1.9866,1.9482,1.9184,1.9184,1.8833,1.7969,0.0,1.5548,1.445,1.1688,1.1732,1.118,0.9102,0.7857,0.5806,0.2339,-0.2022,-0.6729,-1.1552,-1.4193,-1.5956,-1.6711,-1.9115,-2.2039,-2.5398,-2.7163,-2.8909,-3.068,-3.1322,-3.1834,-3.2177,-3.2177,-3.2033,-3.1756,-3.1756,-3.1756,-3.1829,-3.2749,-3.282,-3.2164,-3.1834,-3.0572,-2.8675,-2.6462,-2.4638,-2.3033,-2.0292,-2.0025,-2.0579,-1.7831,-1.8461,-2.0401,-1.9362,-1.9766,-2.0566,-2.0566,-2.0566,-2.0566,-2.0566,-2.0079,-1.9678,-2.0401,-2.0001,-1.9274,-1.847,-1.806,-1.7819,-1.7819,-1.7819,-1.7496,-1.6355,-1.6191,-1.5793,-1.4447,-1.3101,-1.2512,-1.3173,-1.219,-1.1734,-1.2719,-1.2777,-1.2732,-1.2732,-1.2338,-1.1883,-1.131,-1.1236,-1.1464,-1.2011,-1.1997,-1.1468,-1.0331,-0.9608,-0.8643,-0.7364,-0.7507,-0.7343,-0.6726,-0.7007,-0.6936,-0.6726,-0.6086,-0.5827,2.5135,2.5602,2.5675,2.6031,2.5581,2.4413,2.1806,2.0877,2.0327,1.9399,1.9419,1.9582,1.9582,1.9165,1.8176,1.6291,1.6,1.5017,1.2181,1.1905,1.1476,0.997,0.7914,0.5577,0.2887,-0.3498,-0.8081,-0.9676,-1.196,-1.397,-1.5591,-1.6663,-1.9051,-2.2882,-2.4235,-2.6371,-2.9528,-2.9528,-3.01,-3.118,-3.118,-3.0696,-2.9869,-2.9869,-2.9869,-2.9856,-3.0833,-3.1254,-3.1093,-3.0012,-2.929,-2.8512,-2.4982,-2.3308,-2.2444,-1.8673,-1.8718,-2.0157,-1.683,-1.7883,-2.0401,-1.9362,-1.9766,-2.0566,-2.0566,-2.0566,-2.0566,-2.0566,-2.0566,-2.0566,-2.0566,-2.0566,-2.0566,-2.0566,-1.9756,-1.8957,-1.8957,-1.8957,-1.8638,-1.7496,-1.7261,-1.6927,-1.5861,-1.455,-1.3559,-1.3559,-1.3126,-1.2815,-1.2822,-1.329,-1.3673,-1.3673,-1.4593,-1.4378,-1.2445,-1.2298,-1.2298,-1.2298,-1.2298,-1.1835,-1.0852,-1.0777,-0.9766,-0.7569,-0.8359,-0.7825,-0.5803,-0.6655,-0.6655,-0.5803,-0.58,-0.5881,2.4282,2.4804,2.4968,2.4844,2.4691,2.4103,2.2399,2.1601,2.088,1.9719,1.9612,1.9738,1.9738,1.9043,1.821,1.7479,1.6457,1.5171,1.3537,1.2865,1.2072,1.0916,0.776,0.4136,0.0,-0.4085,-0.7399,-0.9562,-1.2141,-1.4276,-1.569,-1.6922,-1.9249,-2.2892,-2.3345,-2.4788,-2.7383,-2.8195,-2.8682,-2.9098,-2.9858,-3.0075,-2.9792,-2.9792,-2.9792,-2.9856,-3.0758,-3.0833,-3.019,-2.9732,-2.8448,-2.6616,-2.474,-2.3227,-2.1998,-2.051,-2.0448,-2.0729,-1.8638,-1.9116,-2.0401,-1.9362,-1.9766,-2.0566,-2.0566,-2.0566,-2.0566,-2.0566,-2.0566,-2.0566,-2.0566,-2.0566,-2.0566,-2.0566,-2.0323,-2.0079,-2.0079,-2.0079,-1.9756,-1.863,-1.847,-1.79,-1.6026,-1.519,-1.4815,-1.5032,-1.4518,-1.4488,-1.5475,-1.53,-1.5162,-1.5162,-1.516,-1.495,-1.4307,-1.3665,-1.3237,-1.3237,-1.2666,-1.215,-1.1842,-1.1162,-1.0151,-0.874,-0.8364,-0.7434,-0.6115,-0.6414,-0.6414,-0.6115,-0.6115,-0.6142,2.3614,2.4159,2.4365,2.4605,2.4482,2.3967,2.257,2.1749,2.0967,1.9755,1.9594,1.9626,1.9582,1.8753,1.7969,1.7597,1.6205,1.4958,1.4378,1.2705,1.089,0.9054,0.6916,0.3658,-0.1425,-0.393,-0.6534,-0.9486,-1.2304,-1.4165,-1.5038,-1.6278,-1.8195,-2.0962,-2.1859,-2.3258,-2.5167,-2.6262,-2.7267,-2.8084,-2.8846,-2.9365,-2.9792,-2.9365,-2.9365,-2.9792,-2.9512,-2.9344,0.0,-2.808,-2.6622,-2.4814,-2.3782,-2.2287,-2.069,-2.0003,-1.9749,-1.9542,-1.8227,-1.8461,-1.9353,-1.9116,-1.9766,-2.0566,-2.0566,-2.0566,-2.0566,-2.0566,-2.0566,-2.0712,-2.1011,-2.0857,-2.0722,-2.1001,-2.0867,-2.0566,-2.0566,-2.0566,-2.0401,-1.9756,-1.9283,-1.855,-1.7163,-1.6419,-1.6113,-1.6242,-1.5872,-1.5904,-1.6818,-1.6716,-1.6573,-1.6573,-1.6525,-1.651,-1.651,-1.4737,-1.3673,-1.3673,-1.2806,-1.2305,-1.2305,-1.1694,-1.0864,-0.9895,-0.8841,-0.7859,-0.6872,-0.649,-0.6338,-0.6338,-0.6338,-0.6338,0.0,2.3539,2.3819,2.4831,2.4653,2.3828,2.2269,2.1456,0.0,1.9656,1.9444,1.9428,1.9328,1.8387,1.7517,1.715,1.5724,1.468,1.4716,1.1834,0.8669,0.5759,0.5946,0.4229,-0.1059,-0.3056,-0.554,-0.937,-1.1979,-1.352,-1.3861,-1.5026,-1.6257,-1.7468,-1.9875,-2.1636,-2.2853,-2.3992,-2.5666,-2.7738,-2.7853,-2.8548,-2.9574,-2.8585,-2.8688,-2.9546,-2.7557,-2.7209,-2.7844,-2.5742,-2.4314,-2.3465,-2.2329,-2.0671,-1.8913,-1.7836,-1.7342,-1.718,-1.6273,-1.6601,-1.7577,-1.8718,-1.9766,-2.0566,-2.0566,-2.0566,-2.0566,-2.0566,-2.0566,-2.0789,-2.1659,-2.1221,-2.0779,-2.1659,-2.1221,-2.0566,-2.0566,-2.0566,-2.0489,-2.0566,-1.9756,-1.9036,-1.9036,-1.8149,-1.7415,-1.7415,-1.7196,-1.7041,-1.712,-1.7667,-1.8053,-1.8053,-1.8423,-1.8682,-1.8682,-1.5665,-1.3818,-1.3818,-1.2879,-1.2305,-1.2305,-1.2305,-1.1848,-1.0783,-0.9744,-0.8694,-0.7706,-0.6718,-0.6338,-0.6338,-0.6338,-0.6338,2.1367,0.0,2.2325,2.1964,2.229,2.2416,0.0,2.1166,2.0977,2.0057,1.9907,2.004,2.0358,1.8475,1.7487,1.9457,1.7702,1.5672,1.4373,1.283,1.1519,1.0561,0.9056,0.6547,0.252,-0.1526,-0.509,-0.8049,-0.9806,-1.1607,-1.3765,-1.3974,-1.4528,-1.5862,-1.8024,-1.9748,-2.1268,-2.2113,-2.3268,-2.4614,-2.579,-2.6951,-2.8016,-2.8076,-2.8267,-2.8518,-2.887,-2.8211,-2.6767,-2.5895,-2.4957,-2.3885,-2.2018,-2.0585,-1.9363,-1.8825,-1.8069,-1.7423,-1.798,-1.839,-1.8798,-1.9844,-2.0401,-2.0566,-2.0566,-2.0566,-2.0566,-2.0566,-2.0566,-2.0634,-2.0857,-2.0789,-2.0644,-2.0857,-2.0789,-2.0566,-2.0566,-1.9923,-1.9599,-2.0401,-1.9756,-1.9036,-1.9036,-1.8798,-1.8638,-1.8638,-1.855,-1.8804,-1.9606,-1.9554,-1.9456,-1.9456,-1.9238,-1.9131,-1.9131,-1.6473,-1.4879,-1.4879,-1.3237,-1.2305,-1.2305,-1.2305,-1.1848,-1.0783,-0.9064,-0.7629,-0.6644,-0.6416,-0.6338,-0.6338,-0.6338,-0.6338,2.0574,2.14,2.2121,2.206,2.2184,2.2199,2.1702,2.1192,2.064,1.9869,1.9953,2.0107,1.9999,1.8111,1.7119,1.8849,1.6824,1.4582,1.3314,1.2738,1.2145,1.1483,0.9352,0.6737,0.3751,-0.0356,-0.3924,-0.6608,-0.8559,-1.0286,-1.18,-1.2828,-1.3603,-1.4355,-1.5846,-1.7565,-1.9653,-2.1146,-2.2442,-2.3503,-2.4389,-2.5306,-2.645,-2.6382,-2.6474,-2.6767,-2.7011,-2.6336,-2.5131,-2.4777,-2.3907,-2.2747,-2.1648,-2.0102,-1.8507,-1.8299,-1.7172,-1.5959,-1.7082,-1.8141,-1.9116,-1.9678,-2.0167,-2.0566,-2.0566,-2.0566,-2.0566,-2.0566,-2.0566,-2.0712,-2.1155,-2.0934,-2.0712,-2.1155,-2.0934,-2.0489,-2.0001,-1.9441,-1.9195,-1.9756,-1.9362,-1.9195,-1.9678,-1.9756,-1.9756,-1.9756,-1.9756,-1.9923,-2.0566,-2.0361,-2.0215,-2.0215,-1.9824,-1.957,-1.957,-1.7166,-1.5584,-1.5491,-1.3455,-1.2305,-1.2305,-1.2305,-1.1848,-1.0783,-0.9291,-0.8012,-0.7022,-0.649,-0.6338,-0.6338,-0.6338,-0.6338,2.0403,2.1346,2.2354,2.2726,2.2486,2.2143,2.2073,0.0,0.0,0.0,1.9879,1.992,1.9218,1.7453,1.6382,1.7283,1.494,1.2923,1.2831,1.2405,1.2,1.1691,0.9252,0.6611,0.4037,0.053,-0.2691,-0.5428,-0.7528,-0.8964,-0.9507,-1.1608,-1.2971,-1.3152,-1.4145,-1.5756,-1.7994,-2.0134,-2.1712,-2.2793,-2.3047,-2.3716,-2.4837,-2.4277,-2.4438,-2.4882,-2.4422,-2.3801,-2.3262,-2.3259,-2.2471,-2.115,-2.0912,-1.9425,-1.7261,-1.709,-1.5794,-1.425,-1.5545,-1.7326,-1.9045,-1.9195,-1.9844,-2.0566,-2.0566,-2.0566,-2.0566,-2.0566,-2.0566,-2.0789,-2.1593,-2.1231,-2.0789,-2.1593,-2.1155,-2.0323,-1.9195,-1.8877,-1.8798,-1.8957,-1.8877,-1.9116,-2.0401,-2.0566,-2.0644,-2.0789,-2.0712,-2.0634,-2.0789,-2.0722,-2.0566,-2.0566,-2.0234,-2.0019,-2.0019,-1.7752,-1.6178,-1.5947,-1.3726,-1.2351,-1.2305,-1.2305,-1.1848,-1.0783,-0.982,-0.8765,-0.7783,-0.6795,-0.6338,-0.6338,-0.6338,-0.6338,2.1111,2.1678,2.1686,2.0151,2.021,2.0533,2.0146,1.9998,0.0,0.0,2.0065,1.9737,1.9634,1.6667,1.5057,1.7701,1.4687,1.2945,1.5711,1.3622,1.2969,1.5805,1.2481,0.8533,0.5211,0.176,-0.1795,-0.5336,-0.5985,-0.7135,-0.9414,-1.0553,-1.1709,-1.2868,-1.4583,-1.5717,-1.6095,-1.7335,-1.8565,-1.9696,-2.0963,-2.2168,-2.3257,-2.3477,-2.3646,-2.3823,-2.4612,-2.3908,-2.2165,-2.2708,-2.2285,-2.1121,-1.9841,-1.8523,-1.7172,-1.6273,-1.5137,-1.4419,-1.6363,-1.7908,-1.9125,-2.0079,-2.0489,-2.0566,-2.0566,-2.0566,-2.0566,-2.0566,-2.0566,-2.0644,-2.0789,-2.0712,-2.0644,-2.0789,-2.0712,-2.0323,-1.9195,-1.823,-1.7827,-1.8798,-1.823,-1.8221,-2.0245,-2.0566,-2.0857,-2.1669,-2.1078,-2.0857,-2.1669,-2.1078,-2.0566,-2.0566,-2.0508,-2.0469,-2.0469,-1.8237,-1.6743,-1.6763,-1.4179,-1.2565,-1.2311,-1.2305,-1.1848,-1.0783,-0.982,-0.8765,-0.7783,-0.6795,-0.6338,-0.6338,-0.6338,-0.6338,2.0593,2.124,2.1311,1.9139,1.944,1.9968,1.8858,1.8539,1.8425,1.8301,1.8469,1.8392,1.7641,1.6293,1.518,1.4966,1.2377,1.0979,1.2692,1.2318,1.2267,1.3458,1.1182,0.8677,0.6399,0.2473,-0.0715,-0.2436,-0.3799,-0.5358,-0.7225,-0.8228,-0.9684,-1.1543,-1.3064,-1.4196,-1.481,-1.5869,-1.7334,-1.9045,-2.0289,-2.1174,-2.1632,-2.2078,-2.2159,-2.2005,-2.3253,-2.2515,-2.041,-2.1174,-2.0614,-1.9057,-1.9029,-1.831,-1.7261,-1.6764,-1.6281,-1.6041,-1.7666,-1.8559,-1.9195,-2.0245,-2.0566,-2.0566,-2.0566,-2.0566,-2.0566,-2.0566,-2.0566,-2.0566,-2.0566,-2.0566,-2.0566,-2.0566,-2.0566,-2.0323,-1.9195,-1.855,-1.839,-1.8877,-1.8559,-1.8709,-2.0323,-2.0566,-2.0712,-2.1155,-2.0857,-2.0789,-2.1155,-2.0857,-2.0566,-2.0566,-2.0566,-2.0401,-1.9766,-1.8135,-1.6516,-1.4971,-1.3682,-1.2859,-1.2552,-1.2545,-1.2234,-1.162,-1.0121,-0.9069,-0.8613,-0.7022,-0.6338,-0.6338,-0.6338,-0.6338,2.0085,2.0462,2.0369,1.8772,1.9256,1.9744,1.8346,1.7736,1.7408,1.7229,1.7632,1.7582,1.6022,1.5898,1.5024,1.1889,1.0358,0.9637,0.9786,1.0869,1.1427,1.1,0.9966,0.8657,0.7264,0.3548,0.089,0.0089,-0.1692,-0.3566,-0.5267,-0.6486,-0.8059,-1.0178,-1.1558,-1.2766,-1.3646,-1.5047,-1.6511,-1.8221,-1.9599,-2.0245,-2.0255,-2.0839,-2.0889,-2.0664,-2.1497,-2.0732,-1.9036,-1.9524,-1.8735,-1.7423,-1.823,-1.8069,-1.7342,-1.7342,-1.7342,-1.7496,-1.8638,-1.9036,-1.9195,-2.0245,-2.0635,-2.0723,-2.0723,-2.0723,-2.0723,-2.0723,-2.0644,-2.0566,-2.0566,-2.0566,-2.0566,-2.0566,-2.0566,-2.0323,-1.9195,-1.9036,-1.9036,-1.9036,-1.9036,-1.9362,-2.0401,-2.0789,-2.1011,-2.1231,-2.1088,-2.1011,-2.1231,-2.0867,-2.0566,-2.0566,-2.0401,-1.9678,-1.831,-1.7415,-1.5901,-1.3521,-1.3353,-1.3173,-1.2866,-1.2852,-1.2746,-1.2518,-1.047,-0.9397,-0.9448,-0.7328,-0.6329,-0.6366,-0.6366,-0.6366,2.0333,1.9362,1.8114,1.87,1.9389,1.9706,1.8917,1.8457,1.8498,1.9508,1.9409,1.8513,1.6497,1.5268,1.3388,0.9906,1.0269,1.0884,1.0305,1.0498,1.1,1.1985,1.1091,0.9552,0.7351,0.5874,0.3653,0.0267,-0.0178,-0.178,-0.5179,-0.6486,-0.7716,-0.8973,-1.1123,-1.2328,-1.2413,-1.4601,-1.5779,-1.5944,-1.806,-1.9116,-1.9125,-2.0196,-2.0596,-2.0566,-1.9627,-1.9143,-1.8957,-1.79,-1.7415,-1.7342,-1.7423,-1.7342,-1.7342,-1.7342,-1.7342,-1.7496,-1.8638,-1.9036,-1.9195,-2.0245,-2.085,-2.1182,-2.1182,-2.1182,-2.1182,-2.1182,-2.0889,-2.0566,-2.0566,-2.0566,-2.0566,-2.0566,-2.0566,-2.0323,-1.9195,-1.9036,-1.9036,-1.9036,-1.9036,-1.9362,-2.0401,-2.1298,-2.2253,-2.3147,-2.2478,-2.2253,-2.3147,-2.1756,-2.0566,-2.0566,-1.9687,-1.8221,-1.6108,-1.5861,-1.5274,-1.4105,-1.3768,-1.348,-1.3186,-1.318,-1.3166,-1.3146,-1.0813,-0.9696,-0.9812,-0.7556,-0.6529,-0.6668,-0.6668,-0.6668,1.9475,1.9116,1.8383,1.8165,1.8576,1.881,1.7939,1.717,1.6894,1.7781,1.7993,1.7667,1.6368,1.3275,1.0725,1.0192,0.9161,0.8408,0.8275,0.9597,1.0514,1.0154,1.0428,1.0,0.8341,0.6502,0.4819,0.3474,0.1962,0.0178,-0.1958,-0.3912,-0.5775,-0.7716,-0.9387,-1.0524,-1.1209,-1.2826,-1.3594,-1.3587,-1.6577,-1.7908,-1.7989,-1.839,-1.8541,-1.855,-1.8149,-1.7577,-1.6919,-1.6519,-1.5869,-1.547,-1.6772,-1.7747,-1.847,-1.9116,-1.9353,-1.9432,-1.9835,-1.952,-1.9195,-2.0245,-2.0272,-1.993,-2.0653,-2.082,-2.082,-2.082,-2.0898,-2.0918,-2.0635,-2.0566,-2.0566,-2.0566,-2.0566,-2.0489,-2.0079,-2.0001,-2.0001,-2.0001,-2.0001,-2.0304,-2.1288,-2.1735,-2.2328,-2.3368,-2.2627,-2.2103,-2.2553,-2.1451,-2.0323,-1.9678,-1.798,-1.6593,-1.5779,-1.5054,-1.4489,-1.4173,-1.3981,-1.3788,-1.3494,-1.348,-1.3394,-1.3213,-1.0993,-0.9857,-0.9857,-0.7686,-0.6644,-0.6702,-0.6702,-0.6702,1.8235,1.798,1.75,1.7515,1.7491,1.7607,1.8043,1.7073,1.6451,1.7701,1.7494,1.6646,1.5276,1.1847,0.94,0.9823,0.844,0.7193,0.7105,0.9139,1.0269,0.9492,1.0096,1.0265,0.9492,0.7298,0.5802,0.5447,0.3842,0.2052,0.0089,-0.1603,-0.3737,-0.6483,-0.7724,-0.8869,-1.0009,-1.1214,-1.1724,-1.1809,-1.4065,-1.5741,-1.6846,-1.718,-1.7342,-1.7261,-1.6927,-1.6355,-1.5696,-1.5296,-1.4977,-1.4817,-1.6609,-1.7747,-1.8638,-2.0079,-2.0401,-2.0079,-2.0079,-1.9599,-1.9116,-1.9844,-1.9445,-1.8896,-1.9953,-2.0033,-1.9874,-2.0191,-2.0394,-2.0541,-2.0566,-2.0674,-2.0742,-2.0596,-2.0566,-2.0566,-2.0566,-2.0566,-2.0566,-2.0566,-2.0566,-2.0934,-2.1811,-2.2253,-2.2702,-2.3368,-2.2925,-2.2328,-2.2027,-2.0904,-1.9511,-1.8141,-1.6675,-1.5703,-1.5213,-1.4489,-1.4088,-1.4088,-1.4088,-1.3995,-1.3794,-1.3781,-1.3687,-1.3494,-1.1235,-1.008,-1.0151,-0.7867,-0.6797,-0.6841,-0.6841,-0.6841,1.6702,1.5636,1.4887,1.6889,1.6328,1.6189,1.9617,1.8612,1.768,2.0098,1.8373,1.5637,1.3141,1.1262,0.9697,0.8397,0.8321,0.808,0.7207,0.9135,1.0611,1.0611,1.0611,1.0611,1.0611,0.8532,0.6694,0.5536,0.5447,0.3833,0.0267,0.0,-0.1691,-0.5267,-0.6486,-0.7629,-0.889,-1.0009,-1.0611,-1.0611,-1.0611,-1.2389,-1.5696,-1.6764,-1.7253,-1.7172,-1.6108,-1.5696,-1.5621,-1.4573,-1.4734,-1.5779,-1.6846,-1.7261,-1.7577,-1.9756,-1.9923,-1.8957,-1.8957,-1.8957,-1.8957,-1.8957,-1.8571,-1.8213,-1.9279,-1.8876,-1.8213,-1.9288,-1.9335,-1.9283,-2.0323,-2.0898,-2.1123,-2.0674,-2.0566,-2.0566,-2.0566,-2.0566,-2.0566,-2.0566,-2.0566,-2.0934,-2.1811,-2.285,-2.3514,-2.3514,-2.3514,-2.3147,-2.2103,-2.0187,-1.8141,-1.5944,-1.6026,-1.5636,-1.425,-1.4088,-1.4088,-1.4088,-1.4088,-1.4088,-1.4088,-1.4088,-1.4088,-1.4088,-1.1662,-1.0473,-1.0611,-0.8107,-0.7004,-0.7139,-0.7139,-0.7139,1.6433,1.5627,1.4917,1.5944,1.6646,1.739,1.8642,1.7901,1.7307,1.8475,1.7572,1.5825,1.3535,1.1745,1.0121,0.835,0.7655,0.7318,0.7119,0.8448,0.9662,1.0524,1.0611,1.0611,1.0611,1.0005,0.8698,0.6779,0.6584,0.5419,0.2672,0.089,-0.0891,-0.2772,-0.4816,-0.606,-0.6419,-0.844,-0.9405,-0.9405,-1.0178,-1.1117,-1.2134,-1.3237,-1.3749,-1.3833,-1.4384,-1.4573,-1.4573,-1.425,-1.425,-1.465,-1.5786,-1.6191,-1.6355,-1.773,-1.8069,-1.7819,-1.7819,-1.7334,-1.6838,-1.7577,-1.7163,-1.6586,-1.7654,-1.7744,-1.7581,-1.7899,-1.867,-1.947,-1.9436,-2.0324,-2.1123,-2.0674,-2.0566,-2.0566,-2.0566,-2.0566,-2.0566,-2.0566,-2.0566,-2.0934,-2.1811,-2.2253,-2.2702,-2.3368,-2.2925,-2.1866,-2.011,-1.8043,-1.6511,-1.6116,-1.5228,-1.4573,-1.4173,-1.4088,-1.4088,-1.4088,-1.4088,-1.4088,-1.4088,-1.4088,-1.373,-1.2851,-1.1315,-1.0201,-0.9405,-0.7793,-0.7099,-0.7139,-0.7139,-0.7139,1.5666,1.5218,1.4798,1.552,1.6506,1.7386,1.7839,1.8369,1.847,1.7514,1.7107,1.5848,1.2445,1.1065,0.9792,0.7907,0.725,0.7044,0.7129,0.8105,0.9148,0.9836,0.9923,1.0096,1.0524,1.0183,0.9318,0.7925,0.7819,0.675,0.4461,0.2494,0.0624,-0.1072,-0.2946,-0.4196,-0.4643,-0.6054,-0.676,-0.6848,-0.7534,-0.8059,-0.8599,-1.0682,-1.1901,-1.2328,-1.3561,-1.4088,-1.4088,-1.4088,-1.4088,-1.4166,-1.5296,-1.5455,-1.522,-1.6764,-1.7342,-1.7342,-1.7342,-1.6846,-1.6437,-1.709,-1.6281,-1.522,-1.6355,-1.6363,-1.6124,-1.6519,-1.7319,-1.8172,-1.8851,-1.9635,-2.0334,-2.0547,-2.0566,-2.0566,-2.0566,-2.0566,-2.0566,-2.0566,-2.0566,-2.0934,-2.1811,-2.2027,-2.2178,-2.2776,-2.2038,-2.0663,-1.8621,-1.7172,-1.6116,-1.547,-1.4573,-1.4088,-1.4088,-1.4088,-1.4088,-1.4088,-1.4088,-1.4088,-1.4088,-1.4088,-1.3555,-1.2322,-1.1209,-1.0009,-0.889,-0.7665,-0.7139,-0.7139,-0.7139,-0.7139,1.475,1.4609,1.4618,1.5508,1.614,1.6801,1.7664,1.9594,2.0277,1.7005,1.6845,1.5713,1.0462,0.9742,0.9229,0.7257,0.7054,0.7051,0.6962,0.7925,0.8623,0.8711,0.8711,0.9144,1.0351,0.9579,0.8978,0.8715,0.8803,0.7918,0.5536,0.4374,0.2674,0.0267,-0.0982,-0.2235,-0.3392,-0.357,-0.357,-0.357,-0.357,-0.4194,-0.5356,-0.8769,-1.1031,-1.2328,-1.347,-1.3997,-1.4088,-1.4088,-1.4088,-1.4166,-1.5137,-1.4977,-1.4334,-1.6281,-1.7017,-1.7017,-1.7017,-1.7017,-1.7017,-1.7017,-1.5718,-1.425,-1.5296,-1.4894,-1.4334,-1.5296,-1.5621,-1.6191,-1.8141,-1.8789,-1.9116,-2.0167,-2.0566,-2.0566,-2.0566,-2.0566,-2.0566,-2.0566,-2.0566,-2.0857,-2.1745,-2.1886,-2.1886,-2.1886,-2.0991,-1.959,-1.7577,-1.7098,-1.6288,-1.4334,-1.4088,-1.4088,-1.4088,-1.4088,-1.4088,-1.4088,-1.4088,-1.4088,-1.4088,-1.4088,-1.3555,-1.2242,-1.1123,-0.9923,-0.8715,-0.7665,-0.7139,-0.7139,-0.7139,-0.7139,1.517,1.4791,1.4703,1.5478,1.6905,1.8646,2.0529,2.0344,1.8916,1.6053,1.6297,1.5577,1.0534,1.0513,1.0315,0.7494,0.7122,0.6786,0.5894,0.598,0.6498,0.7362,0.745,0.7983,0.9144,0.9836,0.9488,0.7665,0.8364,0.7918,0.5536,0.5179,0.3927,0.1519,0.0268,-0.0981,-0.2147,-0.3126,-0.357,-0.357,-0.357,-0.3748,-0.4103,-0.6653,-0.9447,-1.2328,-1.2589,-1.3203,-1.4088,-1.4088,-1.4088,-1.4088,-1.4328,-1.4334,-1.4166,-1.4664,-1.4824,-1.4824,-1.4824,-1.4824,-1.4824,-1.4824,-1.4496,-1.4173,-1.4412,-1.425,-1.4173,-1.4412,-1.5054,-1.5779,-1.6265,-1.7001,-1.798,-1.9116,-2.0001,-2.0566,-2.0566,-2.0566,-2.0566,-2.0566,-2.0566,-2.0634,-2.0857,-2.0934,-2.0934,-2.0934,-1.9256,-1.7819,-1.7334,-1.5794,-1.4573,-1.4173,-1.4088,-1.4088,-1.4088,-1.4088,-1.4088,-1.4088,-1.4088,-1.4088,-1.4088,-1.4088,-1.3392,-1.1912,-1.0438,-0.8969,-0.7489,-0.7228,-0.7139,-0.7139,-0.7139,-0.7139,1.4824,1.4798,1.5031,1.5955,1.7244,1.8744,2.0278,1.9257,1.7571,1.6087,1.6074,1.495,1.053,1.0357,1.007,0.7544,0.6605,0.6071,0.5447,0.491,0.4725,0.5333,0.5957,0.6753,0.7899,0.9131,0.9318,0.8013,0.854,0.8097,0.6337,0.5716,0.4823,0.3573,0.1785,0.0536,-0.0089,-0.1253,-0.1879,-0.1879,-0.1879,-0.2503,-0.3659,-0.6034,-0.8404,-1.0697,-1.1809,-1.2674,-1.3294,-1.3822,-1.4088,-1.4088,-1.4088,-1.3737,-1.3294,-1.3913,-1.4068,-1.4119,-1.4636,-1.4901,-1.4901,-1.4901,-1.4489,-1.4088,-1.4088,-1.4088,-1.4088,-1.4088,-1.4489,-1.5054,-1.5538,-1.6108,-1.6846,-1.79,-1.9036,-2.0001,-2.0489,-2.0566,-2.0566,-2.0566,-2.0566,-2.0566,-2.0566,-2.0566,-2.0566,-2.0566,-1.9599,-1.8141,-1.6041,-1.4824,-1.4088,-1.4088,-1.4088,-1.4088,-1.4088,-1.4088,-1.4088,-1.4088,-1.4088,-1.4088,-1.4088,-1.4088,-1.3039,-1.0702,-0.9918,-0.8707,-0.7139,-0.7139,-0.7139,-0.7139,-0.7139,-0.7139,1.423,1.464,1.5351,1.6537,1.7386,1.8113,1.909,1.793,1.654,1.6269,1.5762,1.4208,1.0375,0.997,0.9507,0.7464,0.6337,0.5536,0.5179,0.4196,0.3481,0.3303,0.4374,0.5526,0.6656,0.8082,0.8803,0.8627,0.8803,0.8364,0.7139,0.6248,0.5625,0.5447,0.3486,0.2325,0.2147,0.1076,0.0539,0.0269,0.009,-0.1165,-0.3392,-0.5507,-0.7365,-0.8978,-1.0864,-1.1901,-1.2413,-1.3379,-1.3906,-1.4088,-1.3906,-1.3203,-1.2413,-1.3379,-1.3782,-1.3904,-1.5025,-1.5462,-1.5462,-1.5462,-1.4817,-1.4088,-1.4088,-1.4088,-1.4088,-1.4088,-1.4088,-1.4334,-1.5213,-1.5462,-1.5703,-1.6764,-1.7738,-1.8789,-2.0079,-2.0489,-2.0566,-2.0566,-2.0566,-2.0566,-2.0566,-2.0566,-2.0566,-2.0566,-2.0001,-1.8221,-1.4573,-1.4088,-1.4088,-1.4088,-1.4088,-1.4088,-1.4088,-1.4088,-1.4088,-1.4088,-1.4088,-1.4088,-1.4088,-1.33,-1.1649,-0.9139,-0.9052,-0.8448,-0.7139,-0.7139,-0.7139,-0.7139,-0.7139,-0.7139,1.3805,1.4321,1.5375,1.6911,1.7355,1.7813,1.9017,1.793,1.6349,1.55,1.4871,1.3404,1.03,0.997,0.9507,0.7464,0.6962,0.6157,0.4105,0.3659,0.3213,0.2147,0.3126,0.4283,0.5531,0.765,0.8452,0.7404,0.8277,0.8364,0.7139,0.6962,0.6428,0.5447,0.5092,0.4376,0.3393,0.3213,0.2592,0.1522,0.0539,-0.0718,-0.2057,-0.3479,-0.5871,-0.889,-0.9235,-1.0438,-1.2328,-1.2498,-1.3118,-1.3997,-1.2942,-1.2413,-1.2328,-1.2498,-1.2498,-1.2668,-1.3893,-1.4328,-1.4328,-1.4328,-1.425,-1.4088,-1.4088,-1.4088,-1.4088,-1.4088,-1.4088,-1.4166,-1.425,-1.4328,-1.4573,-1.5621,-1.6026,-1.6675,-1.8789,-1.9923,-2.0566,-2.0566,-2.0566,-2.0566,-2.0566,-2.0566,-2.0566,-2.0566,-1.7407,-1.4741,-1.4166,-1.4088,-1.4088,-1.4088,-1.4088,-1.4088,-1.4088,-1.4088,-1.4088,-1.4088,-1.4088,-1.4088,-1.4088,-1.0178,-0.7837,-0.7401,-0.7401,-0.7316,-0.7139,-0.7139,-0.7139,-0.7139,-0.7139,-0.7139,1.434,1.4977,1.5901,1.7159,1.7476,1.7849,1.9233,1.759,1.5852,1.5878,1.4392,1.2408,1.0032,0.9682,0.9206,0.7325,0.6402,0.5635,0.4723,0.3482,0.2413,0.1879,0.2858,0.3838,0.4374,0.7115,0.8715,0.8193,0.9231,0.9318,0.8189,0.8105,0.7573,0.6425,0.5714,0.5179,0.4641,0.3927,0.3037,0.179,0.0539,-0.0628,-0.179,-0.2325,-0.4192,-0.7034,-0.836,-0.9492,-1.0438,-1.1037,-1.1643,-1.2083,-1.1558,-1.095,-1.0524,-1.1809,-1.1895,-1.1643,-1.3476,-1.4088,-1.3997,-1.3294,-1.3555,-1.3822,-1.2516,-1.3039,-1.3997,-1.3294,-1.3561,-1.4088,-1.4088,-1.4088,-1.425,-1.465,-1.5296,-1.5779,-1.6198,-1.8541,-2.0566,-2.0566,-2.0566,-2.0566,-2.0566,-2.0566,-1.9756,-1.7326,-1.5304,-1.4088,-1.4088,-1.4088,-1.4335,-1.4997,-1.5064,-1.5064,-1.5064,-1.4462,-1.4088,-1.4088,-1.4088,-1.4088,-1.4088,-0.957,-0.7139,-0.7139,-0.7139,-0.7139,-0.7139,-0.7139,-0.7139,-0.7139,-0.7139,-0.7139,1.4335,1.5019,1.5672,1.6681,1.7237,1.7874,1.8892,1.7337,1.5713,1.6044,1.426,1.2048,1.0187,0.9647,0.9025,0.7491,0.6288,0.548,0.5303,0.3561,0.2147,0.1879,0.2858,0.357,0.357,0.7105,0.9235,0.889,1.0178,1.0524,0.941,0.9323,0.8882,0.8009,0.7207,0.659,0.6331,0.4816,0.3482,0.2236,0.1076,-0.0179,-0.1344,-0.1701,-0.2772,-0.4643,-0.6943,-0.836,-0.8978,-0.9836,-1.0351,-1.0611,-1.0265,-0.9666,-0.9061,-1.0783,-1.1037,-1.0869,-1.2948,-1.3646,-1.347,-1.2589,-1.2681,-1.2954,-1.1391,-1.2169,-1.3385,-1.2942,-1.3379,-1.3997,-1.3652,-1.3828,-1.3997,-1.3737,-1.4468,-1.5304,-1.5228,-1.7738,-2.0157,-2.0566,-2.0566,-2.0245,-1.9107,-1.8948,-1.7938,-1.4988,-1.4529,-1.4529,-1.4529,-1.4529,-1.4863,-1.5732,-1.5832,-1.5832,-1.5832,-1.503,-1.4402,-1.4108,-1.4088,-1.3561,-1.2345,-0.8965,-0.7139,-0.7139,-0.7139,-0.6782,-0.6245,-0.6422,-0.6602,-0.6694,-0.6602,-0.6694,1.3121,1.3527,1.3852,1.5045,1.6428,1.7518,1.7674,1.7312,1.6598,1.5494,1.4378,1.3011,1.1099,1.0083,0.9216,0.8311,0.7414,0.6408,0.5282,0.4228,0.3126,0.1969,0.2858,0.357,0.357,0.7793,1.0096,0.8978,1.0956,1.1724,1.0611,1.0524,1.0524,1.0438,1.0346,0.9831,0.8715,0.6416,0.4732,0.3481,0.2325,0.1076,-0.009,-0.1254,-0.1879,-0.2147,-0.4554,-0.6858,-0.889,-0.8978,-0.9666,-1.0524,-0.9405,-0.8978,-0.889,-0.9065,-0.9753,-1.0783,-1.1986,-1.2413,-1.2413,-1.2328,-1.1643,-1.0869,-1.1563,-1.1826,-1.2174,-1.3646,-1.4082,-1.3737,-1.226,-1.3039,-1.3822,-1.2681,-1.3288,-1.4901,-1.7585,-1.8318,-1.8957,-2.0323,-2.0566,-1.9274,-1.5144,-1.4412,-1.4715,-1.5571,-1.5738,-1.5738,-1.5738,-1.5738,-1.5758,-1.5818,-1.5832,-1.5832,-1.5832,-1.5772,-1.5264,-1.4155,-1.4088,-1.2083,-0.7661,-0.7228,-0.7139,-0.7139,-0.7139,-0.5977,-0.3748,-0.455,-0.5087,-0.5447,-0.5087,-0.5708,1.3036,1.367,1.4473,1.5553,1.6504,1.7329,1.8047,1.7426,1.6364,1.563,1.4297,1.2999,1.1957,1.1016,0.9853,0.8352,0.7805,0.7233,0.6254,0.5261,0.411,0.2979,0.3988,0.4463,0.3659,0.788,1.0682,1.0989,1.2486,1.3275,1.2802,1.1905,1.1074,1.0398,1.0314,0.9876,0.889,0.6596,0.4821,0.357,0.2415,0.1165,0.0,-0.0449,-0.1076,-0.1879,-0.3571,-0.5171,-0.6684,-0.7485,-0.8013,-0.8269,-0.7925,-0.7753,-0.7841,-0.8627,-0.9148,-0.9666,-1.0783,-1.1209,-1.1128,-1.0351,-1.0702,-1.1047,-0.9314,-0.9831,-1.0869,-0.9918,-1.0697,-1.1735,-1.1133,-1.1133,-1.1305,-1.2157,-1.3209,-1.4487,-1.5745,-1.6714,-1.7679,-1.8832,-1.8218,-1.7048,-1.547,-1.5204,-1.5344,-1.5765,-1.5832,-1.5832,-1.5832,-1.5832,-1.5832,-1.5832,-1.5832,-1.5832,-1.5832,-1.5832,-1.5651,-1.5231,-1.1639,-0.8877,-0.7139,-0.7139,-0.7139,-0.7139,-0.7139,-0.5977,-0.357,-0.4372,-0.4639,-0.4283,-0.4639,-0.562,1.3058,1.391,1.5031,1.5996,1.6622,1.7207,1.8088,1.7529,1.6535,1.5735,1.4547,1.3389,1.269,1.1851,1.0767,0.9164,0.8391,0.7772,0.7252,0.5901,0.4791,0.4024,0.4683,0.4896,0.4108,0.7889,1.0621,1.1338,1.2908,1.3774,1.3721,1.2814,1.1992,1.1254,1.0502,0.9858,0.9307,0.7054,0.5142,0.357,0.2769,0.1522,0.0,0.0,-0.0449,-0.1254,-0.2858,-0.4283,-0.5447,-0.6605,-0.7139,-0.7139,-0.7139,-0.7139,-0.7228,-0.8017,-0.854,-0.8978,-0.9753,-1.0009,-0.9923,-0.9148,-0.9492,-0.9831,-0.7749,-0.8185,-0.9139,-0.7577,-0.8181,-0.9396,-0.9396,-0.9052,-0.9396,-1.2248,-1.3555,-1.4162,-1.4422,-1.5226,-1.6152,-1.7166,-1.6558,-1.5832,-1.5832,-1.5832,-1.5832,-1.5832,-1.5832,-1.5832,-1.5832,-1.5832,-1.5832,-1.5832,-1.4268,-1.3199,-1.3199,-1.3199,-1.3059,-1.291,-0.9238,-0.7139,-0.7139,-0.7139,-0.7139,-0.7139,-0.7139,-0.6334,-0.4816,-0.4816,-0.4283,-0.3213,-0.3215,-0.3751,0.0,0.0,0.0,1.6029,1.6689,1.7234,1.7575,1.755,1.7088,1.5869,1.5036,1.4167,1.3314,1.2662,1.1983,1.1001,0.9299,0.8036,0.8036,0.6251,0.4939,0.4939,0.4941,0.4944,0.4944,0.7893,0.9857,0.9938,1.1976,1.3206,1.3206,1.32,1.3114,1.3114,1.0986,0.9958,1.01,0.8021,0.5771,0.3566,0.357,0.2325,0.0,0.0,0.0,-0.009,-0.2592,-0.4283,-0.5447,-0.6605,-0.7139,-0.7139,-0.7139,-0.7139,-0.7139,-0.7139,-0.7841,-0.889,-0.889,-0.889,-0.889,-0.889,-0.8017,-0.7139,-0.7139,-0.7139,-0.7143,-0.716,-0.7166,-0.7163,-0.7146,-0.7139,-0.8273,-1.2802,-1.3939,-1.4024,-1.4024,-1.4102,-1.4422,-1.5558,-1.5805,-1.573,-1.5629,-1.5534,-1.5534,-1.5534,-1.5534,-1.5534,-1.5534,-1.5534,-1.5534,-1.5534,-1.1058,-0.8038,-0.8038,-0.8038,-0.778,-0.718,-0.7139,-0.7139,-0.7139,-0.7139,-0.7139,-0.7139,-0.7139,-0.7139,-0.7139,-0.5531,-0.3926,-0.2323,-0.0718,0.0,1.2914,0.0,0.0,0.0,0.0,0.0,1.6633,1.6729,1.648,1.5997,1.487,1.387,1.3741,1.2752,1.2128,1.2393,1.1083,0.9525,0.8082,0.7454,0.6512,0.4984,0.5638,0.5862,0.4944,0.7244,0.9442,1.1021,1.1712,1.2778,1.4265,1.2733,1.1456,1.0667,0.931,0.8608,0.8886,0.7539,0.5728,0.3406,0.3544,0.2325,0.0,0.0,0.0,-0.009,-0.2592,-0.3748,-0.4283,-0.6245,-0.7139,-0.7139,-0.7139,-0.7139,-0.7139,-0.7139,-0.7316,-0.7577,-0.7577,-0.7577,-0.7577,-0.7577,-0.7404,-0.7139,-0.7139,-0.7139,-0.7231,-0.7668,-0.779,-0.7689,-0.7251,-0.7139,-0.7457,-0.9047,-1.0734,-1.1901,-1.1901,-1.3051,-1.4182,-1.4509,-1.5251,-1.4561,-1.0769,-1.0186,-1.0186,-1.0186,-1.0186,-1.0186,-1.0186,-1.0186,-1.0186,-1.0186,-0.8821,-0.8038,-0.8038,-0.8038,-0.778,-0.718,-0.7139,-0.7139,-0.7139,-0.7139,-0.7139,-0.7139,-0.7139,-0.7139,-0.7051,-0.4994,-0.2769,-0.0628,-0.018,0.0,1.373,1.4438,1.5265,1.5184,0.0,0.0,1.6275,1.6004,1.5522,1.5332,1.4392,1.3586,1.3704,1.2987,1.2509,1.2645,1.217,1.1101,0.9271,0.8404,0.7466,0.6126,0.5888,0.5615,0.4885,0.6401,0.7978,0.9291,1.0204,1.1241,1.2459,1.1171,1.0105,0.9566,0.848,0.8023,0.8201,0.7263,0.5608,0.3378,0.3419,0.2306,0.0,0.0,0.0,-0.009,-0.2058,-0.3126,-0.3748,-0.5622,-0.6694,-0.7051,-0.6605,-0.6425,-0.6337,-0.58,-0.562,-0.562,-0.562,-0.562,-0.562,-0.562,-0.5888,-0.6245,-0.6874,-0.7139,-0.7265,-0.7868,-0.7858,-0.7584,-0.7231,-0.7139,-0.7248,-0.7682,-0.8821,-0.9854,-0.9854,-1.07,-1.2169,-1.4359,-1.3566,-1.1546,-0.8528,-0.8038,-0.8038,-0.8038,-0.8038,-0.8038,-0.8038,-0.8038,-0.8038,-0.8038,-0.8038,-0.8038,-0.8038,-0.8038,-0.778,-0.718,-0.7139,-0.7139,-0.7139,-0.7139,-0.7139,-0.7139,-0.7139,-0.6157,-0.4107,-0.473,-0.3306,0.0,0.0,0.0,1.484,1.5434,1.6042,1.6591,1.6059,0.0,1.602,1.528,1.4496,1.4395,1.383,1.3387,1.3498,1.3262,1.2854,1.2274,1.2647,1.2424,1.0997,0.9271,0.8084,0.7859,0.6076,0.4841,0.4688,0.5369,0.5976,0.6207,0.8134,0.9221,0.9145,0.9145,0.9069,0.8998,0.8084,0.7704,0.7778,0.6936,0.5533,0.3524,0.3456,0.2277,0.0179,0.009,0.0,-0.009,-0.1254,-0.2503,-0.3659,-0.491,-0.6071,-0.6962,-0.5805,-0.5359,-0.527,-0.4016,-0.357,-0.357,-0.357,-0.357,-0.357,-0.357,-0.4014,-0.4816,-0.6157,-0.6602,-0.6796,-0.7009,-0.7079,-0.7139,-0.7139,-0.7139,-0.7292,-0.7896,-0.7987,-0.794,-0.794,-0.794,-0.9315,-1.4052,-1.1156,-0.8038,-0.8038,-0.8038,-0.8038,-0.8038,-0.8038,-0.8038,-0.8038,-0.8038,-0.8038,-0.8038,-0.8038,-0.8038,-0.8038,-0.7977,-0.7712,-0.7173,-0.7139,-0.7139,-0.7139,-0.7139,-0.7139,-0.7139,-0.6602,-0.4196,0.0,-0.4285,-0.4107,0.0,0.0,0.0,1.3622,1.4113,1.4667,1.3971,1.4195,0.0,1.4405,1.4429,1.4496,1.4395,1.38,1.3413,1.3857,1.3055,1.2468,1.3025,1.2586,1.1783,1.0623,1.0359,0.9588,0.8008,0.6685,0.56,0.4763,0.4135,0.4436,0.6053,0.8134,0.8917,0.8161,0.8084,0.7706,0.6949,0.6718,0.6581,0.661,0.6572,0.577,0.4431,0.3661,0.2605,0.1223,0.0356,0.0,-0.009,-0.1254,-0.2503,-0.3659,-0.491,-0.6071,-0.6962,-0.5805,-0.5359,-0.527,-0.4016,-0.357,-0.357,-0.357,-0.357,-0.357,-0.357,-0.3303,-0.2946,-0.3213,-0.3748,-0.3941,-0.2099,-0.425,-0.7139,-0.7139,-0.7139,-0.7292,-0.7896,-0.7668,-0.7316,-0.7316,-0.7316,-0.7731,-0.9198,-0.8722,-0.8038,-0.8038,-0.8038,-0.8038,-0.8038,-0.8038,-0.8038,-0.8038,-0.8038,-0.8038,-0.8038,-0.8038,-0.8038,-0.8038,-0.7594,-0.7265,-0.7146,-0.7139,-0.7139,-0.7139,-0.7139,-0.7139,-0.7139,-0.3307,-0.0897,0.0,-0.0897,-0.0897,0.0,0.0,0.0,1.3994,1.4228,1.4539,1.4238,1.4127,0.0,0.0,1.3949,1.3807,1.394,1.3491,1.3181,1.3688,1.3273,1.2795,1.2877,1.2471,1.1884,1.0909,1.0142,0.9316,0.8304,0.6445,0.4833,0.391,0.3301,0.3697,0.5366,0.6923,0.7557,0.7099,0.7022,0.6795,0.6338,0.6338,0.6338,0.6338,0.6332,0.5842,0.4698,0.4274,0.3512,0.2426,0.1331,0.0897,0.0807,-0.0359,-0.1612,-0.2771,-0.3395,-0.4285,-0.5262,-0.473,-0.4107,-0.3486,-0.2236,-0.179,-0.179,-0.179,-0.179,-0.179,-0.179,-0.1522,-0.1165,-0.1165,-0.1522,-0.1522,-0.0359,-0.1702,-0.4109,-0.6514,-0.7139,-0.7217,-0.7519,-0.736,-0.7139,-0.7139,-0.7139,-0.7319,-0.7923,-0.8038,-0.8038,-0.8038,-0.8038,-0.8038,-0.8038,-0.8038,-0.8038,-0.8038,-0.8038,-0.8038,-0.8038,-0.8038,-0.7919,-0.7617,-0.7316,-0.7139,-0.7139,-0.7139,-0.7139,-0.7139,-0.7139,-0.598,-0.3573,-0.1255,0.0,0.0,0.0,0.0,0.0,0.0,0.0,1.479,1.4666,1.4618,1.481,1.4387,1.3926,0.0,0.0,0.0,1.3352,1.3115,1.2988,1.332,1.3389,1.3176,1.2501,1.2396,1.2085,1.1267,0.9786,0.867,0.8487,0.6068,0.4063,0.3189,0.3122,0.3454,0.4306,0.5475,0.6186,0.6213,0.6244,0.6338,0.6338,0.6103,0.6103,0.6261,0.6103,0.5683,0.4986,0.4964,0.4482,0.3531,0.2388,0.179,0.1701,0.0539,-0.0718,-0.179,-0.179,-0.2415,-0.3215,-0.3215,-0.268,-0.1612,-0.0449,0.0,0.0,0.0,0.0,0.0,0.0,0.0,0.0,0.0,0.0,0.0,0.0,0.0,-0.0897,-0.473,-0.6425,-0.7139,-0.7139,-0.7139,-0.7139,-0.7139,-0.7139,-0.7285,-0.777,-0.7865,-0.7902,-0.8021,-0.8038,-0.8038,-0.8038,-0.8038,-0.8038,-0.8038,-0.8038,-0.8038,-0.8038,-0.7936,-0.7668,-0.718,-0.7139,-0.7139,-0.7139,-0.7139,-0.7139,-0.7139,-0.6245,-0.3929,-0.009,0.0,0.0,0.0,0.0,0.0,0.0,0.0,0.0,1.4909,1.4411,1.3944,1.3442,1.3691,1.3679,1.2379,0.0,1.3331,1.3008,0.0,1.29,1.2939,0.0,0.0,1.2851,1.2567,1.2042,1.1382,1.0158,0.8986,0.8182,0.6435,0.4954,0.3939,0.3872,0.363,0.3143,0.4829,0.5911,0.6051,0.6186,0.6338,0.6338,0.5392,0.5315,0.6261,0.5392,0.5321,0.6129,0.5254,0.4866,0.4631,0.2722,0.179,0.1701,0.0539,-0.0718,-0.179,-0.179,-0.1879,-0.1969,-0.1969,-0.1879,-0.1612,-0.0449,0.0,0.0,0.0,0.0,0.0,0.0,0.0,0.0,0.0,0.0,0.0,0.0,0.0,-0.009,-0.0628,-0.3929,-0.7139,-0.7139,-0.7139,-0.7139,-0.7139,-0.7139,-0.716,-0.7227,-0.7241,-0.7411,-0.7946,-0.8038,-0.8038,-0.8038,-0.8038,-0.8038,-0.8038,-0.8038,-0.8038,-0.8038,-0.756,-0.7214,-0.7146,-0.7139,-0.7139,-0.7139,-0.7139,-0.7139,-0.7139,-0.304,-0.0539,0.0,0.0,0.0,0.0,0.0,0.0,0.0,0.0,0.0,1.3415,1.3194,1.3126,1.2777,1.2994,1.3061,1.2391,1.2714,1.3164,1.3232,0.0,0.0,0.0,0.0,0.0,0.0,1.2095,1.1285,1.0822,0.9256,0.8052,0.7624,0.6517,0.5267,0.3919,0.3494,0.3203,0.2842,0.3655,0.452,0.5225,0.4758,0.4701,0.5389,0.4295,0.3982,0.4453,0.4608,0.4924,0.5395,0.5737,0.5945,0.5871,0.4557,0.3484,0.2769,0.1612,0.0359,-0.0718,-0.0718,-0.0718,-0.0718,0.0,0.0268,0.0358,0.0896,0.1076,0.1076,0.1076,0.0628,0.0,0.0,0.0,0.0,0.0,0.0,0.0,0.0,0.0,0.0,0.0,-0.1523,-0.295,-0.295,-0.5087,-0.7139,-0.7139,-0.7139,-0.7139,-0.7139,-0.7139,-0.7221,-0.7472,-0.7807,-0.8038,-0.8038,-0.8038,-0.8038,-0.8038,-0.8038,-0.7906,-0.7553,-0.7292,-0.7139,-0.7139,-0.7139,-0.7139,-0.7139,-0.7139,-0.5888,-0.3129,-0.1076,0.0,0.0,0.0,0.0,0.0,0.0,0.0,0.0,0.0,0.0,1.2927,1.2742,1.2704,1.2402,1.2472,1.2556,1.2132,1.2647,1.3281,1.3467,1.3457,0.0,0.0,0.0,1.3184,0.0,0.0,1.1301,1.063,0.9027,0.7705,0.7079,0.6199,0.5019,0.3479,0.314,0.2854,0.2358,0.2736,0.3357,0.4179,0.352,0.3473,0.4253,0.327,0.2813,0.3124,0.3595,0.4142,0.4691,0.5699,0.641,0.6709,0.5745,0.4884,0.4016,0.2503,0.1344,0.0449,0.018,0.0,0.009,0.0986,0.1701,0.2325,0.2325,0.2325,0.2325,0.2325,0.1701,0.0986,0.0718,0.0628,0.0538,0.009,0.0,0.0,0.0,0.0,0.0,0.0,0.0,0.0,0.0,-0.3662,-0.7139,-0.7139,-0.7139,-0.7139,-0.7139,-0.7139,-0.7139,-0.7139,-0.7641,-0.8038,-0.8038,-0.8038,-0.8038,-0.8038,-0.8038,-0.7807,-0.7204,-0.7139,-0.7139,-0.7139,-0.7139,-0.7139,-0.7139,-0.7139,-0.4999,-0.018,0.0,0.0,0.0,0.0,0.0,0.0,0.0,0.0,0.0,0.0,0.0,1.4416,1.3746,1.2914,1.2185,1.2304,1.2309,1.1107,1.2541,1.3922,1.3584,1.416,1.46,1.4136,1.4048,0.0,0.0,0.0,0.0,0.0,1.0097,0.8789,0.6494,0.5341,0.416,0.2699,0.3179,0.2985,0.1478,0.2222,0.2787,0.2945,0.3041,0.3092,0.317,0.2167,0.2113,0.3124,0.2192,0.2738,0.4688,0.4888,0.5575,0.6705,0.5568,0.5165,0.5179,0.2861,0.179,0.1612,0.0449,0.0,0.0,0.0,0.1522,0.357,0.357,0.357,0.357,0.357,0.3481,0.3392,0.2591,0.2323,0.2056,0.0449,0.0,0.0,0.0,0.0,0.0,0.0,0.0,0.0,0.0,-0.3662,-0.7139,-0.7139,-0.7139,-0.7139,-0.7139,-0.7139,-0.7139,-0.7139,-0.7641,-0.8038,-0.8038,-0.8038,-0.8038,-0.8038,-0.8038,-0.7807,-0.7204,-0.7139,-0.7139,-0.7139,-0.7139,-0.7139,-0.7139,-0.7139,-0.4999,-0.018,0.0,0.0,0.0,0.0,0.0,0.0,0.0,0.0,0.0,0.0,0.0,1.3388,1.3262,1.2988,1.2117,1.2094,1.1934,1.0984,1.2121,1.3301,1.2902,1.3857,1.4648,1.4165,1.4077,0.0,0.0,0.0,0.0,0.0,0.8428,0.689,0.6278,0.4875,0.3735,0.3117,0.2447,0.1811,0.1215,0.1023,0.1252,0.2016,0.14,0.1398,0.2113,0.1084,0.0706,0.1019,0.1411,0.227,0.3671,0.4482,0.5572,0.6705,0.6427,0.5953,0.5359,0.4554,0.3751,0.2948,0.2592,0.2415,0.2503,0.3218,0.4109,0.4732,0.3926,0.4105,0.4643,0.3837,0.357,0.3481,0.2679,0.2768,0.2769,0.0628,0.2237,0.4018,0.0897,0.0,0.0,0.0,0.0,0.0,0.0,-0.1255,-0.3307,-0.6425,-0.7139,-0.7139,-0.7139,-0.7461,-0.7736,-0.7736,-0.7902,-0.8038,-0.8038,-0.8038,-0.8038,-0.8038,-0.8038,-0.7807,-0.7204,-0.7139,-0.7139,-0.7139,-0.7139,-0.7139,-0.7139,-0.7139,-0.4999,-0.018,0.0,0.0,0.0,0.0,0.0,0.0,0.0,0.0,0.0,0.0,0.0,1.2913,1.306,1.3019,1.2218,1.2284,1.2241,1.1211,1.2263,1.3313,1.313,1.4054,1.484,1.5021,1.4622,0.0,0.0,0.0,0.0,0.0,0.7375,0.5845,0.5234,0.4193,0.337,0.2961,0.1914,0.1073,0.0728,0.0288,0.03,0.101,0.0409,0.0288,0.1043,0.0386,0.0,0.0,0.0706,0.1722,0.3124,0.3889,0.5119,0.6705,0.6803,0.6519,0.5983,0.5536,0.4999,0.4196,0.3748,0.357,0.3659,0.4463,0.5001,0.5359,0.4996,0.5354,0.5894,0.5085,0.4816,0.4727,0.4281,0.4461,0.455,0.304,0.4643,0.6068,0.1345,0.0,0.0,0.0,0.0,0.0,0.0,0.0,-0.1345,-0.6068,-0.7139,-0.7204,-0.7417,-0.76,-0.7787,-0.8001,-0.8038,-0.8038,-0.8038,-0.8038,-0.8038,-0.8038,-0.8038,-0.7807,-0.7204,-0.7139,-0.7139,-0.7139,-0.7139,-0.7139,-0.7139,-0.7139,-0.4999,-0.018,0.0,0.0,0.0,0.0,0.0,0.0,0.0,0.0,0.0,0.0,0.0]}]]